<?xml version="1.0" encoding="UTF-8"?><gpx xmlns="http://www.topografix.com/GPX/1/1" version="1.1" creator="iOrient"><trk><name>Зимний Кубок. Этап 3</name><trkseg><trkpt lat="55.7932646" lon="49.1512570"><time>2025-03-23T09:35:20.410</time></trkpt><trkpt lat="55.7932863" lon="49.1511800"><time>2025-03-23T09:35:21.407</time></trkpt><trkpt lat="55.7933578" lon="49.1511866"><time>2025-03-23T09:35:25.410</time></trkpt><trkpt lat="55.7934120" lon="49.1511575"><time>2025-03-23T09:35:27.563</time></trkpt><trkpt lat="55.7934250" lon="49.1512479"><time>2025-03-23T09:35:36.407</time></trkpt><trkpt lat="55.7934642" lon="49.1513056"><time>2025-03-23T09:35:46.407</time></trkpt><trkpt lat="55.7934957" lon="49.1513631"><time>2025-03-23T09:35:49.410</time></trkpt><trkpt lat="55.7935475" lon="49.1514067"><time>2025-03-23T09:35:53.410</time></trkpt><trkpt lat="55.7935973" lon="49.1513908"><time>2025-03-23T09:35:58.413</time></trkpt><trkpt lat="55.7936389" lon="49.1514258"><time>2025-03-23T09:36:04.410</time></trkpt><trkpt lat="55.7936504" lon="49.1515104"><time>2025-03-23T09:36:36.420</time></trkpt><trkpt lat="55.7936883" lon="49.1515561"><time>2025-03-23T09:36:39.467</time></trkpt><trkpt lat="55.7937487" lon="49.1515699"><time>2025-03-23T09:36:43.470</time></trkpt><trkpt lat="55.7937995" lon="49.1516067"><time>2025-03-23T09:36:46.410</time></trkpt><trkpt lat="55.7938013" lon="49.1517005"><time>2025-03-23T09:36:49.473</time></trkpt><trkpt lat="55.7938080" lon="49.1517917"><time>2025-03-23T09:36:53.467</time></trkpt><trkpt lat="55.7938542" lon="49.1518461"><time>2025-03-23T09:36:58.470</time></trkpt><trkpt lat="55.7938963" lon="49.1518894"><time>2025-03-23T09:37:02.403</time></trkpt><trkpt lat="55.7939361" lon="49.1519412"><time>2025-03-23T09:37:07.407</time></trkpt><trkpt lat="55.7939739" lon="49.1519845"><time>2025-03-23T09:37:11.407</time></trkpt><trkpt lat="55.7940208" lon="49.1520040"><time>2025-03-23T09:37:16.407</time></trkpt><trkpt lat="55.7940738" lon="49.1520213"><time>2025-03-23T09:37:20.410</time></trkpt><trkpt lat="55.7941233" lon="49.1520570"><time>2025-03-23T09:37:24.410</time></trkpt><trkpt lat="55.7941732" lon="49.1520741"><time>2025-03-23T09:37:29.423</time></trkpt><trkpt lat="55.7942294" lon="49.1520837"><time>2025-03-23T09:37:34.473</time></trkpt><trkpt lat="55.7942772" lon="49.1521145"><time>2025-03-23T09:37:38.417</time></trkpt><trkpt lat="55.7943289" lon="49.1521447"><time>2025-03-23T09:37:42.417</time></trkpt><trkpt lat="55.7943766" lon="49.1521701"><time>2025-03-23T09:37:45.413</time></trkpt><trkpt lat="55.7944212" lon="49.1522018"><time>2025-03-23T09:37:48.477</time></trkpt><trkpt lat="55.7944638" lon="49.1522348"><time>2025-03-23T09:37:51.413</time></trkpt><trkpt lat="55.7945080" lon="49.1522584"><time>2025-03-23T09:37:54.497</time></trkpt><trkpt lat="55.7945628" lon="49.1522903"><time>2025-03-23T09:37:58.467</time></trkpt><trkpt lat="55.7946089" lon="49.1523107"><time>2025-03-23T09:38:01.413</time></trkpt><trkpt lat="55.7946516" lon="49.1523362"><time>2025-03-23T09:38:04.417</time></trkpt><trkpt lat="55.7947094" lon="49.1523503"><time>2025-03-23T09:38:08.477</time></trkpt><trkpt lat="55.7947675" lon="49.1523608"><time>2025-03-23T09:38:12.417</time></trkpt><trkpt lat="55.7948124" lon="49.1523715"><time>2025-03-23T09:38:15.417</time></trkpt><trkpt lat="55.7948579" lon="49.1523842"><time>2025-03-23T09:38:18.477</time></trkpt><trkpt lat="55.7949175" lon="49.1523615"><time>2025-03-23T09:38:21.413</time></trkpt><trkpt lat="55.7949707" lon="49.1523766"><time>2025-03-23T09:38:23.470</time></trkpt><trkpt lat="55.7950214" lon="49.1524135"><time>2025-03-23T09:38:25.410</time></trkpt><trkpt lat="55.7950721" lon="49.1524270"><time>2025-03-23T09:38:27.497</time></trkpt><trkpt lat="55.7951392" lon="49.1523780"><time>2025-03-23T09:38:29.470</time></trkpt><trkpt lat="55.7951971" lon="49.1523650"><time>2025-03-23T09:38:31.410</time></trkpt><trkpt lat="55.7952527" lon="49.1523895"><time>2025-03-23T09:38:33.470</time></trkpt><trkpt lat="55.7953184" lon="49.1524120"><time>2025-03-23T09:38:35.417</time></trkpt><trkpt lat="55.7953923" lon="49.1524173"><time>2025-03-23T09:38:37.470</time></trkpt><trkpt lat="55.7954821" lon="49.1524436"><time>2025-03-23T09:38:39.413</time></trkpt><trkpt lat="55.7955276" lon="49.1524597"><time>2025-03-23T09:38:40.410</time></trkpt><trkpt lat="55.7955754" lon="49.1524855"><time>2025-03-23T09:38:41.410</time></trkpt><trkpt lat="55.7956481" lon="49.1524251"><time>2025-03-23T09:38:43.477</time></trkpt><trkpt lat="55.7957189" lon="49.1523591"><time>2025-03-23T09:38:47.470</time></trkpt><trkpt lat="55.7957625" lon="49.1523092"><time>2025-03-23T09:38:49.483</time></trkpt><trkpt lat="55.7958165" lon="49.1523517"><time>2025-03-23T09:38:52.477</time></trkpt><trkpt lat="55.7958706" lon="49.1523589"><time>2025-03-23T09:38:55.420</time></trkpt><trkpt lat="55.7959257" lon="49.1523766"><time>2025-03-23T09:38:57.467</time></trkpt><trkpt lat="55.7959820" lon="49.1523441"><time>2025-03-23T09:39:00.413</time></trkpt><trkpt lat="55.7960355" lon="49.1522865"><time>2025-03-23T09:39:03.467</time></trkpt><trkpt lat="55.7960796" lon="49.1522721"><time>2025-03-23T09:39:05.410</time></trkpt><trkpt lat="55.7961294" lon="49.1522485"><time>2025-03-23T09:39:07.447</time></trkpt><trkpt lat="55.7961777" lon="49.1522177"><time>2025-03-23T09:39:09.407</time></trkpt><trkpt lat="55.7962401" lon="49.1521416"><time>2025-03-23T09:39:12.417</time></trkpt><trkpt lat="55.7962889" lon="49.1520831"><time>2025-03-23T09:39:14.467</time></trkpt><trkpt lat="55.7963259" lon="49.1520278"><time>2025-03-23T09:39:15.413</time></trkpt><trkpt lat="55.7963790" lon="49.1519369"><time>2025-03-23T09:39:17.467</time></trkpt><trkpt lat="55.7964387" lon="49.1518669"><time>2025-03-23T09:39:19.473</time></trkpt><trkpt lat="55.7964851" lon="49.1518231"><time>2025-03-23T09:39:22.437</time></trkpt><trkpt lat="55.7965248" lon="49.1517339"><time>2025-03-23T09:39:25.417</time></trkpt><trkpt lat="55.7965893" lon="49.1516935"><time>2025-03-23T09:39:28.473</time></trkpt><trkpt lat="55.7966790" lon="49.1516586"><time>2025-03-23T09:39:30.410</time></trkpt><trkpt lat="55.7967468" lon="49.1515592"><time>2025-03-23T09:39:32.467</time></trkpt><trkpt lat="55.7967797" lon="49.1515036"><time>2025-03-23T09:39:33.470</time></trkpt><trkpt lat="55.7968415" lon="49.1514531"><time>2025-03-23T09:39:35.413</time></trkpt><trkpt lat="55.7968835" lon="49.1514154"><time>2025-03-23T09:39:37.467</time></trkpt><trkpt lat="55.7969117" lon="49.1513474"><time>2025-03-23T09:39:39.467</time></trkpt><trkpt lat="55.7969418" lon="49.1512673"><time>2025-03-23T09:39:41.407</time></trkpt><trkpt lat="55.7969653" lon="49.1511708"><time>2025-03-23T09:39:44.467</time></trkpt><trkpt lat="55.7969993" lon="49.1510741"><time>2025-03-23T09:39:47.480</time></trkpt><trkpt lat="55.7970310" lon="49.1510116"><time>2025-03-23T09:39:49.477</time></trkpt><trkpt lat="55.7970457" lon="49.1509356"><time>2025-03-23T09:39:51.407</time></trkpt><trkpt lat="55.7970581" lon="49.1508168"><time>2025-03-23T09:39:54.457</time></trkpt><trkpt lat="55.7970882" lon="49.1507105"><time>2025-03-23T09:39:56.410</time></trkpt><trkpt lat="55.7971354" lon="49.1506121"><time>2025-03-23T09:39:58.473</time></trkpt><trkpt lat="55.7971906" lon="49.1504996"><time>2025-03-23T09:40:00.410</time></trkpt><trkpt lat="55.7972304" lon="49.1504447"><time>2025-03-23T09:40:02.410</time></trkpt><trkpt lat="55.7972741" lon="49.1503636"><time>2025-03-23T09:40:05.417</time></trkpt><trkpt lat="55.7972960" lon="49.1502831"><time>2025-03-23T09:40:07.443</time></trkpt><trkpt lat="55.7973080" lon="49.1501868"><time>2025-03-23T09:40:09.470</time></trkpt><trkpt lat="55.7973158" lon="49.1500854"><time>2025-03-23T09:40:12.403</time></trkpt><trkpt lat="55.7972995" lon="49.1499474"><time>2025-03-23T09:40:14.473</time></trkpt><trkpt lat="55.7972987" lon="49.1497899"><time>2025-03-23T09:40:16.413</time></trkpt><trkpt lat="55.7972927" lon="49.1496666"><time>2025-03-23T09:40:18.467</time></trkpt><trkpt lat="55.7972796" lon="49.1495779"><time>2025-03-23T09:40:19.477</time></trkpt><trkpt lat="55.7972515" lon="49.1495035"><time>2025-03-23T09:40:20.410</time></trkpt><trkpt lat="55.7972269" lon="49.1494182"><time>2025-03-23T09:40:23.480</time></trkpt><trkpt lat="55.7971688" lon="49.1494069"><time>2025-03-23T09:40:26.417</time></trkpt><trkpt lat="55.7971236" lon="49.1493471"><time>2025-03-23T09:40:30.417</time></trkpt><trkpt lat="55.7971031" lon="49.1492748"><time>2025-03-23T09:40:37.467</time></trkpt><trkpt lat="55.7970935" lon="49.1491909"><time>2025-03-23T09:40:42.477</time></trkpt><trkpt lat="55.7971079" lon="49.1490968"><time>2025-03-23T09:40:46.417</time></trkpt><trkpt lat="55.7970964" lon="49.1490054"><time>2025-03-23T09:40:49.470</time></trkpt><trkpt lat="55.7970810" lon="49.1489243"><time>2025-03-23T09:40:52.470</time></trkpt><trkpt lat="55.7970635" lon="49.1488342"><time>2025-03-23T09:40:55.420</time></trkpt><trkpt lat="55.7970624" lon="49.1487488"><time>2025-03-23T09:40:58.473</time></trkpt><trkpt lat="55.7970801" lon="49.1486367"><time>2025-03-23T09:41:00.413</time></trkpt><trkpt lat="55.7971018" lon="49.1485120"><time>2025-03-23T09:41:02.407</time></trkpt><trkpt lat="55.7971303" lon="49.1484160"><time>2025-03-23T09:41:04.467</time></trkpt><trkpt lat="55.7971866" lon="49.1482985"><time>2025-03-23T09:41:06.407</time></trkpt><trkpt lat="55.7972266" lon="49.1481781"><time>2025-03-23T09:41:08.410</time></trkpt><trkpt lat="55.7972604" lon="49.1480975"><time>2025-03-23T09:41:10.417</time></trkpt><trkpt lat="55.7972971" lon="49.1480263"><time>2025-03-23T09:41:13.407</time></trkpt><trkpt lat="55.7973371" lon="49.1479602"><time>2025-03-23T09:41:15.413</time></trkpt><trkpt lat="55.7973749" lon="49.1478572"><time>2025-03-23T09:41:17.410</time></trkpt><trkpt lat="55.7974185" lon="49.1477976"><time>2025-03-23T09:41:18.403</time></trkpt><trkpt lat="55.7974585" lon="49.1477483"><time>2025-03-23T09:41:20.417</time></trkpt><trkpt lat="55.7974903" lon="49.1476820"><time>2025-03-23T09:41:22.420</time></trkpt><trkpt lat="55.7975232" lon="49.1475982"><time>2025-03-23T09:41:24.417</time></trkpt><trkpt lat="55.7975582" lon="49.1475106"><time>2025-03-23T09:41:26.417</time></trkpt><trkpt lat="55.7975915" lon="49.1474323"><time>2025-03-23T09:41:28.473</time></trkpt><trkpt lat="55.7976209" lon="49.1473597"><time>2025-03-23T09:41:29.470</time></trkpt><trkpt lat="55.7976524" lon="49.1472966"><time>2025-03-23T09:41:31.410</time></trkpt><trkpt lat="55.7977100" lon="49.1472227"><time>2025-03-23T09:41:34.473</time></trkpt><trkpt lat="55.7977584" lon="49.1471692"><time>2025-03-23T09:41:38.480</time></trkpt><trkpt lat="55.7977947" lon="49.1471216"><time>2025-03-23T09:41:42.413</time></trkpt><trkpt lat="55.7978459" lon="49.1470589"><time>2025-03-23T09:41:48.407</time></trkpt><trkpt lat="55.7978946" lon="49.1470022"><time>2025-03-23T09:41:51.410</time></trkpt><trkpt lat="55.7979513" lon="49.1469328"><time>2025-03-23T09:41:55.397</time></trkpt><trkpt lat="55.7979816" lon="49.1468730"><time>2025-03-23T09:41:57.400</time></trkpt><trkpt lat="55.7979840" lon="49.1468445"><time>2025-03-23T09:41:58.683</time></trkpt><trkpt lat="55.7980055" lon="49.1467995"><time>2025-03-23T09:42:01.407</time></trkpt><trkpt lat="55.7980314" lon="49.1467089"><time>2025-03-23T09:42:04.407</time></trkpt><trkpt lat="55.7980851" lon="49.1466689"><time>2025-03-23T09:42:08.417</time></trkpt><trkpt lat="55.7981519" lon="49.1467135"><time>2025-03-23T09:42:11.400</time></trkpt><trkpt lat="55.7982006" lon="49.1466973"><time>2025-03-23T09:42:13.403</time></trkpt><trkpt lat="55.7982622" lon="49.1466934"><time>2025-03-23T09:42:15.400</time></trkpt><trkpt lat="55.7983154" lon="49.1467396"><time>2025-03-23T09:42:18.403</time></trkpt><trkpt lat="55.7983635" lon="49.1467682"><time>2025-03-23T09:42:20.400</time></trkpt><trkpt lat="55.7984252" lon="49.1467682"><time>2025-03-23T09:42:23.400</time></trkpt><trkpt lat="55.7984731" lon="49.1467862"><time>2025-03-23T09:42:25.403</time></trkpt><trkpt lat="55.7985284" lon="49.1468222"><time>2025-03-23T09:42:27.410</time></trkpt><trkpt lat="55.7985683" lon="49.1468821"><time>2025-03-23T09:42:29.403</time></trkpt><trkpt lat="55.7986324" lon="49.1469208"><time>2025-03-23T09:42:33.403</time></trkpt><trkpt lat="55.7986900" lon="49.1469529"><time>2025-03-23T09:42:35.400</time></trkpt><trkpt lat="55.7987433" lon="49.1470164"><time>2025-03-23T09:42:37.403</time></trkpt><trkpt lat="55.7988026" lon="49.1470651"><time>2025-03-23T09:42:40.413</time></trkpt><trkpt lat="55.7988613" lon="49.1471165"><time>2025-03-23T09:42:43.407</time></trkpt><trkpt lat="55.7989071" lon="49.1471589"><time>2025-03-23T09:42:45.407</time></trkpt><trkpt lat="55.7989595" lon="49.1471848"><time>2025-03-23T09:42:48.407</time></trkpt><trkpt lat="55.7990095" lon="49.1472090"><time>2025-03-23T09:42:52.413</time></trkpt><trkpt lat="55.7990659" lon="49.1472384"><time>2025-03-23T09:42:56.400</time></trkpt><trkpt lat="55.7991212" lon="49.1472608"><time>2025-03-23T09:42:59.407</time></trkpt><trkpt lat="55.7991728" lon="49.1472745"><time>2025-03-23T09:43:03.403</time></trkpt><trkpt lat="55.7992158" lon="49.1472471"><time>2025-03-23T09:43:07.400</time></trkpt><trkpt lat="55.7992616" lon="49.1472255"><time>2025-03-23T09:43:11.407</time></trkpt><trkpt lat="55.7993087" lon="49.1472015"><time>2025-03-23T09:43:16.407</time></trkpt><trkpt lat="55.7993594" lon="49.1471856"><time>2025-03-23T09:43:20.413</time></trkpt><trkpt lat="55.7994199" lon="49.1471884"><time>2025-03-23T09:43:24.407</time></trkpt><trkpt lat="55.7994660" lon="49.1471943"><time>2025-03-23T09:43:26.413</time></trkpt><trkpt lat="55.7995194" lon="49.1472407"><time>2025-03-23T09:43:29.400</time></trkpt><trkpt lat="55.7995649" lon="49.1472572"><time>2025-03-23T09:43:32.407</time></trkpt><trkpt lat="55.7996348" lon="49.1472488"><time>2025-03-23T09:43:36.413</time></trkpt><trkpt lat="55.7996809" lon="49.1472451"><time>2025-03-23T09:43:38.407</time></trkpt><trkpt lat="55.7997422" lon="49.1472107"><time>2025-03-23T09:43:42.410</time></trkpt><trkpt lat="55.7997902" lon="49.1472158"><time>2025-03-23T09:43:48.407</time></trkpt><trkpt lat="55.7998374" lon="49.1472661"><time>2025-03-23T09:43:52.470</time></trkpt><trkpt lat="55.7998919" lon="49.1472827"><time>2025-03-23T09:43:54.473</time></trkpt><trkpt lat="55.7999465" lon="49.1472880"><time>2025-03-23T09:43:57.453</time></trkpt><trkpt lat="55.7999965" lon="49.1472887"><time>2025-03-23T09:44:01.413</time></trkpt><trkpt lat="55.8000418" lon="49.1472680"><time>2025-03-23T09:44:04.417</time></trkpt><trkpt lat="55.8000946" lon="49.1472469"><time>2025-03-23T09:44:08.430</time></trkpt><trkpt lat="55.8001590" lon="49.1472284"><time>2025-03-23T09:44:11.417</time></trkpt><trkpt lat="55.8002063" lon="49.1471816"><time>2025-03-23T09:44:15.463</time></trkpt><trkpt lat="55.8002562" lon="49.1471631"><time>2025-03-23T09:44:20.470</time></trkpt><trkpt lat="55.8003074" lon="49.1471553"><time>2025-03-23T09:44:26.467</time></trkpt><trkpt lat="55.8003675" lon="49.1471494"><time>2025-03-23T09:44:30.407</time></trkpt><trkpt lat="55.8004212" lon="49.1471530"><time>2025-03-23T09:44:33.410</time></trkpt><trkpt lat="55.8004759" lon="49.1471437"><time>2025-03-23T09:44:37.460</time></trkpt><trkpt lat="55.8005238" lon="49.1471310"><time>2025-03-23T09:44:41.467</time></trkpt><trkpt lat="55.8005826" lon="49.1471240"><time>2025-03-23T09:44:46.470</time></trkpt><trkpt lat="55.8006316" lon="49.1470978"><time>2025-03-23T09:44:50.467</time></trkpt><trkpt lat="55.8006799" lon="49.1470832"><time>2025-03-23T09:44:54.410</time></trkpt><trkpt lat="55.8007355" lon="49.1470832"><time>2025-03-23T09:44:58.410</time></trkpt><trkpt lat="55.8007921" lon="49.1470865"><time>2025-03-23T09:45:02.473</time></trkpt><trkpt lat="55.8008504" lon="49.1470921"><time>2025-03-23T09:45:06.477</time></trkpt><trkpt lat="55.8008964" lon="49.1470930"><time>2025-03-23T09:45:09.410</time></trkpt><trkpt lat="55.8009439" lon="49.1471220"><time>2025-03-23T09:45:14.420</time></trkpt><trkpt lat="55.8009964" lon="49.1471383"><time>2025-03-23T09:45:18.420</time></trkpt><trkpt lat="55.8010463" lon="49.1471301"><time>2025-03-23T09:45:22.503</time></trkpt><trkpt lat="55.8010874" lon="49.1470898"><time>2025-03-23T09:45:26.470</time></trkpt><trkpt lat="55.8011441" lon="49.1470736"><time>2025-03-23T09:45:30.470</time></trkpt><trkpt lat="55.8011921" lon="49.1470552"><time>2025-03-23T09:45:34.413</time></trkpt><trkpt lat="55.8012482" lon="49.1470192"><time>2025-03-23T09:45:38.413</time></trkpt><trkpt lat="55.8012975" lon="49.1469652"><time>2025-03-23T09:45:41.473</time></trkpt><trkpt lat="55.8013484" lon="49.1469104"><time>2025-03-23T09:45:45.470</time></trkpt><trkpt lat="55.8013784" lon="49.1468383"><time>2025-03-23T09:45:48.413</time></trkpt><trkpt lat="55.8013964" lon="49.1467582"><time>2025-03-23T09:45:52.473</time></trkpt><trkpt lat="55.8013898" lon="49.1466559"><time>2025-03-23T09:45:56.473</time></trkpt><trkpt lat="55.8013753" lon="49.1465567"><time>2025-03-23T09:45:59.410</time></trkpt><trkpt lat="55.8013537" lon="49.1464670"><time>2025-03-23T09:46:03.407</time></trkpt><trkpt lat="55.8013356" lon="49.1463695"><time>2025-03-23T09:46:07.467</time></trkpt><trkpt lat="55.8013133" lon="49.1462921"><time>2025-03-23T09:46:10.467</time></trkpt><trkpt lat="55.8012942" lon="49.1461883"><time>2025-03-23T09:46:13.417</time></trkpt><trkpt lat="55.8012799" lon="49.1460993"><time>2025-03-23T09:46:15.410</time></trkpt><trkpt lat="55.8012421" lon="49.1459929"><time>2025-03-23T09:46:18.410</time></trkpt><trkpt lat="55.8012108" lon="49.1458894"><time>2025-03-23T09:46:20.463</time></trkpt><trkpt lat="55.8011942" lon="49.1457856"><time>2025-03-23T09:46:22.480</time></trkpt><trkpt lat="55.8011513" lon="49.1456440"><time>2025-03-23T09:46:24.417</time></trkpt><trkpt lat="55.8011070" lon="49.1455584"><time>2025-03-23T09:46:25.470</time></trkpt><trkpt lat="55.8010720" lon="49.1455046"><time>2025-03-23T09:46:26.470</time></trkpt><trkpt lat="55.8010376" lon="49.1454201"><time>2025-03-23T09:46:28.403</time></trkpt><trkpt lat="55.8009925" lon="49.1452994"><time>2025-03-23T09:46:30.407</time></trkpt><trkpt lat="55.8009645" lon="49.1452204"><time>2025-03-23T09:46:31.407</time></trkpt><trkpt lat="55.8009345" lon="49.1451542"><time>2025-03-23T09:46:32.417</time></trkpt><trkpt lat="55.8009060" lon="49.1450865"><time>2025-03-23T09:46:37.407</time></trkpt><trkpt lat="55.8008446" lon="49.1450786"><time>2025-03-23T09:46:43.410</time></trkpt><trkpt lat="55.8007994" lon="49.1450410"><time>2025-03-23T09:46:47.413</time></trkpt><trkpt lat="55.8007656" lon="49.1449790"><time>2025-03-23T09:46:53.413</time></trkpt><trkpt lat="55.8007240" lon="49.1449347"><time>2025-03-23T09:46:58.407</time></trkpt><trkpt lat="55.8006743" lon="49.1448877"><time>2025-03-23T09:47:06.417</time></trkpt><trkpt lat="55.8006287" lon="49.1448855"><time>2025-03-23T09:47:11.410</time></trkpt><trkpt lat="55.8005733" lon="49.1448636"><time>2025-03-23T09:47:16.410</time></trkpt><trkpt lat="55.8005272" lon="49.1448352"><time>2025-03-23T09:47:20.413</time></trkpt><trkpt lat="55.8005016" lon="49.1447570"><time>2025-03-23T09:47:24.410</time></trkpt><trkpt lat="55.8005389" lon="49.1447025"><time>2025-03-23T09:47:29.413</time></trkpt><trkpt lat="55.8005874" lon="49.1447009"><time>2025-03-23T09:47:33.407</time></trkpt><trkpt lat="55.8006136" lon="49.1447814"><time>2025-03-23T09:47:40.413</time></trkpt><trkpt lat="55.8006613" lon="49.1447530"><time>2025-03-23T09:47:43.420</time></trkpt><trkpt lat="55.8006772" lon="49.1448534"><time>2025-03-23T09:47:46.477</time></trkpt><trkpt lat="55.8006317" lon="49.1448503"><time>2025-03-23T09:47:48.410</time></trkpt><trkpt lat="55.8005902" lon="49.1447647"><time>2025-03-23T09:47:50.470</time></trkpt><trkpt lat="55.8005920" lon="49.1446812"><time>2025-03-23T09:48:39.417</time></trkpt><trkpt lat="55.8005952" lon="49.1445703"><time>2025-03-23T09:48:55.407</time></trkpt><trkpt lat="55.8006063" lon="49.1444789"><time>2025-03-23T09:48:57.413</time></trkpt><trkpt lat="55.8006244" lon="49.1443820"><time>2025-03-23T09:49:00.407</time></trkpt><trkpt lat="55.8006052" lon="49.1442924"><time>2025-03-23T09:49:04.410</time></trkpt><trkpt lat="55.8005707" lon="49.1442125"><time>2025-03-23T09:49:08.410</time></trkpt><trkpt lat="55.8005536" lon="49.1441344"><time>2025-03-23T09:49:11.410</time></trkpt><trkpt lat="55.8005125" lon="49.1440754"><time>2025-03-23T09:49:14.410</time></trkpt><trkpt lat="55.8004839" lon="49.1439867"><time>2025-03-23T09:49:18.407</time></trkpt><trkpt lat="55.8004418" lon="49.1439543"><time>2025-03-23T09:49:24.407</time></trkpt><trkpt lat="55.8003930" lon="49.1439250"><time>2025-03-23T09:49:29.467</time></trkpt><trkpt lat="55.8003410" lon="49.1439628"><time>2025-03-23T09:49:34.460</time></trkpt><trkpt lat="55.8003036" lon="49.1439182"><time>2025-03-23T09:49:42.480</time></trkpt><trkpt lat="55.8002657" lon="49.1438711"><time>2025-03-23T09:49:47.413</time></trkpt><trkpt lat="55.8002276" lon="49.1439167"><time>2025-03-23T09:49:53.473</time></trkpt><trkpt lat="55.8001953" lon="49.1439916"><time>2025-03-23T09:49:59.413</time></trkpt><trkpt lat="55.8001936" lon="49.1440797"><time>2025-03-23T09:50:07.403</time></trkpt><trkpt lat="55.8001930" lon="49.1441607"><time>2025-03-23T09:50:16.407</time></trkpt><trkpt lat="55.8002330" lon="49.1442174"><time>2025-03-23T09:50:22.407</time></trkpt><trkpt lat="55.8002232" lon="49.1441289"><time>2025-03-23T09:50:43.413</time></trkpt><trkpt lat="55.8002037" lon="49.1440524"><time>2025-03-23T09:50:47.467</time></trkpt><trkpt lat="55.8001830" lon="49.1439718"><time>2025-03-23T09:50:51.410</time></trkpt><trkpt lat="55.8001580" lon="49.1438858"><time>2025-03-23T09:50:55.417</time></trkpt><trkpt lat="55.8001555" lon="49.1437774"><time>2025-03-23T09:51:00.413</time></trkpt><trkpt lat="55.8001174" lon="49.1437325"><time>2025-03-23T09:51:05.410</time></trkpt><trkpt lat="55.8000987" lon="49.1437927"><time>2025-03-23T09:51:10.483</time></trkpt><trkpt lat="55.8001678" lon="49.1437634"><time>2025-03-23T09:51:18.417</time></trkpt><trkpt lat="55.8002128" lon="49.1437907"><time>2025-03-23T09:51:21.410</time></trkpt><trkpt lat="55.8002601" lon="49.1438201"><time>2025-03-23T09:51:24.410</time></trkpt><trkpt lat="55.8003134" lon="49.1438329"><time>2025-03-23T09:51:28.410</time></trkpt><trkpt lat="55.8003621" lon="49.1438525"><time>2025-03-23T09:51:32.410</time></trkpt><trkpt lat="55.8004110" lon="49.1439058"><time>2025-03-23T09:51:37.410</time></trkpt><trkpt lat="55.8004581" lon="49.1439587"><time>2025-03-23T09:51:41.407</time></trkpt><trkpt lat="55.8004790" lon="49.1440450"><time>2025-03-23T09:51:45.410</time></trkpt><trkpt lat="55.8004993" lon="49.1441264"><time>2025-03-23T09:51:48.403</time></trkpt><trkpt lat="55.8005344" lon="49.1442209"><time>2025-03-23T09:51:50.400</time></trkpt><trkpt lat="55.8005636" lon="49.1443010"><time>2025-03-23T09:51:52.407</time></trkpt><trkpt lat="55.8006132" lon="49.1443419"><time>2025-03-23T09:51:58.407</time></trkpt><trkpt lat="55.8006518" lon="49.1444391"><time>2025-03-23T09:52:01.403</time></trkpt><trkpt lat="55.8006455" lon="49.1445517"><time>2025-03-23T09:52:05.410</time></trkpt><trkpt lat="55.8006303" lon="49.1446474"><time>2025-03-23T09:52:08.477</time></trkpt><trkpt lat="55.8006543" lon="49.1447199"><time>2025-03-23T09:52:13.473</time></trkpt><trkpt lat="55.8007009" lon="49.1447079"><time>2025-03-23T09:52:18.477</time></trkpt><trkpt lat="55.8007572" lon="49.1447048"><time>2025-03-23T09:52:21.413</time></trkpt><trkpt lat="55.8008047" lon="49.1447335"><time>2025-03-23T09:52:23.470</time></trkpt><trkpt lat="55.8008619" lon="49.1448049"><time>2025-03-23T09:52:26.417</time></trkpt><trkpt lat="55.8009070" lon="49.1448597"><time>2025-03-23T09:52:28.477</time></trkpt><trkpt lat="55.8009474" lon="49.1448955"><time>2025-03-23T09:52:30.417</time></trkpt><trkpt lat="55.8009708" lon="49.1449753"><time>2025-03-23T09:52:34.473</time></trkpt><trkpt lat="55.8009811" lon="49.1450760"><time>2025-03-23T09:52:37.470</time></trkpt><trkpt lat="55.8009928" lon="49.1451892"><time>2025-03-23T09:52:39.470</time></trkpt><trkpt lat="55.8010156" lon="49.1452759"><time>2025-03-23T09:52:41.417</time></trkpt><trkpt lat="55.8010450" lon="49.1453588"><time>2025-03-23T09:52:43.473</time></trkpt><trkpt lat="55.8010631" lon="49.1454457"><time>2025-03-23T09:52:45.413</time></trkpt><trkpt lat="55.8010871" lon="49.1455352"><time>2025-03-23T09:52:47.470</time></trkpt><trkpt lat="55.8011130" lon="49.1456239"><time>2025-03-23T09:52:49.473</time></trkpt><trkpt lat="55.8011210" lon="49.1457303"><time>2025-03-23T09:52:52.477</time></trkpt><trkpt lat="55.8011458" lon="49.1458193"><time>2025-03-23T09:52:54.480</time></trkpt><trkpt lat="55.8011813" lon="49.1459170"><time>2025-03-23T09:52:57.467</time></trkpt><trkpt lat="55.8012149" lon="49.1460147"><time>2025-03-23T09:53:00.410</time></trkpt><trkpt lat="55.8012526" lon="49.1461130"><time>2025-03-23T09:53:02.483</time></trkpt><trkpt lat="55.8012710" lon="49.1461937"><time>2025-03-23T09:53:04.480</time></trkpt><trkpt lat="55.8012920" lon="49.1462867"><time>2025-03-23T09:53:06.417</time></trkpt><trkpt lat="55.8013160" lon="49.1464002"><time>2025-03-23T09:53:08.473</time></trkpt><trkpt lat="55.8013378" lon="49.1464976"><time>2025-03-23T09:53:10.413</time></trkpt><trkpt lat="55.8013747" lon="49.1465459"><time>2025-03-23T09:53:13.473</time></trkpt><trkpt lat="55.8014256" lon="49.1466485"><time>2025-03-23T09:53:16.413</time></trkpt><trkpt lat="55.8014962" lon="49.1466716"><time>2025-03-23T09:53:18.480</time></trkpt><trkpt lat="55.8015553" lon="49.1466437"><time>2025-03-23T09:53:20.417</time></trkpt><trkpt lat="55.8016044" lon="49.1465871"><time>2025-03-23T09:53:22.413</time></trkpt><trkpt lat="55.8016505" lon="49.1465456"><time>2025-03-23T09:53:24.467</time></trkpt><trkpt lat="55.8017005" lon="49.1465141"><time>2025-03-23T09:53:26.413</time></trkpt><trkpt lat="55.8017501" lon="49.1464669"><time>2025-03-23T09:53:28.477</time></trkpt><trkpt lat="55.8018005" lon="49.1464259"><time>2025-03-23T09:53:30.413</time></trkpt><trkpt lat="55.8018494" lon="49.1463808"><time>2025-03-23T09:53:32.437</time></trkpt><trkpt lat="55.8018994" lon="49.1463437"><time>2025-03-23T09:53:34.477</time></trkpt><trkpt lat="55.8019541" lon="49.1463012"><time>2025-03-23T09:53:36.467</time></trkpt><trkpt lat="55.8020169" lon="49.1462476"><time>2025-03-23T09:53:38.470</time></trkpt><trkpt lat="55.8020671" lon="49.1462072"><time>2025-03-23T09:53:40.417</time></trkpt><trkpt lat="55.8021077" lon="49.1461704"><time>2025-03-23T09:53:42.417</time></trkpt><trkpt lat="55.8021613" lon="49.1461371"><time>2025-03-23T09:53:44.473</time></trkpt><trkpt lat="55.8022138" lon="49.1461100"><time>2025-03-23T09:53:46.413</time></trkpt><trkpt lat="55.8022708" lon="49.1460787"><time>2025-03-23T09:53:48.493</time></trkpt><trkpt lat="55.8023307" lon="49.1460329"><time>2025-03-23T09:53:50.417</time></trkpt><trkpt lat="55.8023981" lon="49.1459673"><time>2025-03-23T09:53:52.470</time></trkpt><trkpt lat="55.8024384" lon="49.1459287"><time>2025-03-23T09:53:54.483</time></trkpt><trkpt lat="55.8024828" lon="49.1458998"><time>2025-03-23T09:53:56.413</time></trkpt><trkpt lat="55.8025275" lon="49.1458551"><time>2025-03-23T09:53:58.477</time></trkpt><trkpt lat="55.8025910" lon="49.1458018"><time>2025-03-23T09:54:00.420</time></trkpt><trkpt lat="55.8026481" lon="49.1457462"><time>2025-03-23T09:54:02.410</time></trkpt><trkpt lat="55.8026900" lon="49.1457118"><time>2025-03-23T09:54:04.473</time></trkpt><trkpt lat="55.8027289" lon="49.1455981"><time>2025-03-23T09:54:07.473</time></trkpt><trkpt lat="55.8027761" lon="49.1455325"><time>2025-03-23T09:54:09.470</time></trkpt><trkpt lat="55.8028332" lon="49.1455392"><time>2025-03-23T09:54:11.417</time></trkpt><trkpt lat="55.8028723" lon="49.1456011"><time>2025-03-23T09:54:13.477</time></trkpt><trkpt lat="55.8029102" lon="49.1456553"><time>2025-03-23T09:54:15.417</time></trkpt><trkpt lat="55.8029499" lon="49.1457243"><time>2025-03-23T09:54:17.477</time></trkpt><trkpt lat="55.8029898" lon="49.1458116"><time>2025-03-23T09:54:19.480</time></trkpt><trkpt lat="55.8030123" lon="49.1458958"><time>2025-03-23T09:54:21.413</time></trkpt><trkpt lat="55.8030395" lon="49.1459886"><time>2025-03-23T09:54:23.467</time></trkpt><trkpt lat="55.8030710" lon="49.1460992"><time>2025-03-23T09:54:25.407</time></trkpt><trkpt lat="55.8031010" lon="49.1462195"><time>2025-03-23T09:54:27.417</time></trkpt><trkpt lat="55.8031273" lon="49.1463323"><time>2025-03-23T09:54:29.477</time></trkpt><trkpt lat="55.8031546" lon="49.1464518"><time>2025-03-23T09:54:31.417</time></trkpt><trkpt lat="55.8031832" lon="49.1465674"><time>2025-03-23T09:54:33.413</time></trkpt><trkpt lat="55.8032115" lon="49.1466712"><time>2025-03-23T09:54:35.417</time></trkpt><trkpt lat="55.8032408" lon="49.1467636"><time>2025-03-23T09:54:38.473</time></trkpt><trkpt lat="55.8032640" lon="49.1468621"><time>2025-03-23T09:54:40.437</time></trkpt><trkpt lat="55.8032872" lon="49.1469598"><time>2025-03-23T09:54:42.490</time></trkpt><trkpt lat="55.8033123" lon="49.1470271"><time>2025-03-23T09:54:44.417</time></trkpt><trkpt lat="55.8033407" lon="49.1471062"><time>2025-03-23T09:54:46.420</time></trkpt><trkpt lat="55.8033726" lon="49.1472051"><time>2025-03-23T09:54:48.477</time></trkpt><trkpt lat="55.8034043" lon="49.1473067"><time>2025-03-23T09:54:50.417</time></trkpt><trkpt lat="55.8034381" lon="49.1474075"><time>2025-03-23T09:54:52.480</time></trkpt><trkpt lat="55.8034677" lon="49.1474939"><time>2025-03-23T09:54:54.480</time></trkpt><trkpt lat="55.8035004" lon="49.1475855"><time>2025-03-23T09:54:56.417</time></trkpt><trkpt lat="55.8035326" lon="49.1476590"><time>2025-03-23T09:54:58.477</time></trkpt><trkpt lat="55.8035642" lon="49.1477451"><time>2025-03-23T09:55:00.420</time></trkpt><trkpt lat="55.8035968" lon="49.1478411"><time>2025-03-23T09:55:02.470</time></trkpt><trkpt lat="55.8036257" lon="49.1479264"><time>2025-03-23T09:55:04.403</time></trkpt><trkpt lat="55.8036509" lon="49.1479957"><time>2025-03-23T09:55:06.403</time></trkpt><trkpt lat="55.8036870" lon="49.1480780"><time>2025-03-23T09:55:09.413</time></trkpt><trkpt lat="55.8037165" lon="49.1481668"><time>2025-03-23T09:55:12.407</time></trkpt><trkpt lat="55.8037493" lon="49.1482549"><time>2025-03-23T09:55:14.407</time></trkpt><trkpt lat="55.8037880" lon="49.1483752"><time>2025-03-23T09:55:16.410</time></trkpt><trkpt lat="55.8038234" lon="49.1484851"><time>2025-03-23T09:55:18.413</time></trkpt><trkpt lat="55.8038593" lon="49.1485901"><time>2025-03-23T09:55:20.413</time></trkpt><trkpt lat="55.8038910" lon="49.1486929"><time>2025-03-23T09:55:22.413</time></trkpt><trkpt lat="55.8039115" lon="49.1487761"><time>2025-03-23T09:55:24.470</time></trkpt><trkpt lat="55.8039454" lon="49.1488736"><time>2025-03-23T09:55:27.470</time></trkpt><trkpt lat="55.8039710" lon="49.1489653"><time>2025-03-23T09:55:29.467</time></trkpt><trkpt lat="55.8040002" lon="49.1490510"><time>2025-03-23T09:55:31.410</time></trkpt><trkpt lat="55.8040290" lon="49.1491320"><time>2025-03-23T09:55:33.470</time></trkpt><trkpt lat="55.8040772" lon="49.1492621"><time>2025-03-23T09:55:35.417</time></trkpt><trkpt lat="55.8041135" lon="49.1493752"><time>2025-03-23T09:55:37.473</time></trkpt><trkpt lat="55.8041481" lon="49.1494924"><time>2025-03-23T09:55:39.473</time></trkpt><trkpt lat="55.8041911" lon="49.1496121"><time>2025-03-23T09:55:41.413</time></trkpt><trkpt lat="55.8042314" lon="49.1497265"><time>2025-03-23T09:55:43.417</time></trkpt><trkpt lat="55.8042620" lon="49.1498116"><time>2025-03-23T09:55:45.417</time></trkpt><trkpt lat="55.8042884" lon="49.1499034"><time>2025-03-23T09:55:47.470</time></trkpt><trkpt lat="55.8043002" lon="49.1499804"><time>2025-03-23T09:55:49.467</time></trkpt><trkpt lat="55.8043178" lon="49.1500586"><time>2025-03-23T09:55:51.413</time></trkpt><trkpt lat="55.8043423" lon="49.1501411"><time>2025-03-23T09:55:53.473</time></trkpt><trkpt lat="55.8043681" lon="49.1502297"><time>2025-03-23T09:55:55.413</time></trkpt><trkpt lat="55.8043883" lon="49.1503106"><time>2025-03-23T09:55:57.467</time></trkpt><trkpt lat="55.8044113" lon="49.1503849"><time>2025-03-23T09:55:59.470</time></trkpt><trkpt lat="55.8044401" lon="49.1504677"><time>2025-03-23T09:56:01.413</time></trkpt><trkpt lat="55.8044561" lon="49.1505829"><time>2025-03-23T09:56:04.477</time></trkpt><trkpt lat="55.8044534" lon="49.1506875"><time>2025-03-23T09:56:06.410</time></trkpt><trkpt lat="55.8044651" lon="49.1507887"><time>2025-03-23T09:56:08.473</time></trkpt><trkpt lat="55.8044754" lon="49.1508804"><time>2025-03-23T09:56:10.417</time></trkpt><trkpt lat="55.8045002" lon="49.1509903"><time>2025-03-23T09:56:12.477</time></trkpt><trkpt lat="55.8045210" lon="49.1510939"><time>2025-03-23T09:56:14.480</time></trkpt><trkpt lat="55.8045208" lon="49.1511812"><time>2025-03-23T09:56:16.417</time></trkpt><trkpt lat="55.8045514" lon="49.1512737"><time>2025-03-23T09:56:18.420</time></trkpt><trkpt lat="55.8045932" lon="49.1513192"><time>2025-03-23T09:56:20.413</time></trkpt><trkpt lat="55.8046300" lon="49.1513761"><time>2025-03-23T09:56:22.470</time></trkpt><trkpt lat="55.8046615" lon="49.1514596"><time>2025-03-23T09:56:24.470</time></trkpt><trkpt lat="55.8046881" lon="49.1515332"><time>2025-03-23T09:56:26.417</time></trkpt><trkpt lat="55.8047282" lon="49.1515879"><time>2025-03-23T09:56:28.467</time></trkpt><trkpt lat="55.8047945" lon="49.1516501"><time>2025-03-23T09:56:30.423</time></trkpt><trkpt lat="55.8048554" lon="49.1516999"><time>2025-03-23T09:56:33.467</time></trkpt><trkpt lat="55.8048896" lon="49.1517599"><time>2025-03-23T09:56:35.417</time></trkpt><trkpt lat="55.8049170" lon="49.1518425"><time>2025-03-23T09:56:38.477</time></trkpt><trkpt lat="55.8049160" lon="49.1519307"><time>2025-03-23T09:56:41.417</time></trkpt><trkpt lat="55.8048976" lon="49.1520113"><time>2025-03-23T09:56:44.477</time></trkpt><trkpt lat="55.8048684" lon="49.1520728"><time>2025-03-23T09:56:47.473</time></trkpt><trkpt lat="55.8048313" lon="49.1521235"><time>2025-03-23T09:56:50.417</time></trkpt><trkpt lat="55.8047957" lon="49.1521996"><time>2025-03-23T09:57:03.483</time></trkpt><trkpt lat="55.8047805" lon="49.1522907"><time>2025-03-23T09:57:07.487</time></trkpt><trkpt lat="55.8047693" lon="49.1523836"><time>2025-03-23T09:57:11.470</time></trkpt><trkpt lat="55.8047625" lon="49.1524773"><time>2025-03-23T09:57:15.417</time></trkpt><trkpt lat="55.8047372" lon="49.1525586"><time>2025-03-23T09:57:19.477</time></trkpt><trkpt lat="55.8047270" lon="49.1526640"><time>2025-03-23T09:57:23.473</time></trkpt><trkpt lat="55.8047247" lon="49.1527446"><time>2025-03-23T09:57:26.413</time></trkpt><trkpt lat="55.8046990" lon="49.1528227"><time>2025-03-23T09:57:30.420</time></trkpt><trkpt lat="55.8046906" lon="49.1529112"><time>2025-03-23T09:57:34.470</time></trkpt><trkpt lat="55.8047318" lon="49.1529709"><time>2025-03-23T09:57:37.473</time></trkpt><trkpt lat="55.8047380" lon="49.1530718"><time>2025-03-23T09:57:41.417</time></trkpt><trkpt lat="55.8047827" lon="49.1531069"><time>2025-03-23T09:57:45.447</time></trkpt><trkpt lat="55.8048199" lon="49.1531572"><time>2025-03-23T09:57:49.410</time></trkpt><trkpt lat="55.8048530" lon="49.1532309"><time>2025-03-23T09:57:54.470</time></trkpt><trkpt lat="55.8048936" lon="49.1532679"><time>2025-03-23T09:57:59.490</time></trkpt><trkpt lat="55.8049401" lon="49.1532980"><time>2025-03-23T09:58:05.420</time></trkpt><trkpt lat="55.8049357" lon="49.1533864"><time>2025-03-23T09:58:10.413</time></trkpt><trkpt lat="55.8049338" lon="49.1534716"><time>2025-03-23T09:58:15.410</time></trkpt><trkpt lat="55.8049279" lon="49.1535390"><time>2025-03-23T09:58:24.513</time></trkpt><trkpt lat="55.8049311" lon="49.1535531"><time>2025-03-23T09:58:50.410</time></trkpt><trkpt lat="55.8049364" lon="49.1536456"><time>2025-03-23T09:58:55.420</time></trkpt><trkpt lat="55.8049276" lon="49.1537417"><time>2025-03-23T09:59:00.413</time></trkpt><trkpt lat="55.8049074" lon="49.1538321"><time>2025-03-23T09:59:05.417</time></trkpt><trkpt lat="55.8048934" lon="49.1539203"><time>2025-03-23T09:59:09.420</time></trkpt><trkpt lat="55.8048590" lon="49.1539860"><time>2025-03-23T09:59:11.470</time></trkpt><trkpt lat="55.8048144" lon="49.1540148"><time>2025-03-23T09:59:13.473</time></trkpt><trkpt lat="55.8047703" lon="49.1539885"><time>2025-03-23T09:59:15.417</time></trkpt><trkpt lat="55.8047383" lon="49.1539129"><time>2025-03-23T09:59:17.473</time></trkpt><trkpt lat="55.8047262" lon="49.1538240"><time>2025-03-23T09:59:19.470</time></trkpt><trkpt lat="55.8046865" lon="49.1537846"><time>2025-03-23T09:59:22.473</time></trkpt><trkpt lat="55.8046183" lon="49.1537787"><time>2025-03-23T09:59:25.413</time></trkpt><trkpt lat="55.8045765" lon="49.1537369"><time>2025-03-23T09:59:27.417</time></trkpt><trkpt lat="55.8045419" lon="49.1536629"><time>2025-03-23T09:59:29.470</time></trkpt><trkpt lat="55.8045081" lon="49.1535842"><time>2025-03-23T09:59:31.410</time></trkpt><trkpt lat="55.8044736" lon="49.1535038"><time>2025-03-23T09:59:33.467</time></trkpt><trkpt lat="55.8044412" lon="49.1534062"><time>2025-03-23T09:59:35.420</time></trkpt><trkpt lat="55.8043898" lon="49.1533173"><time>2025-03-23T09:59:37.477</time></trkpt><trkpt lat="55.8043392" lon="49.1532428"><time>2025-03-23T09:59:39.477</time></trkpt><trkpt lat="55.8042982" lon="49.1531885"><time>2025-03-23T09:59:41.423</time></trkpt><trkpt lat="55.8042574" lon="49.1531260"><time>2025-03-23T09:59:47.460</time></trkpt><trkpt lat="55.8042305" lon="49.1530282"><time>2025-03-23T09:59:50.410</time></trkpt><trkpt lat="55.8042015" lon="49.1529663"><time>2025-03-23T09:59:52.477</time></trkpt><trkpt lat="55.8041483" lon="49.1529241"><time>2025-03-23T09:59:55.413</time></trkpt><trkpt lat="55.8040945" lon="49.1529265"><time>2025-03-23T09:59:59.467</time></trkpt><trkpt lat="55.8040433" lon="49.1529438"><time>2025-03-23T10:00:03.410</time></trkpt><trkpt lat="55.8040021" lon="49.1529991"><time>2025-03-23T10:00:07.437</time></trkpt><trkpt lat="55.8039588" lon="49.1530538"><time>2025-03-23T10:00:11.413</time></trkpt><trkpt lat="55.8039195" lon="49.1531024"><time>2025-03-23T10:00:13.467</time></trkpt><trkpt lat="55.8038835" lon="49.1531724"><time>2025-03-23T10:00:15.413</time></trkpt><trkpt lat="55.8038449" lon="49.1532361"><time>2025-03-23T10:00:17.410</time></trkpt><trkpt lat="55.8038033" lon="49.1533046"><time>2025-03-23T10:00:19.477</time></trkpt><trkpt lat="55.8037643" lon="49.1533758"><time>2025-03-23T10:00:21.413</time></trkpt><trkpt lat="55.8037243" lon="49.1534453"><time>2025-03-23T10:00:23.473</time></trkpt><trkpt lat="55.8036840" lon="49.1535237"><time>2025-03-23T10:00:25.413</time></trkpt><trkpt lat="55.8036409" lon="49.1536070"><time>2025-03-23T10:00:27.473</time></trkpt><trkpt lat="55.8035889" lon="49.1536882"><time>2025-03-23T10:00:29.473</time></trkpt><trkpt lat="55.8035273" lon="49.1537606"><time>2025-03-23T10:00:31.417</time></trkpt><trkpt lat="55.8034962" lon="49.1538260"><time>2025-03-23T10:00:33.470</time></trkpt><trkpt lat="55.8034664" lon="49.1538996"><time>2025-03-23T10:00:35.417</time></trkpt><trkpt lat="55.8034370" lon="49.1539788"><time>2025-03-23T10:00:37.423</time></trkpt><trkpt lat="55.8033890" lon="49.1540585"><time>2025-03-23T10:00:40.420</time></trkpt><trkpt lat="55.8033468" lon="49.1541300"><time>2025-03-23T10:00:42.417</time></trkpt><trkpt lat="55.8033066" lon="49.1542009"><time>2025-03-23T10:00:44.477</time></trkpt><trkpt lat="55.8032681" lon="49.1542710"><time>2025-03-23T10:00:46.413</time></trkpt><trkpt lat="55.8032240" lon="49.1543290"><time>2025-03-23T10:00:48.417</time></trkpt><trkpt lat="55.8031929" lon="49.1543932"><time>2025-03-23T10:00:50.413</time></trkpt><trkpt lat="55.8031648" lon="49.1544659"><time>2025-03-23T10:00:52.467</time></trkpt><trkpt lat="55.8031238" lon="49.1545507"><time>2025-03-23T10:00:54.470</time></trkpt><trkpt lat="55.8030869" lon="49.1546431"><time>2025-03-23T10:00:56.417</time></trkpt><trkpt lat="55.8030504" lon="49.1547353"><time>2025-03-23T10:00:58.467</time></trkpt><trkpt lat="55.8030238" lon="49.1547997"><time>2025-03-23T10:01:00.417</time></trkpt><trkpt lat="55.8029815" lon="49.1548525"><time>2025-03-23T10:01:02.410</time></trkpt><trkpt lat="55.8029249" lon="49.1548995"><time>2025-03-23T10:01:04.417</time></trkpt><trkpt lat="55.8028766" lon="49.1549548"><time>2025-03-23T10:01:06.407</time></trkpt><trkpt lat="55.8028445" lon="49.1550157"><time>2025-03-23T10:01:08.417</time></trkpt><trkpt lat="55.8028195" lon="49.1551082"><time>2025-03-23T10:01:10.417</time></trkpt><trkpt lat="55.8027957" lon="49.1552112"><time>2025-03-23T10:01:12.417</time></trkpt><trkpt lat="55.8027555" lon="49.1553164"><time>2025-03-23T10:01:14.413</time></trkpt><trkpt lat="55.8027159" lon="49.1553986"><time>2025-03-23T10:01:16.410</time></trkpt><trkpt lat="55.8026855" lon="49.1554627"><time>2025-03-23T10:01:18.477</time></trkpt><trkpt lat="55.8026438" lon="49.1555467"><time>2025-03-23T10:01:21.477</time></trkpt><trkpt lat="55.8026136" lon="49.1556305"><time>2025-03-23T10:01:24.473</time></trkpt><trkpt lat="55.8025747" lon="49.1557020"><time>2025-03-23T10:01:29.477</time></trkpt><trkpt lat="55.8025456" lon="49.1557660"><time>2025-03-23T10:01:32.417</time></trkpt><trkpt lat="55.8025101" lon="49.1558586"><time>2025-03-23T10:01:36.423</time></trkpt><trkpt lat="55.8025214" lon="49.1559369"><time>2025-03-23T10:01:38.477</time></trkpt><trkpt lat="55.8025229" lon="49.1560215"><time>2025-03-23T10:01:41.417</time></trkpt><trkpt lat="55.8024969" lon="49.1561089"><time>2025-03-23T10:01:45.420</time></trkpt><trkpt lat="55.8024561" lon="49.1561870"><time>2025-03-23T10:01:49.417</time></trkpt><trkpt lat="55.8024268" lon="49.1562551"><time>2025-03-23T10:01:52.413</time></trkpt><trkpt lat="55.8024059" lon="49.1563432"><time>2025-03-23T10:01:55.410</time></trkpt><trkpt lat="55.8023989" lon="49.1564393"><time>2025-03-23T10:01:59.417</time></trkpt><trkpt lat="55.8023925" lon="49.1565280"><time>2025-03-23T10:02:02.410</time></trkpt><trkpt lat="55.8023909" lon="49.1566245"><time>2025-03-23T10:02:05.417</time></trkpt><trkpt lat="55.8023874" lon="49.1567054"><time>2025-03-23T10:02:07.477</time></trkpt><trkpt lat="55.8023728" lon="49.1568290"><time>2025-03-23T10:02:10.417</time></trkpt><trkpt lat="55.8023728" lon="49.1569223"><time>2025-03-23T10:02:12.487</time></trkpt><trkpt lat="55.8023873" lon="49.1570216"><time>2025-03-23T10:02:14.417</time></trkpt><trkpt lat="55.8024014" lon="49.1571322"><time>2025-03-23T10:02:16.413</time></trkpt><trkpt lat="55.8024122" lon="49.1572251"><time>2025-03-23T10:02:19.480</time></trkpt><trkpt lat="55.8024222" lon="49.1573242"><time>2025-03-23T10:02:21.417</time></trkpt><trkpt lat="55.8024208" lon="49.1574547"><time>2025-03-23T10:02:23.473</time></trkpt><trkpt lat="55.8024123" lon="49.1575395"><time>2025-03-23T10:02:25.417</time></trkpt><trkpt lat="55.8024119" lon="49.1576224"><time>2025-03-23T10:02:27.470</time></trkpt><trkpt lat="55.8024055" lon="49.1577263"><time>2025-03-23T10:02:30.417</time></trkpt><trkpt lat="55.8023898" lon="49.1578234"><time>2025-03-23T10:02:33.420</time></trkpt><trkpt lat="55.8023679" lon="49.1579109"><time>2025-03-23T10:02:36.410</time></trkpt><trkpt lat="55.8023594" lon="49.1580079"><time>2025-03-23T10:02:42.470</time></trkpt><trkpt lat="55.8023558" lon="49.1581103"><time>2025-03-23T10:02:46.477</time></trkpt><trkpt lat="55.8023601" lon="49.1581986"><time>2025-03-23T10:02:50.413</time></trkpt><trkpt lat="55.8023386" lon="49.1582777"><time>2025-03-23T10:02:54.477</time></trkpt><trkpt lat="55.8023318" lon="49.1583613"><time>2025-03-23T10:02:58.480</time></trkpt><trkpt lat="55.8023304" lon="49.1584430"><time>2025-03-23T10:03:01.420</time></trkpt><trkpt lat="55.8023439" lon="49.1585417"><time>2025-03-23T10:03:05.417</time></trkpt><trkpt lat="55.8023660" lon="49.1586185"><time>2025-03-23T10:03:08.477</time></trkpt><trkpt lat="55.8023941" lon="49.1586968"><time>2025-03-23T10:03:11.413</time></trkpt><trkpt lat="55.8024214" lon="49.1587704"><time>2025-03-23T10:03:13.413</time></trkpt><trkpt lat="55.8024490" lon="49.1588494"><time>2025-03-23T10:03:15.413</time></trkpt><trkpt lat="55.8024870" lon="49.1589296"><time>2025-03-23T10:03:17.413</time></trkpt><trkpt lat="55.8025221" lon="49.1590187"><time>2025-03-23T10:03:19.417</time></trkpt><trkpt lat="55.8025447" lon="49.1591203"><time>2025-03-23T10:03:21.420</time></trkpt><trkpt lat="55.8025672" lon="49.1592420"><time>2025-03-23T10:03:23.483</time></trkpt><trkpt lat="55.8025722" lon="49.1593397"><time>2025-03-23T10:03:25.413</time></trkpt><trkpt lat="55.8025782" lon="49.1594320"><time>2025-03-23T10:03:27.467</time></trkpt><trkpt lat="55.8025862" lon="49.1595107"><time>2025-03-23T10:03:29.467</time></trkpt><trkpt lat="55.8026038" lon="49.1595928"><time>2025-03-23T10:03:31.420</time></trkpt><trkpt lat="55.8026227" lon="49.1596731"><time>2025-03-23T10:03:33.467</time></trkpt><trkpt lat="55.8026525" lon="49.1597592"><time>2025-03-23T10:03:36.420</time></trkpt><trkpt lat="55.8026890" lon="49.1598072"><time>2025-03-23T10:03:39.413</time></trkpt><trkpt lat="55.8027294" lon="49.1598576"><time>2025-03-23T10:03:42.417</time></trkpt><trkpt lat="55.8027737" lon="49.1599061"><time>2025-03-23T10:03:46.417</time></trkpt><trkpt lat="55.8028067" lon="49.1599622"><time>2025-03-23T10:03:50.417</time></trkpt><trkpt lat="55.8028376" lon="49.1600315"><time>2025-03-23T10:03:54.483</time></trkpt><trkpt lat="55.8028546" lon="49.1601183"><time>2025-03-23T10:03:58.477</time></trkpt><trkpt lat="55.8028761" lon="49.1601982"><time>2025-03-23T10:04:01.413</time></trkpt><trkpt lat="55.8029064" lon="49.1602854"><time>2025-03-23T10:04:04.457</time></trkpt><trkpt lat="55.8029324" lon="49.1603507"><time>2025-03-23T10:04:07.443</time></trkpt><trkpt lat="55.8029612" lon="49.1604466"><time>2025-03-23T10:04:11.493</time></trkpt><trkpt lat="55.8029899" lon="49.1605331"><time>2025-03-23T10:04:15.420</time></trkpt><trkpt lat="55.8030215" lon="49.1606216"><time>2025-03-23T10:04:19.477</time></trkpt><trkpt lat="55.8030561" lon="49.1607052"><time>2025-03-23T10:04:23.487</time></trkpt><trkpt lat="55.8030943" lon="49.1607705"><time>2025-03-23T10:04:27.467</time></trkpt><trkpt lat="55.8031262" lon="49.1608603"><time>2025-03-23T10:04:31.410</time></trkpt><trkpt lat="55.8031376" lon="49.1609501"><time>2025-03-23T10:04:35.417</time></trkpt><trkpt lat="55.8031504" lon="49.1610333"><time>2025-03-23T10:04:39.413</time></trkpt><trkpt lat="55.8031705" lon="49.1611219"><time>2025-03-23T10:04:43.417</time></trkpt><trkpt lat="55.8032046" lon="49.1612006"><time>2025-03-23T10:04:47.410</time></trkpt><trkpt lat="55.8032568" lon="49.1612470"><time>2025-03-23T10:04:51.407</time></trkpt><trkpt lat="55.8033059" lon="49.1612321"><time>2025-03-23T10:04:55.413</time></trkpt><trkpt lat="55.8033426" lon="49.1611597"><time>2025-03-23T10:04:59.413</time></trkpt><trkpt lat="55.8033476" lon="49.1610728"><time>2025-03-23T10:05:02.410</time></trkpt><trkpt lat="55.8033468" lon="49.1609767"><time>2025-03-23T10:05:06.413</time></trkpt><trkpt lat="55.8033683" lon="49.1608869"><time>2025-03-23T10:05:15.413</time></trkpt><trkpt lat="55.8034107" lon="49.1608257"><time>2025-03-23T10:05:20.413</time></trkpt><trkpt lat="55.8034367" lon="49.1607601"><time>2025-03-23T10:05:26.413</time></trkpt><trkpt lat="55.8033912" lon="49.1607702"><time>2025-03-23T10:05:44.407</time></trkpt><trkpt lat="55.8033412" lon="49.1607764"><time>2025-03-23T10:05:48.413</time></trkpt><trkpt lat="55.8033247" lon="49.1608636"><time>2025-03-23T10:05:52.407</time></trkpt><trkpt lat="55.8033296" lon="49.1608922"><time>2025-03-23T10:05:53.613</time></trkpt><trkpt lat="55.8033073" lon="49.1609570"><time>2025-03-23T10:06:02.417</time></trkpt><trkpt lat="55.8032777" lon="49.1610361"><time>2025-03-23T10:06:07.407</time></trkpt><trkpt lat="55.8032460" lon="49.1610999"><time>2025-03-23T10:06:14.413</time></trkpt><trkpt lat="55.8032086" lon="49.1611605"><time>2025-03-23T10:06:28.417</time></trkpt><trkpt lat="55.8031881" lon="49.1612335"><time>2025-03-23T10:06:53.483</time></trkpt><trkpt lat="55.8031431" lon="49.1612237"><time>2025-03-23T10:06:57.477</time></trkpt><trkpt lat="55.8030756" lon="49.1612123"><time>2025-03-23T10:07:00.413</time></trkpt><trkpt lat="55.8030175" lon="49.1612291"><time>2025-03-23T10:07:02.477</time></trkpt><trkpt lat="55.8029637" lon="49.1612347"><time>2025-03-23T10:07:05.417</time></trkpt><trkpt lat="55.8028998" lon="49.1612716"><time>2025-03-23T10:07:07.473</time></trkpt><trkpt lat="55.8028606" lon="49.1613188"><time>2025-03-23T10:07:09.423</time></trkpt><trkpt lat="55.8028122" lon="49.1613698"><time>2025-03-23T10:07:12.413</time></trkpt><trkpt lat="55.8027504" lon="49.1614124"><time>2025-03-23T10:07:15.407</time></trkpt><trkpt lat="55.8027080" lon="49.1614517"><time>2025-03-23T10:07:17.407</time></trkpt><trkpt lat="55.8026540" lon="49.1614863"><time>2025-03-23T10:07:20.410</time></trkpt><trkpt lat="55.8026113" lon="49.1614344"><time>2025-03-23T10:07:24.410</time></trkpt><trkpt lat="55.8025702" lon="49.1613555"><time>2025-03-23T10:07:27.413</time></trkpt><trkpt lat="55.8025034" lon="49.1612421"><time>2025-03-23T10:07:29.490</time></trkpt><trkpt lat="55.8024663" lon="49.1611909"><time>2025-03-23T10:07:30.413</time></trkpt><trkpt lat="55.8024104" lon="49.1611059"><time>2025-03-23T10:07:31.417</time></trkpt><trkpt lat="55.8023331" lon="49.1610028"><time>2025-03-23T10:07:32.410</time></trkpt><trkpt lat="55.8022503" lon="49.1608971"><time>2025-03-23T10:07:33.403</time></trkpt><trkpt lat="55.8021826" lon="49.1608061"><time>2025-03-23T10:07:34.430</time></trkpt><trkpt lat="55.8021921" lon="49.1607002"><time>2025-03-23T10:07:45.413</time></trkpt><trkpt lat="55.8022007" lon="49.1606027"><time>2025-03-23T10:07:48.470</time></trkpt><trkpt lat="55.8021941" lon="49.1605023"><time>2025-03-23T10:07:50.420</time></trkpt><trkpt lat="55.8021851" lon="49.1603786"><time>2025-03-23T10:07:52.467</time></trkpt><trkpt lat="55.8021802" lon="49.1602576"><time>2025-03-23T10:07:54.470</time></trkpt><trkpt lat="55.8021640" lon="49.1601406"><time>2025-03-23T10:07:56.427</time></trkpt><trkpt lat="55.8021620" lon="49.1600334"><time>2025-03-23T10:07:59.473</time></trkpt><trkpt lat="55.8021600" lon="49.1599322"><time>2025-03-23T10:08:01.413</time></trkpt><trkpt lat="55.8021483" lon="49.1598352"><time>2025-03-23T10:08:03.420</time></trkpt><trkpt lat="55.8021242" lon="49.1597589"><time>2025-03-23T10:08:07.480</time></trkpt><trkpt lat="55.8020708" lon="49.1597874"><time>2025-03-23T10:08:12.477</time></trkpt><trkpt lat="55.8020124" lon="49.1597997"><time>2025-03-23T10:08:15.420</time></trkpt><trkpt lat="55.8019624" lon="49.1598325"><time>2025-03-23T10:08:18.470</time></trkpt><trkpt lat="55.8019190" lon="49.1598619"><time>2025-03-23T10:08:21.417</time></trkpt><trkpt lat="55.8018653" lon="49.1598744"><time>2025-03-23T10:08:24.470</time></trkpt><trkpt lat="55.8018189" lon="49.1598714"><time>2025-03-23T10:08:27.477</time></trkpt><trkpt lat="55.8017607" lon="49.1598732"><time>2025-03-23T10:08:30.417</time></trkpt><trkpt lat="55.8017009" lon="49.1598418"><time>2025-03-23T10:08:33.470</time></trkpt><trkpt lat="55.8016461" lon="49.1598316"><time>2025-03-23T10:08:36.420</time></trkpt><trkpt lat="55.8015911" lon="49.1598454"><time>2025-03-23T10:08:39.417</time></trkpt><trkpt lat="55.8015384" lon="49.1598454"><time>2025-03-23T10:08:41.417</time></trkpt><trkpt lat="55.8014850" lon="49.1598427"><time>2025-03-23T10:08:43.477</time></trkpt><trkpt lat="55.8014244" lon="49.1598366"><time>2025-03-23T10:08:46.417</time></trkpt><trkpt lat="55.8013742" lon="49.1598389"><time>2025-03-23T10:08:48.480</time></trkpt><trkpt lat="55.8013229" lon="49.1598109"><time>2025-03-23T10:08:51.417</time></trkpt><trkpt lat="55.8012732" lon="49.1597846"><time>2025-03-23T10:08:55.413</time></trkpt><trkpt lat="55.8012216" lon="49.1597905"><time>2025-03-23T10:08:59.417</time></trkpt><trkpt lat="55.8011708" lon="49.1598043"><time>2025-03-23T10:09:03.487</time></trkpt><trkpt lat="55.8011202" lon="49.1598272"><time>2025-03-23T10:09:06.417</time></trkpt><trkpt lat="55.8010721" lon="49.1598232"><time>2025-03-23T10:09:09.427</time></trkpt><trkpt lat="55.8010324" lon="49.1597589"><time>2025-03-23T10:09:14.477</time></trkpt><trkpt lat="55.8009754" lon="49.1597250"><time>2025-03-23T10:09:18.477</time></trkpt><trkpt lat="55.8009184" lon="49.1597149"><time>2025-03-23T10:09:22.420</time></trkpt><trkpt lat="55.8008717" lon="49.1597293"><time>2025-03-23T10:09:25.417</time></trkpt><trkpt lat="55.8008332" lon="49.1597822"><time>2025-03-23T10:09:28.470</time></trkpt><trkpt lat="55.8007910" lon="49.1598219"><time>2025-03-23T10:09:32.477</time></trkpt><trkpt lat="55.8007332" lon="49.1598470"><time>2025-03-23T10:09:36.417</time></trkpt><trkpt lat="55.8006731" lon="49.1598459"><time>2025-03-23T10:09:39.420</time></trkpt><trkpt lat="55.8006327" lon="49.1598082"><time>2025-03-23T10:09:43.450</time></trkpt><trkpt lat="55.8006046" lon="49.1597357"><time>2025-03-23T10:09:49.413</time></trkpt><trkpt lat="55.8005791" lon="49.1596594"><time>2025-03-23T10:09:53.410</time></trkpt><trkpt lat="55.8005551" lon="49.1595853"><time>2025-03-23T10:09:57.417</time></trkpt><trkpt lat="55.8005113" lon="49.1595610"><time>2025-03-23T10:10:00.413</time></trkpt><trkpt lat="55.8004547" lon="49.1595709"><time>2025-03-23T10:10:04.413</time></trkpt><trkpt lat="55.8004039" lon="49.1595834"><time>2025-03-23T10:10:08.410</time></trkpt><trkpt lat="55.8003480" lon="49.1595578"><time>2025-03-23T10:10:12.410</time></trkpt><trkpt lat="55.8003003" lon="49.1595976"><time>2025-03-23T10:10:16.417</time></trkpt><trkpt lat="55.8002591" lon="49.1596550"><time>2025-03-23T10:10:19.413</time></trkpt><trkpt lat="55.8002161" lon="49.1597202"><time>2025-03-23T10:10:22.413</time></trkpt><trkpt lat="55.8001868" lon="49.1597962"><time>2025-03-23T10:10:26.410</time></trkpt><trkpt lat="55.8001414" lon="49.1598462"><time>2025-03-23T10:10:29.417</time></trkpt><trkpt lat="55.8000623" lon="49.1599419"><time>2025-03-23T10:10:31.417</time></trkpt><trkpt lat="55.8000331" lon="49.1600121"><time>2025-03-23T10:10:32.417</time></trkpt><trkpt lat="55.8000014" lon="49.1600921"><time>2025-03-23T10:10:34.413</time></trkpt><trkpt lat="55.7999631" lon="49.1601768"><time>2025-03-23T10:10:36.407</time></trkpt><trkpt lat="55.7999541" lon="49.1602582"><time>2025-03-23T10:10:38.410</time></trkpt><trkpt lat="55.7999533" lon="49.1603668"><time>2025-03-23T10:10:41.417</time></trkpt><trkpt lat="55.7999344" lon="49.1604462"><time>2025-03-23T10:10:44.413</time></trkpt><trkpt lat="55.7999095" lon="49.1605165"><time>2025-03-23T10:10:47.413</time></trkpt><trkpt lat="55.7998701" lon="49.1605705"><time>2025-03-23T10:10:50.413</time></trkpt><trkpt lat="55.7998361" lon="49.1606451"><time>2025-03-23T10:10:55.423</time></trkpt><trkpt lat="55.7998061" lon="49.1607486"><time>2025-03-23T10:10:58.423</time></trkpt><trkpt lat="55.7998094" lon="49.1608384"><time>2025-03-23T10:11:00.430</time></trkpt><trkpt lat="55.7998099" lon="49.1609239"><time>2025-03-23T10:11:02.427</time></trkpt><trkpt lat="55.7998003" lon="49.1610080"><time>2025-03-23T10:11:04.420</time></trkpt><trkpt lat="55.7997974" lon="49.1610955"><time>2025-03-23T10:11:06.420</time></trkpt><trkpt lat="55.7997949" lon="49.1611812"><time>2025-03-23T10:11:08.420</time></trkpt><trkpt lat="55.7997968" lon="49.1612801"><time>2025-03-23T10:11:10.420</time></trkpt><trkpt lat="55.7997890" lon="49.1613732"><time>2025-03-23T10:11:13.423</time></trkpt><trkpt lat="55.7997919" lon="49.1614528"><time>2025-03-23T10:11:27.427</time></trkpt><trkpt lat="55.7998097" lon="49.1615386"><time>2025-03-23T10:11:32.420</time></trkpt><trkpt lat="55.7998469" lon="49.1615864"><time>2025-03-23T10:11:36.417</time></trkpt><trkpt lat="55.7998752" lon="49.1616773"><time>2025-03-23T10:11:39.427</time></trkpt><trkpt lat="55.7999115" lon="49.1617697"><time>2025-03-23T10:11:42.423</time></trkpt><trkpt lat="55.7999650" lon="49.1618353"><time>2025-03-23T10:11:45.417</time></trkpt><trkpt lat="55.8000321" lon="49.1619265"><time>2025-03-23T10:11:47.423</time></trkpt><trkpt lat="55.8000935" lon="49.1620316"><time>2025-03-23T10:11:49.417</time></trkpt><trkpt lat="55.8001419" lon="49.1621138"><time>2025-03-23T10:11:51.427</time></trkpt><trkpt lat="55.8001805" lon="49.1621691"><time>2025-03-23T10:11:53.423</time></trkpt><trkpt lat="55.8002194" lon="49.1622355"><time>2025-03-23T10:11:55.423</time></trkpt><trkpt lat="55.8002370" lon="49.1623144"><time>2025-03-23T10:11:57.423</time></trkpt><trkpt lat="55.8002603" lon="49.1623953"><time>2025-03-23T10:12:00.427</time></trkpt><trkpt lat="55.8002989" lon="49.1624614"><time>2025-03-23T10:12:02.423</time></trkpt><trkpt lat="55.8003389" lon="49.1625163"><time>2025-03-23T10:12:04.420</time></trkpt><trkpt lat="55.8004016" lon="49.1625406"><time>2025-03-23T10:12:07.423</time></trkpt><trkpt lat="55.8004530" lon="49.1625441"><time>2025-03-23T10:12:09.423</time></trkpt><trkpt lat="55.8005156" lon="49.1625331"><time>2025-03-23T10:12:11.420</time></trkpt><trkpt lat="55.8005773" lon="49.1625546"><time>2025-03-23T10:12:13.423</time></trkpt><trkpt lat="55.8006223" lon="49.1625867"><time>2025-03-23T10:12:15.423</time></trkpt><trkpt lat="55.8006796" lon="49.1626370"><time>2025-03-23T10:12:17.413</time></trkpt><trkpt lat="55.8007208" lon="49.1626759"><time>2025-03-23T10:12:19.427</time></trkpt><trkpt lat="55.8007512" lon="49.1627516"><time>2025-03-23T10:12:21.427</time></trkpt><trkpt lat="55.8007878" lon="49.1628393"><time>2025-03-23T10:12:24.423</time></trkpt><trkpt lat="55.8008455" lon="49.1628870"><time>2025-03-23T10:12:27.423</time></trkpt><trkpt lat="55.8008940" lon="49.1629205"><time>2025-03-23T10:12:29.427</time></trkpt><trkpt lat="55.8009380" lon="49.1629446"><time>2025-03-23T10:12:32.433</time></trkpt><trkpt lat="55.8009925" lon="49.1629745"><time>2025-03-23T10:12:44.420</time></trkpt><trkpt lat="55.8010541" lon="49.1629717"><time>2025-03-23T10:12:47.423</time></trkpt><trkpt lat="55.8011190" lon="49.1629657"><time>2025-03-23T10:12:50.423</time></trkpt><trkpt lat="55.8011688" lon="49.1629668"><time>2025-03-23T10:12:52.423</time></trkpt><trkpt lat="55.8012164" lon="49.1629698"><time>2025-03-23T10:12:54.417</time></trkpt><trkpt lat="55.8012634" lon="49.1629868"><time>2025-03-23T10:12:56.423</time></trkpt><trkpt lat="55.8013254" lon="49.1630409"><time>2025-03-23T10:12:59.427</time></trkpt><trkpt lat="55.8013791" lon="49.1630871"><time>2025-03-23T10:13:02.417</time></trkpt><trkpt lat="55.8014263" lon="49.1631294"><time>2025-03-23T10:13:05.420</time></trkpt><trkpt lat="55.8014687" lon="49.1631664"><time>2025-03-23T10:13:07.423</time></trkpt><trkpt lat="55.8015244" lon="49.1632195"><time>2025-03-23T10:13:09.427</time></trkpt><trkpt lat="55.8015800" lon="49.1632600"><time>2025-03-23T10:13:11.427</time></trkpt><trkpt lat="55.8016351" lon="49.1632951"><time>2025-03-23T10:13:13.420</time></trkpt><trkpt lat="55.8016781" lon="49.1633247"><time>2025-03-23T10:13:15.413</time></trkpt><trkpt lat="55.8017277" lon="49.1633485"><time>2025-03-23T10:13:17.420</time></trkpt><trkpt lat="55.8017746" lon="49.1633709"><time>2025-03-23T10:13:19.437</time></trkpt><trkpt lat="55.8018138" lon="49.1634101"><time>2025-03-23T10:13:21.427</time></trkpt><trkpt lat="55.8018577" lon="49.1634431"><time>2025-03-23T10:13:23.427</time></trkpt><trkpt lat="55.8019169" lon="49.1634851"><time>2025-03-23T10:13:26.430</time></trkpt><trkpt lat="55.8019799" lon="49.1635252"><time>2025-03-23T10:13:29.423</time></trkpt><trkpt lat="55.8020261" lon="49.1635639"><time>2025-03-23T10:13:31.427</time></trkpt><trkpt lat="55.8020816" lon="49.1636347"><time>2025-03-23T10:13:34.427</time></trkpt><trkpt lat="55.8021292" lon="49.1636697"><time>2025-03-23T10:13:37.427</time></trkpt><trkpt lat="55.8021765" lon="49.1637116"><time>2025-03-23T10:13:41.437</time></trkpt><trkpt lat="55.8022249" lon="49.1637609"><time>2025-03-23T10:13:45.427</time></trkpt><trkpt lat="55.8022666" lon="49.1638144"><time>2025-03-23T10:13:49.417</time></trkpt><trkpt lat="55.8023155" lon="49.1638532"><time>2025-03-23T10:13:53.423</time></trkpt><trkpt lat="55.8023577" lon="49.1638803"><time>2025-03-23T10:13:57.427</time></trkpt><trkpt lat="55.8024039" lon="49.1639181"><time>2025-03-23T10:14:01.423</time></trkpt><trkpt lat="55.8024551" lon="49.1639683"><time>2025-03-23T10:14:05.423</time></trkpt><trkpt lat="55.8025041" lon="49.1640219"><time>2025-03-23T10:14:08.427</time></trkpt><trkpt lat="55.8025003" lon="49.1641059"><time>2025-03-23T10:14:10.423</time></trkpt><trkpt lat="55.8024858" lon="49.1641867"><time>2025-03-23T10:14:29.427</time></trkpt><trkpt lat="55.8024550" lon="49.1642647"><time>2025-03-23T10:14:32.420</time></trkpt><trkpt lat="55.8024669" lon="49.1643596"><time>2025-03-23T10:14:36.423</time></trkpt><trkpt lat="55.8025212" lon="49.1643956"><time>2025-03-23T10:14:40.423</time></trkpt><trkpt lat="55.8025323" lon="49.1644758"><time>2025-03-23T10:14:44.430</time></trkpt><trkpt lat="55.8025521" lon="49.1645497"><time>2025-03-23T10:14:47.433</time></trkpt><trkpt lat="55.8025723" lon="49.1646516"><time>2025-03-23T10:14:50.430</time></trkpt><trkpt lat="55.8025764" lon="49.1647369"><time>2025-03-23T10:14:53.423</time></trkpt><trkpt lat="55.8025480" lon="49.1648156"><time>2025-03-23T10:14:59.423</time></trkpt><trkpt lat="55.8025198" lon="49.1648843"><time>2025-03-23T10:15:05.423</time></trkpt><trkpt lat="55.8024775" lon="49.1649327"><time>2025-03-23T10:15:12.430</time></trkpt><trkpt lat="55.8024356" lon="49.1649727"><time>2025-03-23T10:15:17.427</time></trkpt><trkpt lat="55.8023959" lon="49.1650194"><time>2025-03-23T10:15:22.437</time></trkpt><trkpt lat="55.8023613" lon="49.1650805"><time>2025-03-23T10:15:27.430</time></trkpt><trkpt lat="55.8023230" lon="49.1651418"><time>2025-03-23T10:15:31.423</time></trkpt><trkpt lat="55.8022883" lon="49.1651937"><time>2025-03-23T10:15:33.427</time></trkpt><trkpt lat="55.8022476" lon="49.1652418"><time>2025-03-23T10:15:36.430</time></trkpt><trkpt lat="55.8022051" lon="49.1652804"><time>2025-03-23T10:15:39.417</time></trkpt><trkpt lat="55.8021673" lon="49.1653470"><time>2025-03-23T10:15:43.433</time></trkpt><trkpt lat="55.8021330" lon="49.1654159"><time>2025-03-23T10:15:47.423</time></trkpt><trkpt lat="55.8020966" lon="49.1654779"><time>2025-03-23T10:15:51.430</time></trkpt><trkpt lat="55.8020464" lon="49.1655118"><time>2025-03-23T10:15:56.483</time></trkpt><trkpt lat="55.8020026" lon="49.1654507"><time>2025-03-23T10:16:14.480</time></trkpt><trkpt lat="55.8019820" lon="49.1655466"><time>2025-03-23T10:16:23.477</time></trkpt><trkpt lat="55.8019821" lon="49.1656540"><time>2025-03-23T10:16:27.433</time></trkpt><trkpt lat="55.8019704" lon="49.1657356"><time>2025-03-23T10:16:29.470</time></trkpt><trkpt lat="55.8019389" lon="49.1658145"><time>2025-03-23T10:16:32.413</time></trkpt><trkpt lat="55.8019175" lon="49.1658978"><time>2025-03-23T10:16:35.477</time></trkpt><trkpt lat="55.8018843" lon="49.1659788"><time>2025-03-23T10:16:39.477</time></trkpt><trkpt lat="55.8018374" lon="49.1660159"><time>2025-03-23T10:16:43.423</time></trkpt><trkpt lat="55.8017864" lon="49.1660243"><time>2025-03-23T10:16:47.420</time></trkpt><trkpt lat="55.8017387" lon="49.1659921"><time>2025-03-23T10:16:52.413</time></trkpt><trkpt lat="55.8017358" lon="49.1659114"><time>2025-03-23T10:16:57.417</time></trkpt><trkpt lat="55.8017470" lon="49.1660121"><time>2025-03-23T10:17:38.413</time></trkpt><trkpt lat="55.8017395" lon="49.1661000"><time>2025-03-23T10:17:42.423</time></trkpt><trkpt lat="55.8017263" lon="49.1661869"><time>2025-03-23T10:17:46.483</time></trkpt><trkpt lat="55.8016814" lon="49.1661831"><time>2025-03-23T10:18:00.417</time></trkpt><trkpt lat="55.8016595" lon="49.1662542"><time>2025-03-23T10:18:05.413</time></trkpt><trkpt lat="55.8016161" lon="49.1662996"><time>2025-03-23T10:18:11.413</time></trkpt><trkpt lat="55.8015703" lon="49.1663319"><time>2025-03-23T10:18:17.480</time></trkpt><trkpt lat="55.8015356" lon="49.1662679"><time>2025-03-23T10:18:22.427</time></trkpt><trkpt lat="55.8015244" lon="49.1661450"><time>2025-03-23T10:18:29.420</time></trkpt><trkpt lat="55.8015551" lon="49.1660645"><time>2025-03-23T10:18:33.480</time></trkpt><trkpt lat="55.8015179" lon="49.1660162"><time>2025-03-23T10:18:48.483</time></trkpt><trkpt lat="55.8014918" lon="49.1659484"><time>2025-03-23T10:18:59.487</time></trkpt><trkpt lat="55.8014543" lon="49.1658899"><time>2025-03-23T10:19:06.420</time></trkpt><trkpt lat="55.8014043" lon="49.1659068"><time>2025-03-23T10:19:15.487</time></trkpt><trkpt lat="55.8014554" lon="49.1659239"><time>2025-03-23T10:19:24.487</time></trkpt><trkpt lat="55.8015065" lon="49.1659193"><time>2025-03-23T10:19:31.417</time></trkpt><trkpt lat="55.8015015" lon="49.1658351"><time>2025-03-23T10:19:37.420</time></trkpt><trkpt lat="55.8014998" lon="49.1657420"><time>2025-03-23T10:19:45.480</time></trkpt><trkpt lat="55.8015225" lon="49.1656693"><time>2025-03-23T10:19:48.487</time></trkpt><trkpt lat="55.8015560" lon="49.1655885"><time>2025-03-23T10:20:02.420</time></trkpt><trkpt lat="55.8016105" lon="49.1656154"><time>2025-03-23T10:20:08.477</time></trkpt><trkpt lat="55.8016633" lon="49.1656420"><time>2025-03-23T10:20:24.420</time></trkpt><trkpt lat="55.8016879" lon="49.1655646"><time>2025-03-23T10:20:30.480</time></trkpt><trkpt lat="55.8016936" lon="49.1654689"><time>2025-03-23T10:20:36.423</time></trkpt><trkpt lat="55.8017050" lon="49.1653892"><time>2025-03-23T10:20:41.420</time></trkpt><trkpt lat="55.8017512" lon="49.1653827"><time>2025-03-23T10:20:51.423</time></trkpt><trkpt lat="55.8017890" lon="49.1653216"><time>2025-03-23T10:20:58.483</time></trkpt><trkpt lat="55.8018246" lon="49.1652646"><time>2025-03-23T10:21:04.420</time></trkpt><trkpt lat="55.8018701" lon="49.1652328"><time>2025-03-23T10:21:09.413</time></trkpt><trkpt lat="55.8018033" lon="49.1651836"><time>2025-03-23T10:21:13.417</time></trkpt><trkpt lat="55.8017591" lon="49.1651602"><time>2025-03-23T10:21:48.420</time></trkpt><trkpt lat="55.8016913" lon="49.1651831"><time>2025-03-23T10:21:51.417</time></trkpt><trkpt lat="55.8017092" lon="49.1652767"><time>2025-03-23T10:21:53.417</time></trkpt><trkpt lat="55.8017593" lon="49.1652455"><time>2025-03-23T10:22:42.420</time></trkpt><trkpt lat="55.8017879" lon="49.1651724"><time>2025-03-23T10:22:44.417</time></trkpt><trkpt lat="55.8018119" lon="49.1650596"><time>2025-03-23T10:22:47.417</time></trkpt><trkpt lat="55.8018349" lon="49.1649836"><time>2025-03-23T10:22:49.417</time></trkpt><trkpt lat="55.8018806" lon="49.1649554"><time>2025-03-23T10:22:51.417</time></trkpt><trkpt lat="55.8019194" lon="49.1649007"><time>2025-03-23T10:22:53.413</time></trkpt><trkpt lat="55.8019353" lon="49.1648077"><time>2025-03-23T10:22:55.407</time></trkpt><trkpt lat="55.8019554" lon="49.1647079"><time>2025-03-23T10:22:57.413</time></trkpt><trkpt lat="55.8019824" lon="49.1645987"><time>2025-03-23T10:22:59.410</time></trkpt><trkpt lat="55.8020094" lon="49.1645148"><time>2025-03-23T10:23:01.420</time></trkpt><trkpt lat="55.8020528" lon="49.1644091"><time>2025-03-23T10:23:03.423</time></trkpt><trkpt lat="55.8020886" lon="49.1642956"><time>2025-03-23T10:23:05.487</time></trkpt><trkpt lat="55.8021265" lon="49.1641950"><time>2025-03-23T10:23:07.417</time></trkpt><trkpt lat="55.8021552" lon="49.1641006"><time>2025-03-23T10:23:10.470</time></trkpt><trkpt lat="55.8022092" lon="49.1640579"><time>2025-03-23T10:23:12.427</time></trkpt><trkpt lat="55.8022758" lon="49.1640670"><time>2025-03-23T10:23:14.413</time></trkpt><trkpt lat="55.8023292" lon="49.1641070"><time>2025-03-23T10:23:16.417</time></trkpt><trkpt lat="55.8023766" lon="49.1641287"><time>2025-03-23T10:23:18.473</time></trkpt><trkpt lat="55.8024364" lon="49.1641247"><time>2025-03-23T10:23:21.420</time></trkpt><trkpt lat="55.8025010" lon="49.1641565"><time>2025-03-23T10:23:24.477</time></trkpt><trkpt lat="55.8025418" lon="49.1641911"><time>2025-03-23T10:23:28.410</time></trkpt><trkpt lat="55.8025845" lon="49.1642419"><time>2025-03-23T10:24:08.417</time></trkpt><trkpt lat="55.8026358" lon="49.1642715"><time>2025-03-23T10:24:12.423</time></trkpt><trkpt lat="55.8026799" lon="49.1642920"><time>2025-03-23T10:24:15.420</time></trkpt><trkpt lat="55.8027263" lon="49.1643556"><time>2025-03-23T10:24:19.420</time></trkpt><trkpt lat="55.8027590" lon="49.1644203"><time>2025-03-23T10:24:21.417</time></trkpt><trkpt lat="55.8027816" lon="49.1644993"><time>2025-03-23T10:24:23.427</time></trkpt><trkpt lat="55.8028126" lon="49.1646149"><time>2025-03-23T10:24:25.417</time></trkpt><trkpt lat="55.8027911" lon="49.1647049"><time>2025-03-23T10:24:31.417</time></trkpt><trkpt lat="55.8027672" lon="49.1647929"><time>2025-03-23T10:24:36.410</time></trkpt><trkpt lat="55.8027488" lon="49.1648837"><time>2025-03-23T10:24:40.420</time></trkpt><trkpt lat="55.8027256" lon="49.1649600"><time>2025-03-23T10:24:44.417</time></trkpt><trkpt lat="55.8026886" lon="49.1650435"><time>2025-03-23T10:24:49.473</time></trkpt><trkpt lat="55.8026491" lon="49.1650940"><time>2025-03-23T10:24:53.473</time></trkpt><trkpt lat="55.8025976" lon="49.1651373"><time>2025-03-23T10:24:57.420</time></trkpt><trkpt lat="55.8025483" lon="49.1652196"><time>2025-03-23T10:25:00.470</time></trkpt><trkpt lat="55.8025063" lon="49.1652699"><time>2025-03-23T10:25:03.477</time></trkpt><trkpt lat="55.8024712" lon="49.1653651"><time>2025-03-23T10:25:07.420</time></trkpt><trkpt lat="55.8024417" lon="49.1654347"><time>2025-03-23T10:25:11.427</time></trkpt><trkpt lat="55.8024121" lon="49.1655095"><time>2025-03-23T10:25:15.487</time></trkpt><trkpt lat="55.8023865" lon="49.1655958"><time>2025-03-23T10:25:19.480</time></trkpt><trkpt lat="55.8023572" lon="49.1656749"><time>2025-03-23T10:25:23.437</time></trkpt><trkpt lat="55.8023271" lon="49.1657631"><time>2025-03-23T10:25:28.470</time></trkpt><trkpt lat="55.8022976" lon="49.1658437"><time>2025-03-23T10:25:33.460</time></trkpt><trkpt lat="55.8022678" lon="49.1659263"><time>2025-03-23T10:25:38.423</time></trkpt><trkpt lat="55.8022472" lon="49.1660164"><time>2025-03-23T10:25:43.470</time></trkpt><trkpt lat="55.8022374" lon="49.1661104"><time>2025-03-23T10:25:47.420</time></trkpt><trkpt lat="55.8022315" lon="49.1661963"><time>2025-03-23T10:25:51.427</time></trkpt><trkpt lat="55.8022542" lon="49.1662824"><time>2025-03-23T10:25:55.417</time></trkpt><trkpt lat="55.8023028" lon="49.1663187"><time>2025-03-23T10:25:59.413</time></trkpt><trkpt lat="55.8023483" lon="49.1663659"><time>2025-03-23T10:26:04.407</time></trkpt><trkpt lat="55.8023541" lon="49.1663507"><time>2025-03-23T10:26:12.923</time></trkpt><trkpt lat="55.8023347" lon="49.1662884"><time>2025-03-23T10:26:21.423</time></trkpt><trkpt lat="55.8022963" lon="49.1662411"><time>2025-03-23T10:26:24.417</time></trkpt><trkpt lat="55.8022625" lon="49.1661689"><time>2025-03-23T10:26:28.417</time></trkpt><trkpt lat="55.8022620" lon="49.1660653"><time>2025-03-23T10:26:32.413</time></trkpt><trkpt lat="55.8022668" lon="49.1659704"><time>2025-03-23T10:26:35.413</time></trkpt><trkpt lat="55.8022910" lon="49.1658736"><time>2025-03-23T10:26:46.427</time></trkpt><trkpt lat="55.8023104" lon="49.1657662"><time>2025-03-23T10:26:49.427</time></trkpt><trkpt lat="55.8023313" lon="49.1656753"><time>2025-03-23T10:26:52.417</time></trkpt><trkpt lat="55.8023601" lon="49.1655567"><time>2025-03-23T10:26:55.417</time></trkpt><trkpt lat="55.8023767" lon="49.1654804"><time>2025-03-23T10:26:57.417</time></trkpt><trkpt lat="55.8024173" lon="49.1654030"><time>2025-03-23T10:27:00.413</time></trkpt><trkpt lat="55.8024462" lon="49.1653275"><time>2025-03-23T10:27:03.417</time></trkpt><trkpt lat="55.8024713" lon="49.1652375"><time>2025-03-23T10:27:06.420</time></trkpt><trkpt lat="55.8025206" lon="49.1651789"><time>2025-03-23T10:27:09.413</time></trkpt><trkpt lat="55.8025591" lon="49.1651021"><time>2025-03-23T10:27:12.417</time></trkpt><trkpt lat="55.8026055" lon="49.1650235"><time>2025-03-23T10:27:15.410</time></trkpt><trkpt lat="55.8026364" lon="49.1649577"><time>2025-03-23T10:27:17.420</time></trkpt><trkpt lat="55.8026720" lon="49.1648612"><time>2025-03-23T10:27:19.413</time></trkpt><trkpt lat="55.8027369" lon="49.1647447"><time>2025-03-23T10:27:21.410</time></trkpt><trkpt lat="55.8027708" lon="49.1646691"><time>2025-03-23T10:27:22.417</time></trkpt><trkpt lat="55.8028115" lon="49.1645719"><time>2025-03-23T10:27:23.420</time></trkpt><trkpt lat="55.8028518" lon="49.1644805"><time>2025-03-23T10:27:24.417</time></trkpt><trkpt lat="55.8028838" lon="49.1643925"><time>2025-03-23T10:27:26.417</time></trkpt><trkpt lat="55.8029010" lon="49.1642938"><time>2025-03-23T10:27:30.420</time></trkpt><trkpt lat="55.8029412" lon="49.1642403"><time>2025-03-23T10:27:34.417</time></trkpt><trkpt lat="55.8029673" lon="49.1641570"><time>2025-03-23T10:27:39.413</time></trkpt><trkpt lat="55.8029448" lon="49.1640730"><time>2025-03-23T10:27:41.413</time></trkpt><trkpt lat="55.8029576" lon="49.1639951"><time>2025-03-23T10:27:45.417</time></trkpt><trkpt lat="55.8029428" lon="49.1639189"><time>2025-03-23T10:27:49.417</time></trkpt><trkpt lat="55.8029442" lon="49.1638241"><time>2025-03-23T10:27:53.420</time></trkpt><trkpt lat="55.8029593" lon="49.1637409"><time>2025-03-23T10:27:56.423</time></trkpt><trkpt lat="55.8029641" lon="49.1636548"><time>2025-03-23T10:27:59.417</time></trkpt><trkpt lat="55.8029779" lon="49.1635495"><time>2025-03-23T10:28:02.420</time></trkpt><trkpt lat="55.8030012" lon="49.1634503"><time>2025-03-23T10:28:06.420</time></trkpt><trkpt lat="55.8030198" lon="49.1633738"><time>2025-03-23T10:28:09.423</time></trkpt><trkpt lat="55.8030624" lon="49.1633049"><time>2025-03-23T10:28:12.417</time></trkpt><trkpt lat="55.8030969" lon="49.1632317"><time>2025-03-23T10:28:15.417</time></trkpt><trkpt lat="55.8031271" lon="49.1631553"><time>2025-03-23T10:28:17.417</time></trkpt><trkpt lat="55.8031614" lon="49.1630884"><time>2025-03-23T10:28:19.420</time></trkpt><trkpt lat="55.8031959" lon="49.1630089"><time>2025-03-23T10:28:22.420</time></trkpt><trkpt lat="55.8032266" lon="49.1629237"><time>2025-03-23T10:28:25.417</time></trkpt><trkpt lat="55.8032571" lon="49.1628578"><time>2025-03-23T10:28:27.417</time></trkpt><trkpt lat="55.8032895" lon="49.1627918"><time>2025-03-23T10:28:30.427</time></trkpt><trkpt lat="55.8033211" lon="49.1627149"><time>2025-03-23T10:28:33.423</time></trkpt><trkpt lat="55.8033462" lon="49.1626368"><time>2025-03-23T10:28:36.420</time></trkpt><trkpt lat="55.8033878" lon="49.1626006"><time>2025-03-23T10:28:39.420</time></trkpt><trkpt lat="55.8034384" lon="49.1626221"><time>2025-03-23T10:28:43.487</time></trkpt><trkpt lat="55.8034775" lon="49.1626850"><time>2025-03-23T10:28:46.423</time></trkpt><trkpt lat="55.8035318" lon="49.1627226"><time>2025-03-23T10:28:53.483</time></trkpt><trkpt lat="55.8035905" lon="49.1627654"><time>2025-03-23T10:28:56.417</time></trkpt><trkpt lat="55.8036497" lon="49.1627751"><time>2025-03-23T10:28:59.470</time></trkpt><trkpt lat="55.8037024" lon="49.1627834"><time>2025-03-23T10:29:01.417</time></trkpt><trkpt lat="55.8037656" lon="49.1627865"><time>2025-03-23T10:29:03.477</time></trkpt><trkpt lat="55.8038334" lon="49.1627860"><time>2025-03-23T10:29:05.413</time></trkpt><trkpt lat="55.8038882" lon="49.1628234"><time>2025-03-23T10:29:07.423</time></trkpt><trkpt lat="55.8039598" lon="49.1628615"><time>2025-03-23T10:29:09.477</time></trkpt><trkpt lat="55.8040343" lon="49.1628489"><time>2025-03-23T10:29:11.417</time></trkpt><trkpt lat="55.8040849" lon="49.1628405"><time>2025-03-23T10:29:13.480</time></trkpt><trkpt lat="55.8041416" lon="49.1627936"><time>2025-03-23T10:29:15.477</time></trkpt><trkpt lat="55.8041589" lon="49.1626934"><time>2025-03-23T10:29:17.413</time></trkpt><trkpt lat="55.8042092" lon="49.1626760"><time>2025-03-23T10:29:20.480</time></trkpt><trkpt lat="55.8042539" lon="49.1626490"><time>2025-03-23T10:29:23.477</time></trkpt><trkpt lat="55.8042998" lon="49.1626073"><time>2025-03-23T10:29:27.420</time></trkpt><trkpt lat="55.8043477" lon="49.1626331"><time>2025-03-23T10:29:31.427</time></trkpt><trkpt lat="55.8043952" lon="49.1626866"><time>2025-03-23T10:29:35.507</time></trkpt><trkpt lat="55.8044433" lon="49.1626986"><time>2025-03-23T10:29:37.417</time></trkpt><trkpt lat="55.8044981" lon="49.1626546"><time>2025-03-23T10:29:39.477</time></trkpt><trkpt lat="55.8045546" lon="49.1626203"><time>2025-03-23T10:29:41.417</time></trkpt><trkpt lat="55.8046077" lon="49.1626004"><time>2025-03-23T10:29:43.470</time></trkpt><trkpt lat="55.8046522" lon="49.1625799"><time>2025-03-23T10:29:45.477</time></trkpt><trkpt lat="55.8047067" lon="49.1625225"><time>2025-03-23T10:29:48.480</time></trkpt><trkpt lat="55.8047495" lon="49.1624882"><time>2025-03-23T10:29:50.427</time></trkpt><trkpt lat="55.8047963" lon="49.1624426"><time>2025-03-23T10:29:54.477</time></trkpt><trkpt lat="55.8048247" lon="49.1623501"><time>2025-03-23T10:29:57.420</time></trkpt><trkpt lat="55.8048548" lon="49.1622829"><time>2025-03-23T10:30:00.473</time></trkpt><trkpt lat="55.8048913" lon="49.1622292"><time>2025-03-23T10:30:03.487</time></trkpt><trkpt lat="55.8049286" lon="49.1621738"><time>2025-03-23T10:30:06.420</time></trkpt><trkpt lat="55.8049625" lon="49.1621007"><time>2025-03-23T10:30:09.483</time></trkpt><trkpt lat="55.8050056" lon="49.1620198"><time>2025-03-23T10:30:16.420</time></trkpt><trkpt lat="55.8050236" lon="49.1619433"><time>2025-03-23T10:30:19.490</time></trkpt><trkpt lat="55.8050279" lon="49.1620324"><time>2025-03-23T10:30:26.423</time></trkpt><trkpt lat="55.8049964" lon="49.1620928"><time>2025-03-23T10:30:29.483</time></trkpt><trkpt lat="55.8050318" lon="49.1621916"><time>2025-03-23T10:30:32.420</time></trkpt><trkpt lat="55.8050700" lon="49.1622400"><time>2025-03-23T10:30:34.507</time></trkpt><trkpt lat="55.8051253" lon="49.1622998"><time>2025-03-23T10:30:36.423</time></trkpt><trkpt lat="55.8051658" lon="49.1623579"><time>2025-03-23T10:30:38.480</time></trkpt><trkpt lat="55.8052105" lon="49.1624140"><time>2025-03-23T10:30:40.480</time></trkpt><trkpt lat="55.8052569" lon="49.1624856"><time>2025-03-23T10:30:42.423</time></trkpt><trkpt lat="55.8053039" lon="49.1625559"><time>2025-03-23T10:30:44.480</time></trkpt><trkpt lat="55.8053535" lon="49.1626083"><time>2025-03-23T10:30:46.413</time></trkpt><trkpt lat="55.8053998" lon="49.1626576"><time>2025-03-23T10:30:48.453</time></trkpt><trkpt lat="55.8054431" lon="49.1627128"><time>2025-03-23T10:30:50.417</time></trkpt><trkpt lat="55.8054755" lon="49.1627826"><time>2025-03-23T10:30:52.417</time></trkpt><trkpt lat="55.8055185" lon="49.1628431"><time>2025-03-23T10:30:54.477</time></trkpt><trkpt lat="55.8055753" lon="49.1628706"><time>2025-03-23T10:30:56.420</time></trkpt><trkpt lat="55.8056228" lon="49.1628769"><time>2025-03-23T10:30:58.423</time></trkpt><trkpt lat="55.8056699" lon="49.1628718"><time>2025-03-23T10:31:01.420</time></trkpt><trkpt lat="55.8057309" lon="49.1628216"><time>2025-03-23T10:31:04.483</time></trkpt><trkpt lat="55.8057831" lon="49.1627873"><time>2025-03-23T10:31:06.423</time></trkpt><trkpt lat="55.8058398" lon="49.1627454"><time>2025-03-23T10:31:08.420</time></trkpt><trkpt lat="55.8058847" lon="49.1627108"><time>2025-03-23T10:31:10.423</time></trkpt><trkpt lat="55.8059349" lon="49.1626748"><time>2025-03-23T10:31:12.420</time></trkpt><trkpt lat="55.8059860" lon="49.1626514"><time>2025-03-23T10:31:14.480</time></trkpt><trkpt lat="55.8060376" lon="49.1626364"><time>2025-03-23T10:31:16.427</time></trkpt><trkpt lat="55.8060848" lon="49.1626220"><time>2025-03-23T10:31:18.473</time></trkpt><trkpt lat="55.8061123" lon="49.1625293"><time>2025-03-23T10:31:21.420</time></trkpt><trkpt lat="55.8061105" lon="49.1624344"><time>2025-03-23T10:31:24.423</time></trkpt><trkpt lat="55.8061175" lon="49.1623498"><time>2025-03-23T10:31:27.417</time></trkpt><trkpt lat="55.8061268" lon="49.1622371"><time>2025-03-23T10:31:30.483</time></trkpt><trkpt lat="55.8061297" lon="49.1621436"><time>2025-03-23T10:31:32.417</time></trkpt><trkpt lat="55.8061343" lon="49.1620549"><time>2025-03-23T10:31:34.483</time></trkpt><trkpt lat="55.8061237" lon="49.1619521"><time>2025-03-23T10:31:36.420</time></trkpt><trkpt lat="55.8060999" lon="49.1618475"><time>2025-03-23T10:31:38.480</time></trkpt><trkpt lat="55.8060911" lon="49.1617660"><time>2025-03-23T10:31:40.487</time></trkpt><trkpt lat="55.8060772" lon="49.1616800"><time>2025-03-23T10:31:42.423</time></trkpt><trkpt lat="55.8060483" lon="49.1615979"><time>2025-03-23T10:31:44.483</time></trkpt><trkpt lat="55.8060119" lon="49.1615217"><time>2025-03-23T10:31:46.423</time></trkpt><trkpt lat="55.8060288" lon="49.1614383"><time>2025-03-23T10:31:49.420</time></trkpt><trkpt lat="55.8060322" lon="49.1613311"><time>2025-03-23T10:31:53.473</time></trkpt><trkpt lat="55.8060231" lon="49.1612521"><time>2025-03-23T10:31:56.427</time></trkpt><trkpt lat="55.8060083" lon="49.1611746"><time>2025-03-23T10:31:59.473</time></trkpt><trkpt lat="55.8059948" lon="49.1610947"><time>2025-03-23T10:32:02.417</time></trkpt><trkpt lat="55.8059427" lon="49.1610770"><time>2025-03-23T10:32:06.423</time></trkpt><trkpt lat="55.8058860" lon="49.1611032"><time>2025-03-23T10:32:10.473</time></trkpt><trkpt lat="55.8058309" lon="49.1610895"><time>2025-03-23T10:32:14.417</time></trkpt><trkpt lat="55.8058043" lon="49.1611547"><time>2025-03-23T10:32:26.417</time></trkpt><trkpt lat="55.8057647" lon="49.1612027"><time>2025-03-23T10:32:44.490</time></trkpt><trkpt lat="55.8058047" lon="49.1611628"><time>2025-03-23T10:32:52.417</time></trkpt><trkpt lat="55.8058208" lon="49.1610774"><time>2025-03-23T10:32:54.417</time></trkpt><trkpt lat="55.8058060" lon="49.1609660"><time>2025-03-23T10:32:56.420</time></trkpt><trkpt lat="55.8057963" lon="49.1608753"><time>2025-03-23T10:32:58.417</time></trkpt><trkpt lat="55.8057756" lon="49.1607992"><time>2025-03-23T10:33:03.420</time></trkpt><trkpt lat="55.8057932" lon="49.1607624"><time>2025-03-23T10:33:06.533</time></trkpt><trkpt lat="55.8058246" lon="49.1607942"><time>2025-03-23T10:33:12.417</time></trkpt><trkpt lat="55.8058711" lon="49.1608010"><time>2025-03-23T10:33:15.420</time></trkpt><trkpt lat="55.8058887" lon="49.1608777"><time>2025-03-23T10:33:18.420</time></trkpt><trkpt lat="55.8058714" lon="49.1609726"><time>2025-03-23T10:33:22.413</time></trkpt><trkpt lat="55.8059041" lon="49.1610291"><time>2025-03-23T10:33:26.417</time></trkpt><trkpt lat="55.8059377" lon="49.1610861"><time>2025-03-23T10:33:37.417</time></trkpt><trkpt lat="55.8059633" lon="49.1611552"><time>2025-03-23T10:33:39.417</time></trkpt><trkpt lat="55.8059984" lon="49.1612199"><time>2025-03-23T10:33:42.413</time></trkpt><trkpt lat="55.8060203" lon="49.1612974"><time>2025-03-23T10:33:45.413</time></trkpt><trkpt lat="55.8060378" lon="49.1613743"><time>2025-03-23T10:33:48.417</time></trkpt><trkpt lat="55.8060394" lon="49.1614652"><time>2025-03-23T10:33:51.417</time></trkpt><trkpt lat="55.8060276" lon="49.1616032"><time>2025-03-23T10:33:54.427</time></trkpt><trkpt lat="55.8060324" lon="49.1617230"><time>2025-03-23T10:33:56.413</time></trkpt><trkpt lat="55.8060459" lon="49.1618462"><time>2025-03-23T10:33:58.420</time></trkpt><trkpt lat="55.8060766" lon="49.1619088"><time>2025-03-23T10:34:00.420</time></trkpt><trkpt lat="55.8061069" lon="49.1619900"><time>2025-03-23T10:34:02.420</time></trkpt><trkpt lat="55.8061250" lon="49.1620906"><time>2025-03-23T10:34:04.420</time></trkpt><trkpt lat="55.8061246" lon="49.1621837"><time>2025-03-23T10:34:06.417</time></trkpt><trkpt lat="55.8061246" lon="49.1622921"><time>2025-03-23T10:34:08.417</time></trkpt><trkpt lat="55.8061204" lon="49.1624067"><time>2025-03-23T10:34:10.427</time></trkpt><trkpt lat="55.8061162" lon="49.1625132"><time>2025-03-23T10:34:12.417</time></trkpt><trkpt lat="55.8061283" lon="49.1626049"><time>2025-03-23T10:34:14.423</time></trkpt><trkpt lat="55.8061340" lon="49.1626992"><time>2025-03-23T10:34:16.417</time></trkpt><trkpt lat="55.8061269" lon="49.1627800"><time>2025-03-23T10:34:18.417</time></trkpt><trkpt lat="55.8061249" lon="49.1628973"><time>2025-03-23T10:34:22.417</time></trkpt><trkpt lat="55.8061477" lon="49.1629933"><time>2025-03-23T10:34:24.420</time></trkpt><trkpt lat="55.8061931" lon="49.1630651"><time>2025-03-23T10:34:26.420</time></trkpt><trkpt lat="55.8062601" lon="49.1630976"><time>2025-03-23T10:34:29.417</time></trkpt><trkpt lat="55.8063248" lon="49.1631233"><time>2025-03-23T10:34:31.417</time></trkpt><trkpt lat="55.8063784" lon="49.1631637"><time>2025-03-23T10:34:33.417</time></trkpt><trkpt lat="55.8064317" lon="49.1632110"><time>2025-03-23T10:34:35.423</time></trkpt><trkpt lat="55.8064839" lon="49.1632660"><time>2025-03-23T10:34:37.427</time></trkpt><trkpt lat="55.8065158" lon="49.1633460"><time>2025-03-23T10:34:39.417</time></trkpt><trkpt lat="55.8065320" lon="49.1634304"><time>2025-03-23T10:34:41.417</time></trkpt><trkpt lat="55.8065339" lon="49.1635278"><time>2025-03-23T10:34:43.417</time></trkpt><trkpt lat="55.8065607" lon="49.1636338"><time>2025-03-23T10:34:45.420</time></trkpt><trkpt lat="55.8065916" lon="49.1637295"><time>2025-03-23T10:34:47.417</time></trkpt><trkpt lat="55.8066136" lon="49.1638062"><time>2025-03-23T10:34:49.417</time></trkpt><trkpt lat="55.8066397" lon="49.1638796"><time>2025-03-23T10:34:51.417</time></trkpt><trkpt lat="55.8066214" lon="49.1639848"><time>2025-03-23T10:34:53.420</time></trkpt><trkpt lat="55.8065901" lon="49.1640865"><time>2025-03-23T10:34:55.423</time></trkpt><trkpt lat="55.8065657" lon="49.1641879"><time>2025-03-23T10:34:57.417</time></trkpt><trkpt lat="55.8065258" lon="49.1642641"><time>2025-03-23T10:34:59.420</time></trkpt><trkpt lat="55.8064950" lon="49.1643450"><time>2025-03-23T10:35:01.417</time></trkpt><trkpt lat="55.8064663" lon="49.1644211"><time>2025-03-23T10:35:03.420</time></trkpt><trkpt lat="55.8064359" lon="49.1644843"><time>2025-03-23T10:35:05.427</time></trkpt><trkpt lat="55.8064025" lon="49.1645513"><time>2025-03-23T10:35:07.483</time></trkpt><trkpt lat="55.8063690" lon="49.1646150"><time>2025-03-23T10:35:09.490</time></trkpt><trkpt lat="55.8063347" lon="49.1647025"><time>2025-03-23T10:35:11.423</time></trkpt><trkpt lat="55.8063005" lon="49.1647775"><time>2025-03-23T10:35:13.417</time></trkpt><trkpt lat="55.8062728" lon="49.1648723"><time>2025-03-23T10:35:16.423</time></trkpt><trkpt lat="55.8062541" lon="49.1649780"><time>2025-03-23T10:35:18.480</time></trkpt><trkpt lat="55.8062300" lon="49.1651028"><time>2025-03-23T10:35:20.427</time></trkpt><trkpt lat="55.8062177" lon="49.1652067"><time>2025-03-23T10:35:22.420</time></trkpt><trkpt lat="55.8062223" lon="49.1653164"><time>2025-03-23T10:35:25.480</time></trkpt><trkpt lat="55.8062218" lon="49.1654125"><time>2025-03-23T10:35:27.420</time></trkpt><trkpt lat="55.8062217" lon="49.1655191"><time>2025-03-23T10:35:29.477</time></trkpt><trkpt lat="55.8062310" lon="49.1656125"><time>2025-03-23T10:35:31.423</time></trkpt><trkpt lat="55.8062306" lon="49.1657612"><time>2025-03-23T10:35:33.487</time></trkpt><trkpt lat="55.8062311" lon="49.1658499"><time>2025-03-23T10:35:34.483</time></trkpt><trkpt lat="55.8062293" lon="49.1659623"><time>2025-03-23T10:35:35.487</time></trkpt><trkpt lat="55.8062264" lon="49.1660574"><time>2025-03-23T10:35:36.423</time></trkpt><trkpt lat="55.8062302" lon="49.1661517"><time>2025-03-23T10:35:38.483</time></trkpt><trkpt lat="55.8062386" lon="49.1662679"><time>2025-03-23T10:35:45.420</time></trkpt><trkpt lat="55.8062335" lon="49.1663825"><time>2025-03-23T10:35:49.483</time></trkpt><trkpt lat="55.8062134" lon="49.1664889"><time>2025-03-23T10:35:52.423</time></trkpt><trkpt lat="55.8062045" lon="49.1665789"><time>2025-03-23T10:35:54.483</time></trkpt><trkpt lat="55.8061930" lon="49.1667208"><time>2025-03-23T10:35:56.430</time></trkpt><trkpt lat="55.8062222" lon="49.1667880"><time>2025-03-23T10:35:59.477</time></trkpt><trkpt lat="55.8062878" lon="49.1668139"><time>2025-03-23T10:36:02.420</time></trkpt><trkpt lat="55.8063299" lon="49.1668776"><time>2025-03-23T10:36:04.477</time></trkpt><trkpt lat="55.8063755" lon="49.1668931"><time>2025-03-23T10:36:06.420</time></trkpt><trkpt lat="55.8064184" lon="49.1669400"><time>2025-03-23T10:36:09.483</time></trkpt><trkpt lat="55.8064649" lon="49.1669677"><time>2025-03-23T10:36:12.417</time></trkpt><trkpt lat="55.8065031" lon="49.1670163"><time>2025-03-23T10:36:15.420</time></trkpt><trkpt lat="55.8065579" lon="49.1670352"><time>2025-03-23T10:36:18.420</time></trkpt><trkpt lat="55.8066152" lon="49.1670567"><time>2025-03-23T10:36:21.417</time></trkpt><trkpt lat="55.8066709" lon="49.1670933"><time>2025-03-23T10:36:24.497</time></trkpt><trkpt lat="55.8067244" lon="49.1671284"><time>2025-03-23T10:36:26.423</time></trkpt><trkpt lat="55.8067779" lon="49.1671841"><time>2025-03-23T10:36:28.487</time></trkpt><trkpt lat="55.8068173" lon="49.1672317"><time>2025-03-23T10:36:30.487</time></trkpt><trkpt lat="55.8068705" lon="49.1672657"><time>2025-03-23T10:36:32.420</time></trkpt><trkpt lat="55.8069197" lon="49.1673017"><time>2025-03-23T10:36:34.420</time></trkpt><trkpt lat="55.8069614" lon="49.1673409"><time>2025-03-23T10:36:36.450</time></trkpt><trkpt lat="55.8069969" lon="49.1674052"><time>2025-03-23T10:36:41.427</time></trkpt><trkpt lat="55.8070315" lon="49.1674641"><time>2025-03-23T10:36:47.430</time></trkpt><trkpt lat="55.8070526" lon="49.1675354"><time>2025-03-23T10:36:53.500</time></trkpt><trkpt lat="55.8070060" lon="49.1675654"><time>2025-03-23T10:37:06.423</time></trkpt><trkpt lat="55.8069537" lon="49.1675957"><time>2025-03-23T10:37:10.473</time></trkpt><trkpt lat="55.8068998" lon="49.1676153"><time>2025-03-23T10:37:15.420</time></trkpt><trkpt lat="55.8068533" lon="49.1676652"><time>2025-03-23T10:37:19.483</time></trkpt><trkpt lat="55.8068147" lon="49.1677246"><time>2025-03-23T10:37:23.420</time></trkpt><trkpt lat="55.8067659" lon="49.1677355"><time>2025-03-23T10:37:28.480</time></trkpt><trkpt lat="55.8067272" lon="49.1677896"><time>2025-03-23T10:37:33.483</time></trkpt><trkpt lat="55.8066764" lon="49.1678007"><time>2025-03-23T10:37:38.427</time></trkpt><trkpt lat="55.8066374" lon="49.1678440"><time>2025-03-23T10:37:44.497</time></trkpt><trkpt lat="55.8065977" lon="49.1679115"><time>2025-03-23T10:37:59.477</time></trkpt><trkpt lat="55.8065529" lon="49.1679561"><time>2025-03-23T10:38:05.430</time></trkpt><trkpt lat="55.8065063" lon="49.1679121"><time>2025-03-23T10:38:10.480</time></trkpt><trkpt lat="55.8064568" lon="49.1678784"><time>2025-03-23T10:38:15.420</time></trkpt><trkpt lat="55.8064213" lon="49.1679313"><time>2025-03-23T10:38:23.490</time></trkpt><trkpt lat="55.8063856" lon="49.1679967"><time>2025-03-23T10:38:33.477</time></trkpt><trkpt lat="55.8063354" lon="49.1680207"><time>2025-03-23T10:38:40.483</time></trkpt><trkpt lat="55.8063484" lon="49.1681107"><time>2025-03-23T10:39:08.417</time></trkpt><trkpt lat="55.8063784" lon="49.1681798"><time>2025-03-23T10:39:13.423</time></trkpt><trkpt lat="55.8063856" lon="49.1682607"><time>2025-03-23T10:39:18.477</time></trkpt><trkpt lat="55.8063681" lon="49.1683373"><time>2025-03-23T10:39:23.413</time></trkpt><trkpt lat="55.8063571" lon="49.1684237"><time>2025-03-23T10:39:28.487</time></trkpt><trkpt lat="55.8063051" lon="49.1684731"><time>2025-03-23T10:39:33.480</time></trkpt><trkpt lat="55.8062572" lon="49.1684586"><time>2025-03-23T10:39:37.420</time></trkpt><trkpt lat="55.8062374" lon="49.1684885"><time>2025-03-23T10:39:46.030</time></trkpt><trkpt lat="55.8062279" lon="49.1685389"><time>2025-03-23T10:39:54.413</time></trkpt><trkpt lat="55.8062722" lon="49.1685678"><time>2025-03-23T10:40:01.420</time></trkpt><trkpt lat="55.8062860" lon="49.1684889"><time>2025-03-23T10:40:36.417</time></trkpt><trkpt lat="55.8062972" lon="49.1684064"><time>2025-03-23T10:40:49.410</time></trkpt><trkpt lat="55.8063361" lon="49.1683564"><time>2025-03-23T10:40:53.423</time></trkpt><trkpt lat="55.8063739" lon="49.1682945"><time>2025-03-23T10:40:57.423</time></trkpt><trkpt lat="55.8063713" lon="49.1682125"><time>2025-03-23T10:41:00.417</time></trkpt><trkpt lat="55.8063638" lon="49.1681239"><time>2025-03-23T10:41:04.413</time></trkpt><trkpt lat="55.8063644" lon="49.1680189"><time>2025-03-23T10:41:08.413</time></trkpt><trkpt lat="55.8063883" lon="49.1679438"><time>2025-03-23T10:41:27.423</time></trkpt><trkpt lat="55.8064311" lon="49.1678910"><time>2025-03-23T10:41:31.417</time></trkpt><trkpt lat="55.8064813" lon="49.1678433"><time>2025-03-23T10:41:37.433</time></trkpt><trkpt lat="55.8065325" lon="49.1678593"><time>2025-03-23T10:41:40.483</time></trkpt><trkpt lat="55.8065805" lon="49.1678844"><time>2025-03-23T10:41:44.483</time></trkpt><trkpt lat="55.8066253" lon="49.1678459"><time>2025-03-23T10:41:48.480</time></trkpt><trkpt lat="55.8066761" lon="49.1678050"><time>2025-03-23T10:41:53.420</time></trkpt><trkpt lat="55.8067061" lon="49.1677352"><time>2025-03-23T10:41:58.420</time></trkpt><trkpt lat="55.8067543" lon="49.1677358"><time>2025-03-23T10:42:04.477</time></trkpt><trkpt lat="55.8067872" lon="49.1676611"><time>2025-03-23T10:42:10.423</time></trkpt><trkpt lat="55.8068319" lon="49.1676871"><time>2025-03-23T10:42:14.427</time></trkpt><trkpt lat="55.8068872" lon="49.1676614"><time>2025-03-23T10:42:19.480</time></trkpt><trkpt lat="55.8069260" lon="49.1676104"><time>2025-03-23T10:42:24.427</time></trkpt><trkpt lat="55.8069744" lon="49.1675762"><time>2025-03-23T10:42:29.480</time></trkpt><trkpt lat="55.8070280" lon="49.1675593"><time>2025-03-23T10:42:32.423</time></trkpt><trkpt lat="55.8070797" lon="49.1675394"><time>2025-03-23T10:42:34.480</time></trkpt><trkpt lat="55.8071383" lon="49.1675121"><time>2025-03-23T10:42:38.423</time></trkpt><trkpt lat="55.8071913" lon="49.1675495"><time>2025-03-23T10:42:41.417</time></trkpt><trkpt lat="55.8072416" lon="49.1675867"><time>2025-03-23T10:42:44.423</time></trkpt><trkpt lat="55.8072774" lon="49.1676686"><time>2025-03-23T10:42:47.427</time></trkpt><trkpt lat="55.8073140" lon="49.1677338"><time>2025-03-23T10:42:50.477</time></trkpt><trkpt lat="55.8073498" lon="49.1677983"><time>2025-03-23T10:42:54.480</time></trkpt><trkpt lat="55.8074076" lon="49.1677000"><time>2025-03-23T10:43:00.423</time></trkpt><trkpt lat="55.8074580" lon="49.1676974"><time>2025-03-23T10:43:04.420</time></trkpt><trkpt lat="55.8075090" lon="49.1677336"><time>2025-03-23T10:43:08.420</time></trkpt><trkpt lat="55.8075531" lon="49.1677576"><time>2025-03-23T10:43:11.423</time></trkpt><trkpt lat="55.8076072" lon="49.1677832"><time>2025-03-23T10:43:15.477</time></trkpt><trkpt lat="55.8076635" lon="49.1677973"><time>2025-03-23T10:43:19.423</time></trkpt><trkpt lat="55.8077200" lon="49.1678208"><time>2025-03-23T10:43:23.423</time></trkpt><trkpt lat="55.8077683" lon="49.1678568"><time>2025-03-23T10:43:26.420</time></trkpt><trkpt lat="55.8078227" lon="49.1678648"><time>2025-03-23T10:43:29.420</time></trkpt><trkpt lat="55.8078747" lon="49.1678669"><time>2025-03-23T10:43:31.423</time></trkpt><trkpt lat="55.8079294" lon="49.1678927"><time>2025-03-23T10:43:33.497</time></trkpt><trkpt lat="55.8079847" lon="49.1678862"><time>2025-03-23T10:43:35.477</time></trkpt><trkpt lat="55.8080345" lon="49.1678857"><time>2025-03-23T10:43:37.423</time></trkpt><trkpt lat="55.8081108" lon="49.1679401"><time>2025-03-23T10:43:40.483</time></trkpt><trkpt lat="55.8081927" lon="49.1679837"><time>2025-03-23T10:43:42.420</time></trkpt><trkpt lat="55.8082394" lon="49.1679987"><time>2025-03-23T10:43:43.420</time></trkpt><trkpt lat="55.8082919" lon="49.1680512"><time>2025-03-23T10:43:45.490</time></trkpt><trkpt lat="55.8083619" lon="49.1681050"><time>2025-03-23T10:43:47.423</time></trkpt><trkpt lat="55.8084076" lon="49.1681271"><time>2025-03-23T10:43:49.477</time></trkpt><trkpt lat="55.8084592" lon="49.1681574"><time>2025-03-23T10:43:51.480</time></trkpt><trkpt lat="55.8085066" lon="49.1681658"><time>2025-03-23T10:43:53.423</time></trkpt><trkpt lat="55.8085671" lon="49.1681647"><time>2025-03-23T10:43:56.483</time></trkpt><trkpt lat="55.8086119" lon="49.1681473"><time>2025-03-23T10:43:58.423</time></trkpt><trkpt lat="55.8086655" lon="49.1681517"><time>2025-03-23T10:44:00.483</time></trkpt><trkpt lat="55.8087239" lon="49.1681825"><time>2025-03-23T10:44:03.437</time></trkpt><trkpt lat="55.8087782" lon="49.1681954"><time>2025-03-23T10:44:07.423</time></trkpt><trkpt lat="55.8088236" lon="49.1682160"><time>2025-03-23T10:44:10.417</time></trkpt><trkpt lat="55.8088744" lon="49.1682319"><time>2025-03-23T10:44:14.417</time></trkpt><trkpt lat="55.8089191" lon="49.1682476"><time>2025-03-23T10:44:17.427</time></trkpt><trkpt lat="55.8089743" lon="49.1682754"><time>2025-03-23T10:44:20.420</time></trkpt><trkpt lat="55.8090466" lon="49.1682757"><time>2025-03-23T10:44:23.420</time></trkpt><trkpt lat="55.8091113" lon="49.1683134"><time>2025-03-23T10:44:33.420</time></trkpt><trkpt lat="55.8091549" lon="49.1683343"><time>2025-03-23T10:44:36.420</time></trkpt><trkpt lat="55.8092026" lon="49.1683224"><time>2025-03-23T10:44:39.427</time></trkpt><trkpt lat="55.8092487" lon="49.1683249"><time>2025-03-23T10:44:42.423</time></trkpt><trkpt lat="55.8093034" lon="49.1683763"><time>2025-03-23T10:45:04.487</time></trkpt><trkpt lat="55.8093629" lon="49.1684056"><time>2025-03-23T10:45:07.420</time></trkpt><trkpt lat="55.8094236" lon="49.1683958"><time>2025-03-23T10:45:11.483</time></trkpt><trkpt lat="55.8094800" lon="49.1683769"><time>2025-03-23T10:45:14.480</time></trkpt><trkpt lat="55.8095383" lon="49.1683852"><time>2025-03-23T10:45:17.427</time></trkpt><trkpt lat="55.8095972" lon="49.1684018"><time>2025-03-23T10:45:20.490</time></trkpt><trkpt lat="55.8096502" lon="49.1684102"><time>2025-03-23T10:45:22.423</time></trkpt><trkpt lat="55.8097047" lon="49.1684315"><time>2025-03-23T10:45:25.417</time></trkpt><trkpt lat="55.8097744" lon="49.1684563"><time>2025-03-23T10:45:28.417</time></trkpt><trkpt lat="55.8098241" lon="49.1684593"><time>2025-03-23T10:45:30.413</time></trkpt><trkpt lat="55.8098795" lon="49.1684545"><time>2025-03-23T10:45:32.413</time></trkpt><trkpt lat="55.8099323" lon="49.1684543"><time>2025-03-23T10:45:34.413</time></trkpt><trkpt lat="55.8100003" lon="49.1684534"><time>2025-03-23T10:45:37.420</time></trkpt><trkpt lat="55.8100455" lon="49.1684816"><time>2025-03-23T10:45:38.417</time></trkpt><trkpt lat="55.8101129" lon="49.1685271"><time>2025-03-23T10:45:40.413</time></trkpt><trkpt lat="55.8101828" lon="49.1685444"><time>2025-03-23T10:45:43.423</time></trkpt><trkpt lat="55.8102421" lon="49.1685593"><time>2025-03-23T10:45:47.420</time></trkpt><trkpt lat="55.8102887" lon="49.1685616"><time>2025-03-23T10:45:50.420</time></trkpt><trkpt lat="55.8103350" lon="49.1685948"><time>2025-03-23T10:45:54.423</time></trkpt><trkpt lat="55.8103800" lon="49.1685993"><time>2025-03-23T10:45:57.417</time></trkpt><trkpt lat="55.8104420" lon="49.1686160"><time>2025-03-23T10:46:01.420</time></trkpt><trkpt lat="55.8104868" lon="49.1686053"><time>2025-03-23T10:46:17.423</time></trkpt><trkpt lat="55.8105249" lon="49.1685553"><time>2025-03-23T10:46:20.420</time></trkpt><trkpt lat="55.8105714" lon="49.1685427"><time>2025-03-23T10:46:24.420</time></trkpt><trkpt lat="55.8106191" lon="49.1685470"><time>2025-03-23T10:46:28.427</time></trkpt><trkpt lat="55.8106499" lon="49.1684793"><time>2025-03-23T10:46:32.417</time></trkpt><trkpt lat="55.8106654" lon="49.1683892"><time>2025-03-23T10:46:36.423</time></trkpt><trkpt lat="55.8106586" lon="49.1683019"><time>2025-03-23T10:46:40.417</time></trkpt><trkpt lat="55.8106715" lon="49.1682128"><time>2025-03-23T10:46:44.423</time></trkpt><trkpt lat="55.8107196" lon="49.1682023"><time>2025-03-23T10:46:50.420</time></trkpt><trkpt lat="55.8107482" lon="49.1681309"><time>2025-03-23T10:46:56.420</time></trkpt><trkpt lat="55.8107923" lon="49.1680982"><time>2025-03-23T10:47:04.423</time></trkpt><trkpt lat="55.8108464" lon="49.1680899"><time>2025-03-23T10:47:09.420</time></trkpt><trkpt lat="55.8108644" lon="49.1681631"><time>2025-03-23T10:47:16.417</time></trkpt><trkpt lat="55.8108230" lon="49.1681274"><time>2025-03-23T10:47:43.417</time></trkpt><trkpt lat="55.8107767" lon="49.1681134"><time>2025-03-23T10:47:53.423</time></trkpt><trkpt lat="55.8107195" lon="49.1681357"><time>2025-03-23T10:47:59.433</time></trkpt><trkpt lat="55.8106814" lon="49.1682158"><time>2025-03-23T10:48:05.480</time></trkpt><trkpt lat="55.8106580" lon="49.1682926"><time>2025-03-23T10:48:11.483</time></trkpt><trkpt lat="55.8106261" lon="49.1683555"><time>2025-03-23T10:48:17.487</time></trkpt><trkpt lat="55.8106154" lon="49.1684427"><time>2025-03-23T10:48:22.423</time></trkpt><trkpt lat="55.8106217" lon="49.1685347"><time>2025-03-23T10:48:26.480</time></trkpt><trkpt lat="55.8106303" lon="49.1686159"><time>2025-03-23T10:48:31.427</time></trkpt><trkpt lat="55.8106222" lon="49.1687011"><time>2025-03-23T10:48:37.487</time></trkpt><trkpt lat="55.8105728" lon="49.1686670"><time>2025-03-23T10:48:43.427</time></trkpt><trkpt lat="55.8105390" lon="49.1687215"><time>2025-03-23T10:48:48.423</time></trkpt><trkpt lat="55.8105071" lon="49.1687923"><time>2025-03-23T10:48:54.423</time></trkpt><trkpt lat="55.8105031" lon="49.1688766"><time>2025-03-23T10:48:59.420</time></trkpt><trkpt lat="55.8104816" lon="49.1689556"><time>2025-03-23T10:49:03.487</time></trkpt><trkpt lat="55.8104709" lon="49.1690331"><time>2025-03-23T10:49:08.430</time></trkpt><trkpt lat="55.8104598" lon="49.1691129"><time>2025-03-23T10:49:16.423</time></trkpt><trkpt lat="55.8104309" lon="49.1690466"><time>2025-03-23T10:49:30.423</time></trkpt><trkpt lat="55.8103963" lon="49.1691030"><time>2025-03-23T10:49:38.427</time></trkpt><trkpt lat="55.8104270" lon="49.1691781"><time>2025-03-23T10:49:43.480</time></trkpt><trkpt lat="55.8104056" lon="49.1690963"><time>2025-03-23T10:49:53.413</time></trkpt><trkpt lat="55.8104481" lon="49.1690662"><time>2025-03-23T10:49:59.477</time></trkpt><trkpt lat="55.8104826" lon="49.1690018"><time>2025-03-23T10:50:04.480</time></trkpt><trkpt lat="55.8105251" lon="49.1689560"><time>2025-03-23T10:50:10.417</time></trkpt><trkpt lat="55.8105407" lon="49.1688771"><time>2025-03-23T10:50:15.423</time></trkpt><trkpt lat="55.8105113" lon="49.1688143"><time>2025-03-23T10:50:20.430</time></trkpt><trkpt lat="55.8104973" lon="49.1687376"><time>2025-03-23T10:50:26.430</time></trkpt><trkpt lat="55.8105373" lon="49.1686988"><time>2025-03-23T10:50:31.430</time></trkpt><trkpt lat="55.8105611" lon="49.1686252"><time>2025-03-23T10:50:36.430</time></trkpt><trkpt lat="55.8105101" lon="49.1685838"><time>2025-03-23T10:50:42.490</time></trkpt><trkpt lat="55.8104640" lon="49.1685634"><time>2025-03-23T10:50:50.433</time></trkpt><trkpt lat="55.8104215" lon="49.1685267"><time>2025-03-23T10:50:55.430</time></trkpt><trkpt lat="55.8103997" lon="49.1684344"><time>2025-03-23T10:50:59.493</time></trkpt><trkpt lat="55.8104217" lon="49.1683520"><time>2025-03-23T10:51:03.487</time></trkpt><trkpt lat="55.8104371" lon="49.1682755"><time>2025-03-23T10:51:07.487</time></trkpt><trkpt lat="55.8104249" lon="49.1681962"><time>2025-03-23T10:51:11.423</time></trkpt><trkpt lat="55.8104582" lon="49.1681241"><time>2025-03-23T10:51:16.420</time></trkpt><trkpt lat="55.8104589" lon="49.1680390"><time>2025-03-23T10:51:20.427</time></trkpt><trkpt lat="55.8104640" lon="49.1679521"><time>2025-03-23T10:51:24.420</time></trkpt><trkpt lat="55.8104820" lon="49.1678727"><time>2025-03-23T10:51:28.420</time></trkpt><trkpt lat="55.8104861" lon="49.1677852"><time>2025-03-23T10:51:32.427</time></trkpt><trkpt lat="55.8104900" lon="49.1676939"><time>2025-03-23T10:51:36.430</time></trkpt><trkpt lat="55.8104910" lon="49.1676075"><time>2025-03-23T10:51:40.420</time></trkpt><trkpt lat="55.8105169" lon="49.1675410"><time>2025-03-23T10:51:44.420</time></trkpt><trkpt lat="55.8105342" lon="49.1674662"><time>2025-03-23T10:51:48.420</time></trkpt><trkpt lat="55.8105578" lon="49.1673926"><time>2025-03-23T10:51:52.433</time></trkpt><trkpt lat="55.8105812" lon="49.1673196"><time>2025-03-23T10:51:57.423</time></trkpt><trkpt lat="55.8106147" lon="49.1672472"><time>2025-03-23T10:52:02.420</time></trkpt><trkpt lat="55.8106178" lon="49.1671610"><time>2025-03-23T10:52:06.417</time></trkpt><trkpt lat="55.8106410" lon="49.1670792"><time>2025-03-23T10:52:10.423</time></trkpt><trkpt lat="55.8106909" lon="49.1670964"><time>2025-03-23T10:52:15.420</time></trkpt><trkpt lat="55.8107447" lon="49.1670556"><time>2025-03-23T10:52:20.420</time></trkpt><trkpt lat="55.8107888" lon="49.1670253"><time>2025-03-23T10:52:23.430</time></trkpt><trkpt lat="55.8108338" lon="49.1669934"><time>2025-03-23T10:52:26.417</time></trkpt><trkpt lat="55.8108877" lon="49.1669703"><time>2025-03-23T10:52:30.423</time></trkpt><trkpt lat="55.8109441" lon="49.1669425"><time>2025-03-23T10:52:34.417</time></trkpt><trkpt lat="55.8109960" lon="49.1668999"><time>2025-03-23T10:52:38.427</time></trkpt><trkpt lat="55.8110383" lon="49.1668562"><time>2025-03-23T10:52:41.427</time></trkpt><trkpt lat="55.8110869" lon="49.1668870"><time>2025-03-23T10:52:45.420</time></trkpt><trkpt lat="55.8111351" lon="49.1669287"><time>2025-03-23T10:52:49.423</time></trkpt><trkpt lat="55.8111964" lon="49.1669355"><time>2025-03-23T10:52:53.427</time></trkpt><trkpt lat="55.8112419" lon="49.1669547"><time>2025-03-23T10:52:56.420</time></trkpt><trkpt lat="55.8112881" lon="49.1669759"><time>2025-03-23T10:52:59.423</time></trkpt><trkpt lat="55.8113414" lon="49.1669730"><time>2025-03-23T10:53:03.423</time></trkpt><trkpt lat="55.8113898" lon="49.1669363"><time>2025-03-23T10:53:07.420</time></trkpt><trkpt lat="55.8114412" lon="49.1668899"><time>2025-03-23T10:53:11.420</time></trkpt><trkpt lat="55.8114818" lon="49.1668262"><time>2025-03-23T10:53:15.427</time></trkpt><trkpt lat="55.8115254" lon="49.1668057"><time>2025-03-23T10:53:19.420</time></trkpt><trkpt lat="55.8115749" lon="49.1667846"><time>2025-03-23T10:53:23.417</time></trkpt><trkpt lat="55.8116191" lon="49.1668377"><time>2025-03-23T10:53:27.427</time></trkpt><trkpt lat="55.8115833" lon="49.1668891"><time>2025-03-23T10:54:06.423</time></trkpt><trkpt lat="55.8115406" lon="49.1668238"><time>2025-03-23T10:54:10.483</time></trkpt><trkpt lat="55.8115205" lon="49.1669123"><time>2025-03-23T10:54:14.427</time></trkpt><trkpt lat="55.8115026" lon="49.1669980"><time>2025-03-23T10:54:18.487</time></trkpt><trkpt lat="55.8115072" lon="49.1670814"><time>2025-03-23T10:54:22.427</time></trkpt><trkpt lat="55.8115228" lon="49.1671607"><time>2025-03-23T10:54:26.487</time></trkpt><trkpt lat="55.8115368" lon="49.1672472"><time>2025-03-23T10:54:31.483</time></trkpt><trkpt lat="55.8115555" lon="49.1673379"><time>2025-03-23T10:54:40.487</time></trkpt><trkpt lat="55.8116054" lon="49.1672819"><time>2025-03-23T10:54:43.420</time></trkpt><trkpt lat="55.8115768" lon="49.1672055"><time>2025-03-23T10:54:45.490</time></trkpt><trkpt lat="55.8115582" lon="49.1671144"><time>2025-03-23T10:54:48.423</time></trkpt><trkpt lat="55.8115314" lon="49.1670393"><time>2025-03-23T10:54:52.427</time></trkpt><trkpt lat="55.8115023" lon="49.1669764"><time>2025-03-23T10:54:55.503</time></trkpt><trkpt lat="55.8114645" lon="49.1669274"><time>2025-03-23T10:54:57.427</time></trkpt><trkpt lat="55.8113995" lon="49.1669495"><time>2025-03-23T10:55:00.483</time></trkpt><trkpt lat="55.8113518" lon="49.1669632"><time>2025-03-23T10:55:02.427</time></trkpt><trkpt lat="55.8112939" lon="49.1669446"><time>2025-03-23T10:55:05.487</time></trkpt><trkpt lat="55.8112352" lon="49.1669275"><time>2025-03-23T10:55:08.427</time></trkpt><trkpt lat="55.8111858" lon="49.1668986"><time>2025-03-23T10:55:10.490</time></trkpt><trkpt lat="55.8111260" lon="49.1668654"><time>2025-03-23T10:55:13.430</time></trkpt><trkpt lat="55.8110732" lon="49.1668414"><time>2025-03-23T10:55:15.483</time></trkpt><trkpt lat="55.8110206" lon="49.1668565"><time>2025-03-23T10:55:20.423</time></trkpt><trkpt lat="55.8109682" lon="49.1668862"><time>2025-03-23T10:55:23.423</time></trkpt><trkpt lat="55.8109030" lon="49.1669346"><time>2025-03-23T10:55:26.423</time></trkpt><trkpt lat="55.8108458" lon="49.1669797"><time>2025-03-23T10:55:29.483</time></trkpt><trkpt lat="55.8107842" lon="49.1670186"><time>2025-03-23T10:55:32.427</time></trkpt><trkpt lat="55.8107240" lon="49.1670514"><time>2025-03-23T10:55:35.487</time></trkpt><trkpt lat="55.8106756" lon="49.1670539"><time>2025-03-23T10:55:39.487</time></trkpt><trkpt lat="55.8106291" lon="49.1669951"><time>2025-03-23T10:55:43.420</time></trkpt><trkpt lat="55.8105861" lon="49.1669392"><time>2025-03-23T10:55:46.497</time></trkpt><trkpt lat="55.8105392" lon="49.1669020"><time>2025-03-23T10:55:49.487</time></trkpt><trkpt lat="55.8104810" lon="49.1668646"><time>2025-03-23T10:55:52.427</time></trkpt><trkpt lat="55.8104390" lon="49.1668235"><time>2025-03-23T10:55:54.483</time></trkpt><trkpt lat="55.8103949" lon="49.1667917"><time>2025-03-23T10:55:56.487</time></trkpt><trkpt lat="55.8103475" lon="49.1667758"><time>2025-03-23T10:55:58.427</time></trkpt><trkpt lat="55.8102900" lon="49.1667780"><time>2025-03-23T10:56:01.483</time></trkpt><trkpt lat="55.8102460" lon="49.1667963"><time>2025-03-23T10:56:03.423</time></trkpt><trkpt lat="55.8102018" lon="49.1667785"><time>2025-03-23T10:56:05.487</time></trkpt><trkpt lat="55.8101481" lon="49.1667059"><time>2025-03-23T10:56:07.427</time></trkpt><trkpt lat="55.8100827" lon="49.1666592"><time>2025-03-23T10:56:09.490</time></trkpt><trkpt lat="55.8100412" lon="49.1666243"><time>2025-03-23T10:56:11.487</time></trkpt><trkpt lat="55.8099966" lon="49.1665611"><time>2025-03-23T10:56:14.430</time></trkpt><trkpt lat="55.8099570" lon="49.1665179"><time>2025-03-23T10:56:16.427</time></trkpt><trkpt lat="55.8099103" lon="49.1665093"><time>2025-03-23T10:56:18.483</time></trkpt><trkpt lat="55.8098587" lon="49.1665313"><time>2025-03-23T10:56:21.417</time></trkpt><trkpt lat="55.8098092" lon="49.1665653"><time>2025-03-23T10:56:24.480</time></trkpt><trkpt lat="55.8097620" lon="49.1665906"><time>2025-03-23T10:56:27.427</time></trkpt><trkpt lat="55.8097189" lon="49.1666430"><time>2025-03-23T10:56:30.490</time></trkpt><trkpt lat="55.8096786" lon="49.1667068"><time>2025-03-23T10:56:33.423</time></trkpt><trkpt lat="55.8096321" lon="49.1667808"><time>2025-03-23T10:56:36.480</time></trkpt><trkpt lat="55.8095873" lon="49.1668283"><time>2025-03-23T10:56:39.477</time></trkpt><trkpt lat="55.8095404" lon="49.1668897"><time>2025-03-23T10:56:42.423</time></trkpt><trkpt lat="55.8094904" lon="49.1669729"><time>2025-03-23T10:56:45.487</time></trkpt><trkpt lat="55.8094471" lon="49.1670165"><time>2025-03-23T10:56:47.430</time></trkpt><trkpt lat="55.8093889" lon="49.1670768"><time>2025-03-23T10:56:50.420</time></trkpt><trkpt lat="55.8093448" lon="49.1671137"><time>2025-03-23T10:56:52.437</time></trkpt><trkpt lat="55.8092907" lon="49.1671623"><time>2025-03-23T10:56:55.490</time></trkpt><trkpt lat="55.8092510" lon="49.1672199"><time>2025-03-23T10:56:58.427</time></trkpt><trkpt lat="55.8092029" lon="49.1672828"><time>2025-03-23T10:57:01.497</time></trkpt><trkpt lat="55.8091474" lon="49.1673570"><time>2025-03-23T10:57:04.487</time></trkpt><trkpt lat="55.8091036" lon="49.1674246"><time>2025-03-23T10:57:08.427</time></trkpt><trkpt lat="55.8090651" lon="49.1674689"><time>2025-03-23T10:57:11.483</time></trkpt><trkpt lat="55.8090255" lon="49.1675197"><time>2025-03-23T10:57:14.430</time></trkpt><trkpt lat="55.8089891" lon="49.1675667"><time>2025-03-23T10:57:18.423</time></trkpt><trkpt lat="55.8089359" lon="49.1676299"><time>2025-03-23T10:57:21.423</time></trkpt><trkpt lat="55.8088930" lon="49.1676875"><time>2025-03-23T10:57:24.420</time></trkpt><trkpt lat="55.8088412" lon="49.1677792"><time>2025-03-23T10:57:27.427</time></trkpt><trkpt lat="55.8088063" lon="49.1678420"><time>2025-03-23T10:57:29.423</time></trkpt><trkpt lat="55.8087676" lon="49.1679084"><time>2025-03-23T10:57:32.420</time></trkpt><trkpt lat="55.8087256" lon="49.1679844"><time>2025-03-23T10:57:35.427</time></trkpt><trkpt lat="55.8086732" lon="49.1680496"><time>2025-03-23T10:57:38.423</time></trkpt><trkpt lat="55.8086271" lon="49.1681230"><time>2025-03-23T10:57:41.420</time></trkpt><trkpt lat="55.8085824" lon="49.1681873"><time>2025-03-23T10:57:52.420</time></trkpt><trkpt lat="55.8085448" lon="49.1682322"><time>2025-03-23T10:57:55.423</time></trkpt><trkpt lat="55.8084854" lon="49.1682610"><time>2025-03-23T10:57:59.420</time></trkpt><trkpt lat="55.8084418" lon="49.1683195"><time>2025-03-23T10:58:04.420</time></trkpt><trkpt lat="55.8083953" lon="49.1683761"><time>2025-03-23T10:58:08.417</time></trkpt><trkpt lat="55.8083537" lon="49.1684445"><time>2025-03-23T10:58:11.423</time></trkpt><trkpt lat="55.8083129" lon="49.1685103"><time>2025-03-23T10:58:13.420</time></trkpt><trkpt lat="55.8082667" lon="49.1686033"><time>2025-03-23T10:58:15.420</time></trkpt><trkpt lat="55.8082228" lon="49.1686903"><time>2025-03-23T10:58:17.420</time></trkpt><trkpt lat="55.8081730" lon="49.1687606"><time>2025-03-23T10:58:19.420</time></trkpt><trkpt lat="55.8081324" lon="49.1688019"><time>2025-03-23T10:58:21.423</time></trkpt><trkpt lat="55.8080711" lon="49.1688686"><time>2025-03-23T10:58:23.420</time></trkpt><trkpt lat="55.8080545" lon="49.1689723"><time>2025-03-23T10:58:25.420</time></trkpt><trkpt lat="55.8080524" lon="49.1690974"><time>2025-03-23T10:58:27.427</time></trkpt><trkpt lat="55.8080736" lon="49.1692100"><time>2025-03-23T10:58:29.423</time></trkpt><trkpt lat="55.8080992" lon="49.1692841"><time>2025-03-23T10:58:31.427</time></trkpt><trkpt lat="55.8081113" lon="49.1693645"><time>2025-03-23T10:58:33.427</time></trkpt><trkpt lat="55.8081357" lon="49.1694556"><time>2025-03-23T10:58:35.487</time></trkpt><trkpt lat="55.8081613" lon="49.1695302"><time>2025-03-23T10:58:38.420</time></trkpt><trkpt lat="55.8082025" lon="49.1695889"><time>2025-03-23T10:58:40.423</time></trkpt><trkpt lat="55.8082353" lon="49.1696667"><time>2025-03-23T10:58:42.427</time></trkpt><trkpt lat="55.8082653" lon="49.1697384"><time>2025-03-23T10:58:44.427</time></trkpt><trkpt lat="55.8082953" lon="49.1698126"><time>2025-03-23T10:58:46.427</time></trkpt><trkpt lat="55.8083354" lon="49.1698779"><time>2025-03-23T10:58:49.423</time></trkpt><trkpt lat="55.8083831" lon="49.1699334"><time>2025-03-23T10:58:53.423</time></trkpt><trkpt lat="55.8084229" lon="49.1700269"><time>2025-03-23T10:58:56.487</time></trkpt><trkpt lat="55.8084458" lon="49.1701031"><time>2025-03-23T10:58:58.423</time></trkpt><trkpt lat="55.8084885" lon="49.1701278"><time>2025-03-23T10:59:01.423</time></trkpt><trkpt lat="55.8085381" lon="49.1701664"><time>2025-03-23T10:59:05.423</time></trkpt><trkpt lat="55.8085801" lon="49.1701146"><time>2025-03-23T10:59:12.423</time></trkpt><trkpt lat="55.8085987" lon="49.1700231"><time>2025-03-23T10:59:16.483</time></trkpt><trkpt lat="55.8086166" lon="49.1699329"><time>2025-03-23T10:59:20.430</time></trkpt><trkpt lat="55.8086407" lon="49.1698315"><time>2025-03-23T10:59:23.423</time></trkpt><trkpt lat="55.8086587" lon="49.1697310"><time>2025-03-23T10:59:26.427</time></trkpt><trkpt lat="55.8086765" lon="49.1696309"><time>2025-03-23T10:59:29.427</time></trkpt><trkpt lat="55.8086887" lon="49.1695507"><time>2025-03-23T10:59:31.420</time></trkpt><trkpt lat="55.8086985" lon="49.1694484"><time>2025-03-23T10:59:34.427</time></trkpt><trkpt lat="55.8087141" lon="49.1693525"><time>2025-03-23T10:59:37.423</time></trkpt><trkpt lat="55.8087191" lon="49.1692720"><time>2025-03-23T10:59:39.427</time></trkpt><trkpt lat="55.8087412" lon="49.1691721"><time>2025-03-23T10:59:42.443</time></trkpt><trkpt lat="55.8087674" lon="49.1690704"><time>2025-03-23T10:59:45.490</time></trkpt><trkpt lat="55.8087911" lon="49.1689833"><time>2025-03-23T10:59:48.423</time></trkpt><trkpt lat="55.8088140" lon="49.1688798"><time>2025-03-23T10:59:51.513</time></trkpt><trkpt lat="55.8088256" lon="49.1688003"><time>2025-03-23T10:59:53.430</time></trkpt><trkpt lat="55.8088415" lon="49.1686910"><time>2025-03-23T10:59:56.493</time></trkpt><trkpt lat="55.8088615" lon="49.1686141"><time>2025-03-23T10:59:58.477</time></trkpt><trkpt lat="55.8088905" lon="49.1685124"><time>2025-03-23T11:00:01.423</time></trkpt><trkpt lat="55.8089262" lon="49.1684084"><time>2025-03-23T11:00:03.420</time></trkpt><trkpt lat="55.8089608" lon="49.1683357"><time>2025-03-23T11:00:06.430</time></trkpt><trkpt lat="55.8090123" lon="49.1683252"><time>2025-03-23T11:00:09.483</time></trkpt><trkpt lat="55.8090656" lon="49.1683266"><time>2025-03-23T11:00:11.487</time></trkpt><trkpt lat="55.8091133" lon="49.1683423"><time>2025-03-23T11:00:13.423</time></trkpt><trkpt lat="55.8091825" lon="49.1683430"><time>2025-03-23T11:00:16.427</time></trkpt><trkpt lat="55.8092546" lon="49.1683464"><time>2025-03-23T11:00:19.423</time></trkpt><trkpt lat="55.8093032" lon="49.1683387"><time>2025-03-23T11:00:21.490</time></trkpt><trkpt lat="55.8093611" lon="49.1683382"><time>2025-03-23T11:00:25.487</time></trkpt><trkpt lat="55.8094232" lon="49.1683429"><time>2025-03-23T11:00:29.490</time></trkpt><trkpt lat="55.8094744" lon="49.1683377"><time>2025-03-23T11:00:32.420</time></trkpt><trkpt lat="55.8095270" lon="49.1683357"><time>2025-03-23T11:00:36.487</time></trkpt><trkpt lat="55.8095729" lon="49.1683359"><time>2025-03-23T11:00:40.483</time></trkpt><trkpt lat="55.8096270" lon="49.1683484"><time>2025-03-23T11:00:44.457</time></trkpt><trkpt lat="55.8096878" lon="49.1683703"><time>2025-03-23T11:00:48.427</time></trkpt><trkpt lat="55.8097365" lon="49.1683685"><time>2025-03-23T11:00:51.480</time></trkpt><trkpt lat="55.8097841" lon="49.1683791"><time>2025-03-23T11:00:54.487</time></trkpt><trkpt lat="55.8098382" lon="49.1684119"><time>2025-03-23T11:00:58.427</time></trkpt><trkpt lat="55.8098852" lon="49.1684239"><time>2025-03-23T11:01:01.487</time></trkpt><trkpt lat="55.8099383" lon="49.1684562"><time>2025-03-23T11:01:04.487</time></trkpt><trkpt lat="55.8099995" lon="49.1684796"><time>2025-03-23T11:01:07.423</time></trkpt><trkpt lat="55.8100574" lon="49.1684939"><time>2025-03-23T11:01:10.487</time></trkpt><trkpt lat="55.8101049" lon="49.1685019"><time>2025-03-23T11:01:13.427</time></trkpt><trkpt lat="55.8101536" lon="49.1684859"><time>2025-03-23T11:01:16.490</time></trkpt><trkpt lat="55.8102014" lon="49.1684753"><time>2025-03-23T11:01:19.487</time></trkpt><trkpt lat="55.8102481" lon="49.1684400"><time>2025-03-23T11:01:22.437</time></trkpt><trkpt lat="55.8102824" lon="49.1683865"><time>2025-03-23T11:01:25.427</time></trkpt><trkpt lat="55.8103137" lon="49.1683236"><time>2025-03-23T11:01:28.413</time></trkpt><trkpt lat="55.8103489" lon="49.1682422"><time>2025-03-23T11:01:32.417</time></trkpt><trkpt lat="55.8103846" lon="49.1681881"><time>2025-03-23T11:01:35.427</time></trkpt><trkpt lat="55.8104341" lon="49.1681570"><time>2025-03-23T11:01:39.420</time></trkpt><trkpt lat="55.8104837" lon="49.1681416"><time>2025-03-23T11:01:43.420</time></trkpt><trkpt lat="55.8104593" lon="49.1682117"><time>2025-03-23T11:01:46.417</time></trkpt><trkpt lat="55.8104345" lon="49.1682079"><time>2025-03-23T11:02:01.393</time></trkpt><trkpt lat="55.8104138" lon="49.1681780"><time>2025-03-23T11:02:06.427</time></trkpt><trkpt lat="55.8103703" lon="49.1682343"><time>2025-03-23T11:02:10.483</time></trkpt><trkpt lat="55.8103366" lon="49.1682898"><time>2025-03-23T11:02:13.483</time></trkpt><trkpt lat="55.8103217" lon="49.1683774"><time>2025-03-23T11:02:17.427</time></trkpt><trkpt lat="55.8102978" lon="49.1684458"><time>2025-03-23T11:02:21.487</time></trkpt><trkpt lat="55.8102470" lon="49.1684914"><time>2025-03-23T11:02:26.423</time></trkpt><trkpt lat="55.8101901" lon="49.1684718"><time>2025-03-23T11:02:47.430</time></trkpt><trkpt lat="55.8101368" lon="49.1684941"><time>2025-03-23T11:02:51.487</time></trkpt><trkpt lat="55.8100916" lon="49.1684984"><time>2025-03-23T11:02:54.490</time></trkpt><trkpt lat="55.8100473" lon="49.1684614"><time>2025-03-23T11:02:58.433</time></trkpt><trkpt lat="55.8099983" lon="49.1684309"><time>2025-03-23T11:03:03.420</time></trkpt><trkpt lat="55.8100456" lon="49.1684328"><time>2025-03-23T11:03:06.487</time></trkpt><trkpt lat="55.8099953" lon="49.1684333"><time>2025-03-23T11:03:22.427</time></trkpt><trkpt lat="55.8099530" lon="49.1683976"><time>2025-03-23T11:03:26.480</time></trkpt><trkpt lat="55.8098959" lon="49.1683738"><time>2025-03-23T11:03:30.480</time></trkpt><trkpt lat="55.8098411" lon="49.1683699"><time>2025-03-23T11:03:34.470</time></trkpt><trkpt lat="55.8097886" lon="49.1683609"><time>2025-03-23T11:03:38.427</time></trkpt><trkpt lat="55.8097436" lon="49.1683287"><time>2025-03-23T11:04:16.420</time></trkpt><trkpt lat="55.8096978" lon="49.1683133"><time>2025-03-23T11:04:19.483</time></trkpt><trkpt lat="55.8096364" lon="49.1682917"><time>2025-03-23T11:04:23.427</time></trkpt><trkpt lat="55.8095896" lon="49.1682957"><time>2025-03-23T11:04:26.480</time></trkpt><trkpt lat="55.8095331" lon="49.1683011"><time>2025-03-23T11:04:30.487</time></trkpt><trkpt lat="55.8094825" lon="49.1682908"><time>2025-03-23T11:04:33.427</time></trkpt><trkpt lat="55.8094318" lon="49.1682565"><time>2025-03-23T11:04:36.487</time></trkpt><trkpt lat="55.8093842" lon="49.1682534"><time>2025-03-23T11:04:39.487</time></trkpt><trkpt lat="55.8093252" lon="49.1682371"><time>2025-03-23T11:04:41.487</time></trkpt><trkpt lat="55.8092663" lon="49.1682221"><time>2025-03-23T11:04:43.427</time></trkpt><trkpt lat="55.8092012" lon="49.1682181"><time>2025-03-23T11:04:45.427</time></trkpt><trkpt lat="55.8091348" lon="49.1682070"><time>2025-03-23T11:04:48.420</time></trkpt><trkpt lat="55.8090765" lon="49.1682047"><time>2025-03-23T11:04:50.470</time></trkpt><trkpt lat="55.8090207" lon="49.1682010"><time>2025-03-23T11:04:52.427</time></trkpt><trkpt lat="55.8089611" lon="49.1681894"><time>2025-03-23T11:04:55.430</time></trkpt><trkpt lat="55.8089059" lon="49.1681707"><time>2025-03-23T11:04:58.427</time></trkpt><trkpt lat="55.8088589" lon="49.1681633"><time>2025-03-23T11:05:01.427</time></trkpt><trkpt lat="55.8087969" lon="49.1681550"><time>2025-03-23T11:05:05.427</time></trkpt><trkpt lat="55.8087621" lon="49.1682061"><time>2025-03-23T11:05:08.430</time></trkpt><trkpt lat="55.8087963" lon="49.1682943"><time>2025-03-23T11:05:11.490</time></trkpt><trkpt lat="55.8087951" lon="49.1683744"><time>2025-03-23T11:05:17.430</time></trkpt><trkpt lat="55.8087691" lon="49.1684396"><time>2025-03-23T11:05:20.483</time></trkpt><trkpt lat="55.8087519" lon="49.1686131"><time>2025-03-23T11:05:22.423</time></trkpt><trkpt lat="55.8087310" lon="49.1687130"><time>2025-03-23T11:05:24.420</time></trkpt><trkpt lat="55.8087223" lon="49.1687930"><time>2025-03-23T11:05:26.423</time></trkpt><trkpt lat="55.8087171" lon="49.1688982"><time>2025-03-23T11:05:29.487</time></trkpt><trkpt lat="55.8087030" lon="49.1689802"><time>2025-03-23T11:05:31.487</time></trkpt><trkpt lat="55.8086830" lon="49.1690550"><time>2025-03-23T11:05:33.427</time></trkpt><trkpt lat="55.8086575" lon="49.1692152"><time>2025-03-23T11:05:35.417</time></trkpt><trkpt lat="55.8086543" lon="49.1693424"><time>2025-03-23T11:05:36.423</time></trkpt><trkpt lat="55.8086505" lon="49.1694225"><time>2025-03-23T11:05:37.427</time></trkpt><trkpt lat="55.8086299" lon="49.1696597"><time>2025-03-23T11:05:39.420</time></trkpt><trkpt lat="55.8086093" lon="49.1697984"><time>2025-03-23T11:05:40.443</time></trkpt><trkpt lat="55.8085893" lon="49.1698795"><time>2025-03-23T11:05:42.427</time></trkpt><trkpt lat="55.8085698" lon="49.1699597"><time>2025-03-23T11:05:46.427</time></trkpt><trkpt lat="55.8085629" lon="49.1700550"><time>2025-03-23T11:05:49.430</time></trkpt><trkpt lat="55.8085707" lon="49.1701397"><time>2025-03-23T11:05:51.423</time></trkpt><trkpt lat="55.8086017" lon="49.1702180"><time>2025-03-23T11:05:53.427</time></trkpt><trkpt lat="55.8086448" lon="49.1702513"><time>2025-03-23T11:05:55.430</time></trkpt><trkpt lat="55.8086891" lon="49.1703107"><time>2025-03-23T11:05:57.423</time></trkpt><trkpt lat="55.8087337" lon="49.1703605"><time>2025-03-23T11:05:59.420</time></trkpt><trkpt lat="55.8087931" lon="49.1703957"><time>2025-03-23T11:06:01.427</time></trkpt><trkpt lat="55.8088528" lon="49.1704299"><time>2025-03-23T11:06:03.423</time></trkpt><trkpt lat="55.8089146" lon="49.1704737"><time>2025-03-23T11:06:06.427</time></trkpt><trkpt lat="55.8089672" lon="49.1705122"><time>2025-03-23T11:06:08.427</time></trkpt><trkpt lat="55.8090178" lon="49.1705470"><time>2025-03-23T11:06:10.427</time></trkpt><trkpt lat="55.8090787" lon="49.1705948"><time>2025-03-23T11:06:12.427</time></trkpt><trkpt lat="55.8091405" lon="49.1706425"><time>2025-03-23T11:06:14.427</time></trkpt><trkpt lat="55.8091920" lon="49.1706907"><time>2025-03-23T11:06:16.427</time></trkpt><trkpt lat="55.8092371" lon="49.1707164"><time>2025-03-23T11:06:18.430</time></trkpt><trkpt lat="55.8092803" lon="49.1707442"><time>2025-03-23T11:06:23.433</time></trkpt><trkpt lat="55.8093345" lon="49.1707298"><time>2025-03-23T11:06:30.490</time></trkpt><trkpt lat="55.8093871" lon="49.1707415"><time>2025-03-23T11:06:33.433</time></trkpt><trkpt lat="55.8094506" lon="49.1707665"><time>2025-03-23T11:06:36.490</time></trkpt><trkpt lat="55.8094982" lon="49.1707831"><time>2025-03-23T11:06:38.487</time></trkpt><trkpt lat="55.8095702" lon="49.1707567"><time>2025-03-23T11:06:59.423</time></trkpt><trkpt lat="55.8096196" lon="49.1707334"><time>2025-03-23T11:07:02.430</time></trkpt><trkpt lat="55.8096292" lon="49.1706460"><time>2025-03-23T11:07:07.433</time></trkpt><trkpt lat="55.8096782" lon="49.1706283"><time>2025-03-23T11:07:15.423</time></trkpt><trkpt lat="55.8097227" lon="49.1705924"><time>2025-03-23T11:07:19.477</time></trkpt><trkpt lat="55.8097663" lon="49.1705589"><time>2025-03-23T11:07:21.483</time></trkpt><trkpt lat="55.8098281" lon="49.1705042"><time>2025-03-23T11:07:23.427</time></trkpt><trkpt lat="55.8098960" lon="49.1704415"><time>2025-03-23T11:07:25.493</time></trkpt><trkpt lat="55.8099640" lon="49.1703846"><time>2025-03-23T11:07:27.423</time></trkpt><trkpt lat="55.8100307" lon="49.1703190"><time>2025-03-23T11:07:29.503</time></trkpt><trkpt lat="55.8100870" lon="49.1702435"><time>2025-03-23T11:07:31.427</time></trkpt><trkpt lat="55.8101409" lon="49.1701573"><time>2025-03-23T11:07:33.433</time></trkpt><trkpt lat="55.8101827" lon="49.1701091"><time>2025-03-23T11:07:35.430</time></trkpt><trkpt lat="55.8102333" lon="49.1700250"><time>2025-03-23T11:07:37.433</time></trkpt><trkpt lat="55.8102711" lon="49.1699567"><time>2025-03-23T11:07:38.427</time></trkpt><trkpt lat="55.8103208" lon="49.1698566"><time>2025-03-23T11:07:40.423</time></trkpt><trkpt lat="55.8103651" lon="49.1698276"><time>2025-03-23T11:07:42.427</time></trkpt><trkpt lat="55.8104188" lon="49.1698052"><time>2025-03-23T11:07:45.480</time></trkpt><trkpt lat="55.8104873" lon="49.1697869"><time>2025-03-23T11:07:48.423</time></trkpt><trkpt lat="55.8105500" lon="49.1697897"><time>2025-03-23T11:07:50.487</time></trkpt><trkpt lat="55.8106133" lon="49.1698130"><time>2025-03-23T11:07:52.433</time></trkpt><trkpt lat="55.8106623" lon="49.1698401"><time>2025-03-23T11:07:54.493</time></trkpt><trkpt lat="55.8107101" lon="49.1698567"><time>2025-03-23T11:07:56.493</time></trkpt><trkpt lat="55.8107623" lon="49.1698682"><time>2025-03-23T11:07:58.430</time></trkpt><trkpt lat="55.8108161" lon="49.1698723"><time>2025-03-23T11:08:00.420</time></trkpt><trkpt lat="55.8108686" lon="49.1698763"><time>2025-03-23T11:08:02.430</time></trkpt><trkpt lat="55.8109208" lon="49.1698863"><time>2025-03-23T11:08:04.483</time></trkpt><trkpt lat="55.8109757" lon="49.1698911"><time>2025-03-23T11:08:06.490</time></trkpt><trkpt lat="55.8110292" lon="49.1698829"><time>2025-03-23T11:08:08.427</time></trkpt><trkpt lat="55.8110809" lon="49.1698745"><time>2025-03-23T11:08:11.487</time></trkpt><trkpt lat="55.8111261" lon="49.1698655"><time>2025-03-23T11:08:14.487</time></trkpt><trkpt lat="55.8111725" lon="49.1698715"><time>2025-03-23T11:08:17.427</time></trkpt><trkpt lat="55.8112195" lon="49.1698805"><time>2025-03-23T11:08:20.483</time></trkpt><trkpt lat="55.8112712" lon="49.1698908"><time>2025-03-23T11:08:23.420</time></trkpt><trkpt lat="55.8113253" lon="49.1699094"><time>2025-03-23T11:08:26.470</time></trkpt><trkpt lat="55.8113952" lon="49.1699543"><time>2025-03-23T11:08:29.493</time></trkpt><trkpt lat="55.8114590" lon="49.1699980"><time>2025-03-23T11:08:31.487</time></trkpt><trkpt lat="55.8115160" lon="49.1700625"><time>2025-03-23T11:08:33.427</time></trkpt><trkpt lat="55.8115682" lon="49.1701214"><time>2025-03-23T11:08:35.483</time></trkpt><trkpt lat="55.8116113" lon="49.1701828"><time>2025-03-23T11:08:37.430</time></trkpt><trkpt lat="55.8116506" lon="49.1702450"><time>2025-03-23T11:08:39.487</time></trkpt><trkpt lat="55.8116833" lon="49.1703081"><time>2025-03-23T11:08:41.487</time></trkpt><trkpt lat="55.8117139" lon="49.1703776"><time>2025-03-23T11:08:44.493</time></trkpt><trkpt lat="55.8117558" lon="49.1704385"><time>2025-03-23T11:08:46.490</time></trkpt><trkpt lat="55.8118147" lon="49.1704973"><time>2025-03-23T11:08:48.427</time></trkpt><trkpt lat="55.8118803" lon="49.1705529"><time>2025-03-23T11:08:50.483</time></trkpt><trkpt lat="55.8119342" lon="49.1706016"><time>2025-03-23T11:08:52.427</time></trkpt><trkpt lat="55.8119818" lon="49.1706503"><time>2025-03-23T11:08:54.487</time></trkpt><trkpt lat="55.8120352" lon="49.1707017"><time>2025-03-23T11:08:56.493</time></trkpt><trkpt lat="55.8120827" lon="49.1707534"><time>2025-03-23T11:08:58.427</time></trkpt><trkpt lat="55.8121295" lon="49.1708053"><time>2025-03-23T11:09:00.497</time></trkpt><trkpt lat="55.8121742" lon="49.1708518"><time>2025-03-23T11:09:02.433</time></trkpt><trkpt lat="55.8122216" lon="49.1709012"><time>2025-03-23T11:09:04.490</time></trkpt><trkpt lat="55.8122740" lon="49.1709407"><time>2025-03-23T11:09:06.490</time></trkpt><trkpt lat="55.8123242" lon="49.1709744"><time>2025-03-23T11:09:08.507</time></trkpt><trkpt lat="55.8123743" lon="49.1710085"><time>2025-03-23T11:09:10.423</time></trkpt><trkpt lat="55.8124324" lon="49.1710353"><time>2025-03-23T11:09:13.423</time></trkpt><trkpt lat="55.8124789" lon="49.1710485"><time>2025-03-23T11:09:16.420</time></trkpt><trkpt lat="55.8125371" lon="49.1710560"><time>2025-03-23T11:09:19.427</time></trkpt><trkpt lat="55.8125911" lon="49.1710628"><time>2025-03-23T11:09:22.430</time></trkpt><trkpt lat="55.8126425" lon="49.1710705"><time>2025-03-23T11:09:25.420</time></trkpt><trkpt lat="55.8126888" lon="49.1710783"><time>2025-03-23T11:09:28.423</time></trkpt><trkpt lat="55.8127427" lon="49.1710575"><time>2025-03-23T11:09:32.423</time></trkpt><trkpt lat="55.8127984" lon="49.1710172"><time>2025-03-23T11:09:36.423</time></trkpt><trkpt lat="55.8128458" lon="49.1710116"><time>2025-03-23T11:09:39.427</time></trkpt><trkpt lat="55.8128933" lon="49.1710183"><time>2025-03-23T11:09:42.427</time></trkpt><trkpt lat="55.8129425" lon="49.1710142"><time>2025-03-23T11:09:45.487</time></trkpt><trkpt lat="55.8130017" lon="49.1710122"><time>2025-03-23T11:09:49.483</time></trkpt><trkpt lat="55.8130510" lon="49.1709998"><time>2025-03-23T11:09:52.430</time></trkpt><trkpt lat="55.8130991" lon="49.1709959"><time>2025-03-23T11:09:55.420</time></trkpt><trkpt lat="55.8131454" lon="49.1709803"><time>2025-03-23T11:09:58.483</time></trkpt><trkpt lat="55.8131922" lon="49.1709575"><time>2025-03-23T11:10:01.503</time></trkpt><trkpt lat="55.8132399" lon="49.1709325"><time>2025-03-23T11:10:04.467</time></trkpt><trkpt lat="55.8132881" lon="49.1709176"><time>2025-03-23T11:10:07.433</time></trkpt><trkpt lat="55.8133327" lon="49.1708949"><time>2025-03-23T11:10:10.483</time></trkpt><trkpt lat="55.8133944" lon="49.1708765"><time>2025-03-23T11:10:13.423</time></trkpt><trkpt lat="55.8134469" lon="49.1708061"><time>2025-03-23T11:10:15.430</time></trkpt><trkpt lat="55.8134950" lon="49.1707450"><time>2025-03-23T11:10:17.423</time></trkpt><trkpt lat="55.8135444" lon="49.1706912"><time>2025-03-23T11:10:19.503</time></trkpt><trkpt lat="55.8135938" lon="49.1706336"><time>2025-03-23T11:10:21.487</time></trkpt><trkpt lat="55.8136458" lon="49.1705773"><time>2025-03-23T11:10:23.427</time></trkpt><trkpt lat="55.8136987" lon="49.1705232"><time>2025-03-23T11:10:25.490</time></trkpt><trkpt lat="55.8137475" lon="49.1704838"><time>2025-03-23T11:10:27.430</time></trkpt><trkpt lat="55.8137982" lon="49.1704543"><time>2025-03-23T11:10:29.430</time></trkpt><trkpt lat="55.8138546" lon="49.1704149"><time>2025-03-23T11:10:31.487</time></trkpt><trkpt lat="55.8139004" lon="49.1703896"><time>2025-03-23T11:10:33.420</time></trkpt><trkpt lat="55.8139549" lon="49.1703588"><time>2025-03-23T11:10:36.480</time></trkpt><trkpt lat="55.8140049" lon="49.1703290"><time>2025-03-23T11:10:39.483</time></trkpt><trkpt lat="55.8140601" lon="49.1703098"><time>2025-03-23T11:10:42.427</time></trkpt><trkpt lat="55.8141047" lon="49.1702920"><time>2025-03-23T11:10:44.487</time></trkpt><trkpt lat="55.8141631" lon="49.1702345"><time>2025-03-23T11:10:46.470</time></trkpt><trkpt lat="55.8142270" lon="49.1701984"><time>2025-03-23T11:10:48.483</time></trkpt><trkpt lat="55.8142803" lon="49.1701881"><time>2025-03-23T11:10:50.487</time></trkpt><trkpt lat="55.8143286" lon="49.1701686"><time>2025-03-23T11:10:52.430</time></trkpt><trkpt lat="55.8143971" lon="49.1701343"><time>2025-03-23T11:10:54.480</time></trkpt><trkpt lat="55.8144660" lon="49.1700776"><time>2025-03-23T11:10:56.423</time></trkpt><trkpt lat="55.8145279" lon="49.1700251"><time>2025-03-23T11:10:58.430</time></trkpt><trkpt lat="55.8145798" lon="49.1699860"><time>2025-03-23T11:11:00.487</time></trkpt><trkpt lat="55.8146357" lon="49.1699296"><time>2025-03-23T11:11:02.427</time></trkpt><trkpt lat="55.8146920" lon="49.1699012"><time>2025-03-23T11:11:04.487</time></trkpt><trkpt lat="55.8147465" lon="49.1698689"><time>2025-03-23T11:11:06.477</time></trkpt><trkpt lat="55.8148037" lon="49.1698239"><time>2025-03-23T11:11:08.423</time></trkpt><trkpt lat="55.8148666" lon="49.1697776"><time>2025-03-23T11:11:10.483</time></trkpt><trkpt lat="55.8149137" lon="49.1697234"><time>2025-03-23T11:11:12.423</time></trkpt><trkpt lat="55.8149674" lon="49.1696643"><time>2025-03-23T11:11:14.493</time></trkpt><trkpt lat="55.8150193" lon="49.1696135"><time>2025-03-23T11:11:17.427</time></trkpt><trkpt lat="55.8150739" lon="49.1695732"><time>2025-03-23T11:11:21.493</time></trkpt><trkpt lat="55.8151197" lon="49.1695217"><time>2025-03-23T11:11:25.467</time></trkpt><trkpt lat="55.8151648" lon="49.1695023"><time>2025-03-23T11:11:29.427</time></trkpt><trkpt lat="55.8152028" lon="49.1694395"><time>2025-03-23T11:11:34.430</time></trkpt><trkpt lat="55.8152491" lon="49.1693947"><time>2025-03-23T11:11:39.427</time></trkpt><trkpt lat="55.8152657" lon="49.1693146"><time>2025-03-23T11:11:43.427</time></trkpt><trkpt lat="55.8153206" lon="49.1693082"><time>2025-03-23T11:11:47.430</time></trkpt><trkpt lat="55.8153786" lon="49.1692857"><time>2025-03-23T11:11:50.490</time></trkpt><trkpt lat="55.8154181" lon="49.1692403"><time>2025-03-23T11:11:52.427</time></trkpt><trkpt lat="55.8154498" lon="49.1691820"><time>2025-03-23T11:11:54.490</time></trkpt><trkpt lat="55.8154834" lon="49.1691149"><time>2025-03-23T11:11:56.503</time></trkpt><trkpt lat="55.8155257" lon="49.1690523"><time>2025-03-23T11:11:59.507</time></trkpt><trkpt lat="55.8155574" lon="49.1689901"><time>2025-03-23T11:12:02.427</time></trkpt><trkpt lat="55.8155984" lon="49.1689324"><time>2025-03-23T11:12:05.423</time></trkpt><trkpt lat="55.8156615" lon="49.1688812"><time>2025-03-23T11:12:08.487</time></trkpt><trkpt lat="55.8157206" lon="49.1688288"><time>2025-03-23T11:12:10.437</time></trkpt><trkpt lat="55.8157788" lon="49.1687611"><time>2025-03-23T11:12:12.430</time></trkpt><trkpt lat="55.8158134" lon="49.1687052"><time>2025-03-23T11:12:13.430</time></trkpt><trkpt lat="55.8158518" lon="49.1686171"><time>2025-03-23T11:12:14.427</time></trkpt><trkpt lat="55.8158908" lon="49.1685187"><time>2025-03-23T11:12:15.430</time></trkpt><trkpt lat="55.8159274" lon="49.1684477"><time>2025-03-23T11:12:16.423</time></trkpt><trkpt lat="55.8159675" lon="49.1683750"><time>2025-03-23T11:12:17.433</time></trkpt><trkpt lat="55.8160084" lon="49.1682999"><time>2025-03-23T11:12:18.427</time></trkpt><trkpt lat="55.8160582" lon="49.1682760"><time>2025-03-23T11:12:20.427</time></trkpt><trkpt lat="55.8161038" lon="49.1682240"><time>2025-03-23T11:12:22.430</time></trkpt><trkpt lat="55.8161415" lon="49.1681698"><time>2025-03-23T11:12:25.500</time></trkpt><trkpt lat="55.8161952" lon="49.1681416"><time>2025-03-23T11:12:29.503</time></trkpt><trkpt lat="55.8162409" lon="49.1680814"><time>2025-03-23T11:12:34.490</time></trkpt><trkpt lat="55.8162769" lon="49.1680210"><time>2025-03-23T11:12:37.430</time></trkpt><trkpt lat="55.8163249" lon="49.1680069"><time>2025-03-23T11:12:40.490</time></trkpt><trkpt lat="55.8163713" lon="49.1680107"><time>2025-03-23T11:12:51.493</time></trkpt><trkpt lat="55.8164160" lon="49.1679764"><time>2025-03-23T11:12:53.500</time></trkpt><trkpt lat="55.8164656" lon="49.1679584"><time>2025-03-23T11:12:55.487</time></trkpt><trkpt lat="55.8165225" lon="49.1679324"><time>2025-03-23T11:12:57.433</time></trkpt><trkpt lat="55.8165793" lon="49.1679124"><time>2025-03-23T11:12:59.433</time></trkpt><trkpt lat="55.8166331" lon="49.1678813"><time>2025-03-23T11:13:01.493</time></trkpt><trkpt lat="55.8166794" lon="49.1678702"><time>2025-03-23T11:13:03.430</time></trkpt><trkpt lat="55.8167276" lon="49.1678656"><time>2025-03-23T11:13:05.490</time></trkpt><trkpt lat="55.8167777" lon="49.1679019"><time>2025-03-23T11:13:07.427</time></trkpt><trkpt lat="55.8168242" lon="49.1679079"><time>2025-03-23T11:13:09.427</time></trkpt><trkpt lat="55.8168711" lon="49.1678878"><time>2025-03-23T11:13:12.427</time></trkpt><trkpt lat="55.8169348" lon="49.1678719"><time>2025-03-23T11:13:15.430</time></trkpt><trkpt lat="55.8169922" lon="49.1678876"><time>2025-03-23T11:13:18.433</time></trkpt><trkpt lat="55.8170518" lon="49.1678866"><time>2025-03-23T11:13:20.480</time></trkpt><trkpt lat="55.8170992" lon="49.1678972"><time>2025-03-23T11:13:22.430</time></trkpt><trkpt lat="55.8171081" lon="49.1679999"><time>2025-03-23T11:13:36.497</time></trkpt><trkpt lat="55.8171166" lon="49.1681199"><time>2025-03-23T11:13:39.487</time></trkpt><trkpt lat="55.8171230" lon="49.1682219"><time>2025-03-23T11:13:42.427</time></trkpt><trkpt lat="55.8171165" lon="49.1683075"><time>2025-03-23T11:13:46.487</time></trkpt><trkpt lat="55.8171137" lon="49.1684111"><time>2025-03-23T11:13:50.510</time></trkpt><trkpt lat="55.8171081" lon="49.1685078"><time>2025-03-23T11:13:54.493</time></trkpt><trkpt lat="55.8171007" lon="49.1686055"><time>2025-03-23T11:13:58.427</time></trkpt><trkpt lat="55.8171036" lon="49.1686940"><time>2025-03-23T11:14:01.513</time></trkpt><trkpt lat="55.8171016" lon="49.1687959"><time>2025-03-23T11:14:05.497</time></trkpt><trkpt lat="55.8171007" lon="49.1689004"><time>2025-03-23T11:14:09.493</time></trkpt><trkpt lat="55.8170928" lon="49.1690012"><time>2025-03-23T11:14:12.433</time></trkpt><trkpt lat="55.8170844" lon="49.1690983"><time>2025-03-23T11:14:16.427</time></trkpt><trkpt lat="55.8170878" lon="49.1691832"><time>2025-03-23T11:14:21.487</time></trkpt><trkpt lat="55.8170413" lon="49.1691677"><time>2025-03-23T11:14:25.427</time></trkpt><trkpt lat="55.8169933" lon="49.1691351"><time>2025-03-23T11:14:29.817</time></trkpt><trkpt lat="55.8169720" lon="49.1691134"><time>2025-03-23T11:14:31.927</time></trkpt><trkpt lat="55.8170371" lon="49.1691127"><time>2025-03-23T11:14:40.483</time></trkpt><trkpt lat="55.8170852" lon="49.1690934"><time>2025-03-23T11:14:44.430</time></trkpt><trkpt lat="55.8170985" lon="49.1690090"><time>2025-03-23T11:14:46.497</time></trkpt><trkpt lat="55.8171045" lon="49.1689072"><time>2025-03-23T11:14:49.487</time></trkpt><trkpt lat="55.8171085" lon="49.1688266"><time>2025-03-23T11:14:51.487</time></trkpt><trkpt lat="55.8171087" lon="49.1687301"><time>2025-03-23T11:14:54.487</time></trkpt><trkpt lat="55.8171048" lon="49.1686387"><time>2025-03-23T11:14:57.440</time></trkpt><trkpt lat="55.8171029" lon="49.1685408"><time>2025-03-23T11:14:59.480</time></trkpt><trkpt lat="55.8171093" lon="49.1684580"><time>2025-03-23T11:15:01.483</time></trkpt><trkpt lat="55.8171168" lon="49.1683690"><time>2025-03-23T11:15:03.433</time></trkpt><trkpt lat="55.8171229" lon="49.1682621"><time>2025-03-23T11:15:06.487</time></trkpt><trkpt lat="55.8171225" lon="49.1681311"><time>2025-03-23T11:15:09.487</time></trkpt><trkpt lat="55.8171287" lon="49.1680251"><time>2025-03-23T11:15:11.427</time></trkpt><trkpt lat="55.8171359" lon="49.1679296"><time>2025-03-23T11:15:13.433</time></trkpt><trkpt lat="55.8170808" lon="49.1678817"><time>2025-03-23T11:15:18.427</time></trkpt><trkpt lat="55.8170311" lon="49.1678506"><time>2025-03-23T11:15:21.430</time></trkpt><trkpt lat="55.8169649" lon="49.1678601"><time>2025-03-23T11:15:24.427</time></trkpt><trkpt lat="55.8169032" lon="49.1678669"><time>2025-03-23T11:15:27.430</time></trkpt><trkpt lat="55.8168490" lon="49.1678819"><time>2025-03-23T11:15:30.483</time></trkpt><trkpt lat="55.8167830" lon="49.1678623"><time>2025-03-23T11:15:32.430</time></trkpt><trkpt lat="55.8167252" lon="49.1678821"><time>2025-03-23T11:15:34.490</time></trkpt><trkpt lat="55.8166625" lon="49.1679227"><time>2025-03-23T11:15:36.490</time></trkpt><trkpt lat="55.8165969" lon="49.1679353"><time>2025-03-23T11:15:38.427</time></trkpt><trkpt lat="55.8165270" lon="49.1679492"><time>2025-03-23T11:15:40.427</time></trkpt><trkpt lat="55.8164392" lon="49.1679726"><time>2025-03-23T11:15:42.430</time></trkpt><trkpt lat="55.8163689" lon="49.1680063"><time>2025-03-23T11:15:44.497</time></trkpt><trkpt lat="55.8163169" lon="49.1680330"><time>2025-03-23T11:15:46.490</time></trkpt><trkpt lat="55.8162663" lon="49.1680899"><time>2025-03-23T11:15:49.490</time></trkpt><trkpt lat="55.8162279" lon="49.1681533"><time>2025-03-23T11:15:51.487</time></trkpt><trkpt lat="55.8161850" lon="49.1682190"><time>2025-03-23T11:15:54.487</time></trkpt><trkpt lat="55.8161545" lon="49.1682870"><time>2025-03-23T11:15:56.487</time></trkpt><trkpt lat="55.8161061" lon="49.1683600"><time>2025-03-23T11:15:58.430</time></trkpt><trkpt lat="55.8160475" lon="49.1684214"><time>2025-03-23T11:16:00.490</time></trkpt><trkpt lat="55.8159922" lon="49.1684646"><time>2025-03-23T11:16:02.433</time></trkpt><trkpt lat="55.8159371" lon="49.1684975"><time>2025-03-23T11:16:04.487</time></trkpt><trkpt lat="55.8158918" lon="49.1685613"><time>2025-03-23T11:16:06.493</time></trkpt><trkpt lat="55.8158430" lon="49.1686336"><time>2025-03-23T11:16:08.437</time></trkpt><trkpt lat="55.8157912" lon="49.1686877"><time>2025-03-23T11:16:10.483</time></trkpt><trkpt lat="55.8157403" lon="49.1687354"><time>2025-03-23T11:16:12.427</time></trkpt><trkpt lat="55.8156909" lon="49.1687786"><time>2025-03-23T11:16:14.500</time></trkpt><trkpt lat="55.8156381" lon="49.1688296"><time>2025-03-23T11:16:16.423</time></trkpt><trkpt lat="55.8155972" lon="49.1688993"><time>2025-03-23T11:16:18.487</time></trkpt><trkpt lat="55.8155652" lon="49.1689650"><time>2025-03-23T11:16:20.490</time></trkpt><trkpt lat="55.8155218" lon="49.1690303"><time>2025-03-23T11:16:22.437</time></trkpt><trkpt lat="55.8154684" lon="49.1690937"><time>2025-03-23T11:16:24.493</time></trkpt><trkpt lat="55.8154253" lon="49.1691318"><time>2025-03-23T11:16:26.490</time></trkpt><trkpt lat="55.8153795" lon="49.1691665"><time>2025-03-23T11:16:28.430</time></trkpt><trkpt lat="55.8153356" lon="49.1692287"><time>2025-03-23T11:16:30.497</time></trkpt><trkpt lat="55.8152833" lon="49.1692573"><time>2025-03-23T11:16:32.430</time></trkpt><trkpt lat="55.8152343" lon="49.1692696"><time>2025-03-23T11:16:34.493</time></trkpt><trkpt lat="55.8151937" lon="49.1693088"><time>2025-03-23T11:16:37.433</time></trkpt><trkpt lat="55.8151733" lon="49.1694021"><time>2025-03-23T11:16:41.463</time></trkpt><trkpt lat="55.8151456" lon="49.1694821"><time>2025-03-23T11:16:44.433</time></trkpt><trkpt lat="55.8151203" lon="49.1695772"><time>2025-03-23T11:16:49.427</time></trkpt><trkpt lat="55.8150807" lon="49.1696310"><time>2025-03-23T11:16:54.493</time></trkpt><trkpt lat="55.8150388" lon="49.1696701"><time>2025-03-23T11:16:58.430</time></trkpt><trkpt lat="55.8149868" lon="49.1697141"><time>2025-03-23T11:17:02.430</time></trkpt><trkpt lat="55.8149272" lon="49.1697537"><time>2025-03-23T11:17:05.490</time></trkpt><trkpt lat="55.8148749" lon="49.1697869"><time>2025-03-23T11:17:08.430</time></trkpt><trkpt lat="55.8148048" lon="49.1698211"><time>2025-03-23T11:17:11.490</time></trkpt><trkpt lat="55.8147546" lon="49.1698565"><time>2025-03-23T11:17:13.430</time></trkpt><trkpt lat="55.8146904" lon="49.1699117"><time>2025-03-23T11:17:15.427</time></trkpt><trkpt lat="55.8146473" lon="49.1699416"><time>2025-03-23T11:17:16.483</time></trkpt><trkpt lat="55.8145728" lon="49.1699931"><time>2025-03-23T11:17:18.427</time></trkpt><trkpt lat="55.8145145" lon="49.1700346"><time>2025-03-23T11:17:20.497</time></trkpt><trkpt lat="55.8144566" lon="49.1700760"><time>2025-03-23T11:17:22.430</time></trkpt><trkpt lat="55.8144053" lon="49.1701011"><time>2025-03-23T11:17:24.510</time></trkpt><trkpt lat="55.8143575" lon="49.1701203"><time>2025-03-23T11:17:26.487</time></trkpt><trkpt lat="55.8142932" lon="49.1701423"><time>2025-03-23T11:17:29.483</time></trkpt><trkpt lat="55.8142374" lon="49.1701765"><time>2025-03-23T11:17:31.497</time></trkpt><trkpt lat="55.8141869" lon="49.1702415"><time>2025-03-23T11:17:33.427</time></trkpt><trkpt lat="55.8141451" lon="49.1703125"><time>2025-03-23T11:17:35.490</time></trkpt><trkpt lat="55.8141261" lon="49.1704088"><time>2025-03-23T11:17:37.430</time></trkpt><trkpt lat="55.8141327" lon="49.1705001"><time>2025-03-23T11:17:39.483</time></trkpt><trkpt lat="55.8141584" lon="49.1705718"><time>2025-03-23T11:17:41.490</time></trkpt><trkpt lat="55.8141984" lon="49.1706664"><time>2025-03-23T11:17:44.487</time></trkpt><trkpt lat="55.8142356" lon="49.1707379"><time>2025-03-23T11:17:47.427</time></trkpt><trkpt lat="55.8142535" lon="49.1708187"><time>2025-03-23T11:17:51.497</time></trkpt><trkpt lat="55.8142682" lon="49.1709148"><time>2025-03-23T11:17:55.493</time></trkpt><trkpt lat="55.8142784" lon="49.1709972"><time>2025-03-23T11:17:58.427</time></trkpt><trkpt lat="55.8143001" lon="49.1710908"><time>2025-03-23T11:18:02.433</time></trkpt><trkpt lat="55.8143234" lon="49.1711799"><time>2025-03-23T11:18:06.483</time></trkpt><trkpt lat="55.8143371" lon="49.1712809"><time>2025-03-23T11:18:10.480</time></trkpt><trkpt lat="55.8143359" lon="49.1713853"><time>2025-03-23T11:18:14.493</time></trkpt><trkpt lat="55.8143334" lon="49.1714806"><time>2025-03-23T11:18:18.430</time></trkpt><trkpt lat="55.8143268" lon="49.1715768"><time>2025-03-23T11:18:22.430</time></trkpt><trkpt lat="55.8143016" lon="49.1716586"><time>2025-03-23T11:18:26.493</time></trkpt><trkpt lat="55.8142659" lon="49.1717245"><time>2025-03-23T11:18:30.497</time></trkpt><trkpt lat="55.8142209" lon="49.1717887"><time>2025-03-23T11:18:34.487</time></trkpt><trkpt lat="55.8141822" lon="49.1718584"><time>2025-03-23T11:18:38.430</time></trkpt><trkpt lat="55.8141461" lon="49.1719304"><time>2025-03-23T11:18:42.430</time></trkpt><trkpt lat="55.8141168" lon="49.1720069"><time>2025-03-23T11:18:46.497</time></trkpt><trkpt lat="55.8140891" lon="49.1720907"><time>2025-03-23T11:18:50.507</time></trkpt><trkpt lat="55.8140634" lon="49.1721565"><time>2025-03-23T11:18:53.423</time></trkpt><trkpt lat="55.8140345" lon="49.1722487"><time>2025-03-23T11:18:57.430</time></trkpt><trkpt lat="55.8140138" lon="49.1723482"><time>2025-03-23T11:19:01.493</time></trkpt><trkpt lat="55.8140142" lon="49.1724361"><time>2025-03-23T11:19:04.487</time></trkpt><trkpt lat="55.8140017" lon="49.1725424"><time>2025-03-23T11:19:07.427</time></trkpt><trkpt lat="55.8139850" lon="49.1726298"><time>2025-03-23T11:19:09.490</time></trkpt><trkpt lat="55.8139651" lon="49.1727226"><time>2025-03-23T11:19:11.493</time></trkpt><trkpt lat="55.8139515" lon="49.1728507"><time>2025-03-23T11:19:13.427</time></trkpt><trkpt lat="55.8139384" lon="49.1729687"><time>2025-03-23T11:19:15.483</time></trkpt><trkpt lat="55.8139186" lon="49.1730851"><time>2025-03-23T11:19:17.433</time></trkpt><trkpt lat="55.8138984" lon="49.1731855"><time>2025-03-23T11:19:19.487</time></trkpt><trkpt lat="55.8138839" lon="49.1732793"><time>2025-03-23T11:19:21.487</time></trkpt><trkpt lat="55.8138647" lon="49.1733634"><time>2025-03-23T11:19:23.430</time></trkpt><trkpt lat="55.8138370" lon="49.1734766"><time>2025-03-23T11:19:25.487</time></trkpt><trkpt lat="55.8138093" lon="49.1735762"><time>2025-03-23T11:19:27.430</time></trkpt><trkpt lat="55.8137857" lon="49.1736561"><time>2025-03-23T11:19:29.483</time></trkpt><trkpt lat="55.8137647" lon="49.1737454"><time>2025-03-23T11:19:31.480</time></trkpt><trkpt lat="55.8137515" lon="49.1738610"><time>2025-03-23T11:19:34.427</time></trkpt><trkpt lat="55.8137406" lon="49.1739576"><time>2025-03-23T11:19:37.423</time></trkpt><trkpt lat="55.8137100" lon="49.1740199"><time>2025-03-23T11:19:39.447</time></trkpt><trkpt lat="55.8136912" lon="49.1740979"><time>2025-03-23T11:19:41.490</time></trkpt><trkpt lat="55.8136846" lon="49.1742307"><time>2025-03-23T11:19:44.487</time></trkpt><trkpt lat="55.8136594" lon="49.1743311"><time>2025-03-23T11:19:46.497</time></trkpt><trkpt lat="55.8136388" lon="49.1744376"><time>2025-03-23T11:19:48.430</time></trkpt><trkpt lat="55.8136203" lon="49.1745364"><time>2025-03-23T11:19:50.497</time></trkpt><trkpt lat="55.8136028" lon="49.1746321"><time>2025-03-23T11:19:52.427</time></trkpt><trkpt lat="55.8135928" lon="49.1747279"><time>2025-03-23T11:19:54.490</time></trkpt><trkpt lat="55.8135724" lon="49.1748238"><time>2025-03-23T11:19:56.493</time></trkpt><trkpt lat="55.8135533" lon="49.1749181"><time>2025-03-23T11:19:58.430</time></trkpt><trkpt lat="55.8135347" lon="49.1750230"><time>2025-03-23T11:20:00.477</time></trkpt><trkpt lat="55.8135166" lon="49.1751178"><time>2025-03-23T11:20:02.427</time></trkpt><trkpt lat="55.8134990" lon="49.1752091"><time>2025-03-23T11:20:04.497</time></trkpt><trkpt lat="55.8134801" lon="49.1753071"><time>2025-03-23T11:20:06.487</time></trkpt><trkpt lat="55.8134625" lon="49.1754022"><time>2025-03-23T11:20:08.427</time></trkpt><trkpt lat="55.8134382" lon="49.1755190"><time>2025-03-23T11:20:10.430</time></trkpt><trkpt lat="55.8134182" lon="49.1756243"><time>2025-03-23T11:20:13.423</time></trkpt><trkpt lat="55.8133967" lon="49.1757007"><time>2025-03-23T11:20:15.427</time></trkpt><trkpt lat="55.8133643" lon="49.1757826"><time>2025-03-23T11:20:17.427</time></trkpt><trkpt lat="55.8133173" lon="49.1758473"><time>2025-03-23T11:20:20.493</time></trkpt><trkpt lat="55.8132692" lon="49.1758780"><time>2025-03-23T11:20:23.433</time></trkpt><trkpt lat="55.8132467" lon="49.1759778"><time>2025-03-23T11:20:27.423</time></trkpt><trkpt lat="55.8132400" lon="49.1760656"><time>2025-03-23T11:20:30.493</time></trkpt><trkpt lat="55.8132389" lon="49.1761653"><time>2025-03-23T11:20:34.490</time></trkpt><trkpt lat="55.8132462" lon="49.1762633"><time>2025-03-23T11:20:38.437</time></trkpt><trkpt lat="55.8132203" lon="49.1763549"><time>2025-03-23T11:20:42.427</time></trkpt><trkpt lat="55.8131767" lon="49.1763238"><time>2025-03-23T11:20:46.423</time></trkpt><trkpt lat="55.8131767" lon="49.1763238"><time>2025-03-23T11:20:47.157</time></trkpt><trkpt lat="55.8131349" lon="49.1762866"><time>2025-03-23T11:20:51.423</time></trkpt><trkpt lat="55.8131222" lon="49.1761964"><time>2025-03-23T11:20:55.493</time></trkpt><trkpt lat="55.8131149" lon="49.1761147"><time>2025-03-23T11:20:58.427</time></trkpt><trkpt lat="55.8130986" lon="49.1760375"><time>2025-03-23T11:21:01.427</time></trkpt><trkpt lat="55.8130489" lon="49.1760245"><time>2025-03-23T11:21:05.487</time></trkpt><trkpt lat="55.8129989" lon="49.1759623"><time>2025-03-23T11:21:09.490</time></trkpt><trkpt lat="55.8129567" lon="49.1759226"><time>2025-03-23T11:21:11.493</time></trkpt><trkpt lat="55.8129029" lon="49.1758976"><time>2025-03-23T11:21:13.430</time></trkpt><trkpt lat="55.8128488" lon="49.1758888"><time>2025-03-23T11:21:15.490</time></trkpt><trkpt lat="55.8127954" lon="49.1758756"><time>2025-03-23T11:21:17.427</time></trkpt><trkpt lat="55.8127312" lon="49.1758598"><time>2025-03-23T11:21:19.490</time></trkpt><trkpt lat="55.8126680" lon="49.1758445"><time>2025-03-23T11:21:21.497</time></trkpt><trkpt lat="55.8126034" lon="49.1758339"><time>2025-03-23T11:21:23.427</time></trkpt><trkpt lat="55.8125430" lon="49.1758260"><time>2025-03-23T11:21:25.417</time></trkpt><trkpt lat="55.8124852" lon="49.1758054"><time>2025-03-23T11:21:27.423</time></trkpt><trkpt lat="55.8124352" lon="49.1757861"><time>2025-03-23T11:21:29.417</time></trkpt><trkpt lat="55.8123878" lon="49.1757655"><time>2025-03-23T11:21:31.417</time></trkpt><trkpt lat="55.8123277" lon="49.1757407"><time>2025-03-23T11:21:33.417</time></trkpt><trkpt lat="55.8122652" lon="49.1757307"><time>2025-03-23T11:21:35.420</time></trkpt><trkpt lat="55.8122086" lon="49.1757164"><time>2025-03-23T11:21:37.423</time></trkpt><trkpt lat="55.8121426" lon="49.1756810"><time>2025-03-23T11:21:40.423</time></trkpt><trkpt lat="55.8120791" lon="49.1756312"><time>2025-03-23T11:21:42.430</time></trkpt><trkpt lat="55.8120298" lon="49.1755494"><time>2025-03-23T11:21:44.427</time></trkpt><trkpt lat="55.8119759" lon="49.1754673"><time>2025-03-23T11:21:46.427</time></trkpt><trkpt lat="55.8119139" lon="49.1754072"><time>2025-03-23T11:21:48.423</time></trkpt><trkpt lat="55.8118641" lon="49.1753812"><time>2025-03-23T11:21:50.427</time></trkpt><trkpt lat="55.8118082" lon="49.1753623"><time>2025-03-23T11:21:52.427</time></trkpt><trkpt lat="55.8117508" lon="49.1753331"><time>2025-03-23T11:21:54.427</time></trkpt><trkpt lat="55.8116998" lon="49.1752936"><time>2025-03-23T11:21:56.427</time></trkpt><trkpt lat="55.8116425" lon="49.1752668"><time>2025-03-23T11:21:58.490</time></trkpt><trkpt lat="55.8115804" lon="49.1752434"><time>2025-03-23T11:22:00.480</time></trkpt><trkpt lat="55.8115313" lon="49.1752451"><time>2025-03-23T11:22:02.427</time></trkpt><trkpt lat="55.8114770" lon="49.1752361"><time>2025-03-23T11:22:04.433</time></trkpt><trkpt lat="55.8114224" lon="49.1752293"><time>2025-03-23T11:22:06.490</time></trkpt><trkpt lat="55.8113706" lon="49.1752268"><time>2025-03-23T11:22:08.433</time></trkpt><trkpt lat="55.8113159" lon="49.1752260"><time>2025-03-23T11:22:10.487</time></trkpt><trkpt lat="55.8112606" lon="49.1752228"><time>2025-03-23T11:22:12.430</time></trkpt><trkpt lat="55.8112096" lon="49.1751998"><time>2025-03-23T11:22:14.423</time></trkpt><trkpt lat="55.8111634" lon="49.1752234"><time>2025-03-23T11:22:16.423</time></trkpt><trkpt lat="55.8111283" lon="49.1752988"><time>2025-03-23T11:22:18.427</time></trkpt><trkpt lat="55.8110896" lon="49.1753728"><time>2025-03-23T11:22:20.487</time></trkpt><trkpt lat="55.8110413" lon="49.1754018"><time>2025-03-23T11:22:22.430</time></trkpt><trkpt lat="55.8109939" lon="49.1754039"><time>2025-03-23T11:22:24.487</time></trkpt><trkpt lat="55.8109396" lon="49.1754073"><time>2025-03-23T11:22:26.427</time></trkpt><trkpt lat="55.8108768" lon="49.1754106"><time>2025-03-23T11:22:28.427</time></trkpt><trkpt lat="55.8108193" lon="49.1754022"><time>2025-03-23T11:22:30.487</time></trkpt><trkpt lat="55.8107608" lon="49.1753973"><time>2025-03-23T11:22:32.430</time></trkpt><trkpt lat="55.8107076" lon="49.1753887"><time>2025-03-23T11:22:34.490</time></trkpt><trkpt lat="55.8106609" lon="49.1753737"><time>2025-03-23T11:22:36.497</time></trkpt><trkpt lat="55.8106114" lon="49.1753684"><time>2025-03-23T11:22:38.427</time></trkpt><trkpt lat="55.8105543" lon="49.1754043"><time>2025-03-23T11:22:41.427</time></trkpt><trkpt lat="55.8105076" lon="49.1754344"><time>2025-03-23T11:22:44.433</time></trkpt><trkpt lat="55.8104487" lon="49.1754382"><time>2025-03-23T11:22:48.430</time></trkpt><trkpt lat="55.8103911" lon="49.1754571"><time>2025-03-23T11:22:52.433</time></trkpt><trkpt lat="55.8103404" lon="49.1754867"><time>2025-03-23T11:22:55.493</time></trkpt><trkpt lat="55.8102853" lon="49.1755135"><time>2025-03-23T11:22:57.433</time></trkpt><trkpt lat="55.8102293" lon="49.1755393"><time>2025-03-23T11:22:59.490</time></trkpt><trkpt lat="55.8101730" lon="49.1755562"><time>2025-03-23T11:23:01.427</time></trkpt><trkpt lat="55.8101177" lon="49.1755471"><time>2025-03-23T11:23:03.427</time></trkpt><trkpt lat="55.8100462" lon="49.1755109"><time>2025-03-23T11:23:06.427</time></trkpt><trkpt lat="55.8099967" lon="49.1755285"><time>2025-03-23T11:23:08.430</time></trkpt><trkpt lat="55.8099393" lon="49.1755564"><time>2025-03-23T11:23:10.490</time></trkpt><trkpt lat="55.8098905" lon="49.1755812"><time>2025-03-23T11:23:12.430</time></trkpt><trkpt lat="55.8098246" lon="49.1756015"><time>2025-03-23T11:23:15.490</time></trkpt><trkpt lat="55.8097653" lon="49.1756334"><time>2025-03-23T11:23:17.430</time></trkpt><trkpt lat="55.8097135" lon="49.1756390"><time>2025-03-23T11:23:19.430</time></trkpt><trkpt lat="55.8096623" lon="49.1756309"><time>2025-03-23T11:23:21.433</time></trkpt><trkpt lat="55.8096111" lon="49.1756203"><time>2025-03-23T11:23:23.430</time></trkpt><trkpt lat="55.8095684" lon="49.1755903"><time>2025-03-23T11:23:25.430</time></trkpt><trkpt lat="55.8095159" lon="49.1755499"><time>2025-03-23T11:23:27.433</time></trkpt><trkpt lat="55.8094634" lon="49.1755396"><time>2025-03-23T11:23:29.497</time></trkpt><trkpt lat="55.8094022" lon="49.1755359"><time>2025-03-23T11:23:31.507</time></trkpt><trkpt lat="55.8093530" lon="49.1755340"><time>2025-03-23T11:23:32.433</time></trkpt><trkpt lat="55.8093048" lon="49.1755437"><time>2025-03-23T11:23:33.433</time></trkpt><trkpt lat="55.8092304" lon="49.1755928"><time>2025-03-23T11:23:35.500</time></trkpt><trkpt lat="55.8091807" lon="49.1756551"><time>2025-03-23T11:23:37.427</time></trkpt><trkpt lat="55.8091502" lon="49.1757225"><time>2025-03-23T11:23:40.473</time></trkpt><trkpt lat="55.8091198" lon="49.1758208"><time>2025-03-23T11:23:43.427</time></trkpt><trkpt lat="55.8090728" lon="49.1758875"><time>2025-03-23T11:23:45.427</time></trkpt><trkpt lat="55.8090182" lon="49.1759519"><time>2025-03-23T11:23:47.430</time></trkpt><trkpt lat="55.8089506" lon="49.1760121"><time>2025-03-23T11:23:49.487</time></trkpt><trkpt lat="55.8088873" lon="49.1760793"><time>2025-03-23T11:23:51.467</time></trkpt><trkpt lat="55.8088385" lon="49.1761297"><time>2025-03-23T11:23:54.490</time></trkpt><trkpt lat="55.8087890" lon="49.1761824"><time>2025-03-23T11:23:57.427</time></trkpt><trkpt lat="55.8087520" lon="49.1762545"><time>2025-03-23T11:23:59.433</time></trkpt><trkpt lat="55.8086867" lon="49.1763163"><time>2025-03-23T11:24:01.493</time></trkpt><trkpt lat="55.8086189" lon="49.1763574"><time>2025-03-23T11:24:03.433</time></trkpt><trkpt lat="55.8085866" lon="49.1764186"><time>2025-03-23T11:24:46.493</time></trkpt><trkpt lat="55.8085405" lon="49.1764566"><time>2025-03-23T11:24:49.493</time></trkpt><trkpt lat="55.8084798" lon="49.1764299"><time>2025-03-23T11:24:52.433</time></trkpt><trkpt lat="55.8084340" lon="49.1764069"><time>2025-03-23T11:24:54.497</time></trkpt><trkpt lat="55.8083818" lon="49.1763793"><time>2025-03-23T11:24:56.497</time></trkpt><trkpt lat="55.8083229" lon="49.1763567"><time>2025-03-23T11:24:58.480</time></trkpt><trkpt lat="55.8082662" lon="49.1763314"><time>2025-03-23T11:25:00.487</time></trkpt><trkpt lat="55.8082013" lon="49.1763067"><time>2025-03-23T11:25:02.433</time></trkpt><trkpt lat="55.8081448" lon="49.1762829"><time>2025-03-23T11:25:04.487</time></trkpt><trkpt lat="55.8080924" lon="49.1762489"><time>2025-03-23T11:25:06.427</time></trkpt><trkpt lat="55.8080385" lon="49.1762255"><time>2025-03-23T11:25:08.430</time></trkpt><trkpt lat="55.8079808" lon="49.1761959"><time>2025-03-23T11:25:10.450</time></trkpt><trkpt lat="55.8079284" lon="49.1761624"><time>2025-03-23T11:25:12.430</time></trkpt><trkpt lat="55.8078769" lon="49.1761281"><time>2025-03-23T11:25:14.490</time></trkpt><trkpt lat="55.8078315" lon="49.1760954"><time>2025-03-23T11:25:16.507</time></trkpt><trkpt lat="55.8077770" lon="49.1760544"><time>2025-03-23T11:25:18.430</time></trkpt><trkpt lat="55.8077248" lon="49.1760122"><time>2025-03-23T11:25:20.430</time></trkpt><trkpt lat="55.8076728" lon="49.1759632"><time>2025-03-23T11:25:22.427</time></trkpt><trkpt lat="55.8076201" lon="49.1759078"><time>2025-03-23T11:25:24.433</time></trkpt><trkpt lat="55.8075949" lon="49.1758402"><time>2025-03-23T11:25:26.433</time></trkpt><trkpt lat="55.8075566" lon="49.1757840"><time>2025-03-23T11:25:28.430</time></trkpt><trkpt lat="55.8075039" lon="49.1757371"><time>2025-03-23T11:25:30.517</time></trkpt><trkpt lat="55.8074460" lon="49.1756945"><time>2025-03-23T11:25:32.430</time></trkpt><trkpt lat="55.8073862" lon="49.1756491"><time>2025-03-23T11:25:34.497</time></trkpt><trkpt lat="55.8073392" lon="49.1756036"><time>2025-03-23T11:25:36.497</time></trkpt><trkpt lat="55.8072803" lon="49.1755683"><time>2025-03-23T11:25:38.433</time></trkpt><trkpt lat="55.8072351" lon="49.1755308"><time>2025-03-23T11:25:40.497</time></trkpt><trkpt lat="55.8071881" lon="49.1754954"><time>2025-03-23T11:25:42.430</time></trkpt><trkpt lat="55.8071362" lon="49.1754336"><time>2025-03-23T11:25:44.433</time></trkpt><trkpt lat="55.8070889" lon="49.1753802"><time>2025-03-23T11:25:46.427</time></trkpt><trkpt lat="55.8070289" lon="49.1753038"><time>2025-03-23T11:25:49.427</time></trkpt><trkpt lat="55.8069871" lon="49.1752466"><time>2025-03-23T11:25:51.430</time></trkpt><trkpt lat="55.8069488" lon="49.1752047"><time>2025-03-23T11:25:53.490</time></trkpt><trkpt lat="55.8068959" lon="49.1751558"><time>2025-03-23T11:25:55.490</time></trkpt><trkpt lat="55.8068447" lon="49.1751064"><time>2025-03-23T11:25:57.427</time></trkpt><trkpt lat="55.8068023" lon="49.1750565"><time>2025-03-23T11:25:59.427</time></trkpt><trkpt lat="55.8067688" lon="49.1749873"><time>2025-03-23T11:26:01.460</time></trkpt><trkpt lat="55.8067255" lon="49.1749156"><time>2025-03-23T11:26:03.427</time></trkpt><trkpt lat="55.8066720" lon="49.1748692"><time>2025-03-23T11:26:06.433</time></trkpt><trkpt lat="55.8066338" lon="49.1748161"><time>2025-03-23T11:26:08.427</time></trkpt><trkpt lat="55.8065855" lon="49.1747561"><time>2025-03-23T11:26:10.497</time></trkpt><trkpt lat="55.8065357" lon="49.1746910"><time>2025-03-23T11:26:12.433</time></trkpt><trkpt lat="55.8064958" lon="49.1746367"><time>2025-03-23T11:26:14.490</time></trkpt><trkpt lat="55.8064382" lon="49.1746064"><time>2025-03-23T11:26:17.433</time></trkpt><trkpt lat="55.8063966" lon="49.1745553"><time>2025-03-23T11:26:19.503</time></trkpt><trkpt lat="55.8063703" lon="49.1744807"><time>2025-03-23T11:26:21.433</time></trkpt><trkpt lat="55.8063402" lon="49.1744185"><time>2025-03-23T11:26:23.493</time></trkpt><trkpt lat="55.8062919" lon="49.1743564"><time>2025-03-23T11:26:25.487</time></trkpt><trkpt lat="55.8062575" lon="49.1742801"><time>2025-03-23T11:26:27.443</time></trkpt><trkpt lat="55.8062168" lon="49.1741957"><time>2025-03-23T11:26:30.497</time></trkpt><trkpt lat="55.8061707" lon="49.1741600"><time>2025-03-23T11:26:34.483</time></trkpt><trkpt lat="55.8061393" lon="49.1740875"><time>2025-03-23T11:26:37.427</time></trkpt><trkpt lat="55.8061076" lon="49.1740230"><time>2025-03-23T11:26:40.487</time></trkpt><trkpt lat="55.8060719" lon="49.1739645"><time>2025-03-23T11:26:43.430</time></trkpt><trkpt lat="55.8060288" lon="49.1738984"><time>2025-03-23T11:26:47.427</time></trkpt><trkpt lat="55.8059887" lon="49.1738362"><time>2025-03-23T11:26:51.467</time></trkpt><trkpt lat="55.8059485" lon="49.1737748"><time>2025-03-23T11:26:54.490</time></trkpt><trkpt lat="55.8059135" lon="49.1737137"><time>2025-03-23T11:26:56.493</time></trkpt><trkpt lat="55.8058760" lon="49.1736524"><time>2025-03-23T11:26:58.427</time></trkpt><trkpt lat="55.8058353" lon="49.1735743"><time>2025-03-23T11:27:00.490</time></trkpt><trkpt lat="55.8057987" lon="49.1735029"><time>2025-03-23T11:27:02.433</time></trkpt><trkpt lat="55.8057631" lon="49.1734329"><time>2025-03-23T11:27:04.427</time></trkpt><trkpt lat="55.8057290" lon="49.1733517"><time>2025-03-23T11:27:06.430</time></trkpt><trkpt lat="55.8056927" lon="49.1732844"><time>2025-03-23T11:27:08.437</time></trkpt><trkpt lat="55.8056531" lon="49.1732060"><time>2025-03-23T11:27:10.430</time></trkpt><trkpt lat="55.8056122" lon="49.1731266"><time>2025-03-23T11:27:13.433</time></trkpt><trkpt lat="55.8055795" lon="49.1730522"><time>2025-03-23T11:27:15.433</time></trkpt><trkpt lat="55.8055491" lon="49.1729783"><time>2025-03-23T11:27:29.487</time></trkpt><trkpt lat="55.8055127" lon="49.1729228"><time>2025-03-23T11:27:32.433</time></trkpt><trkpt lat="55.8054736" lon="49.1728632"><time>2025-03-23T11:27:34.430</time></trkpt><trkpt lat="55.8054266" lon="49.1727862"><time>2025-03-23T11:27:37.433</time></trkpt><trkpt lat="55.8053937" lon="49.1727125"><time>2025-03-23T11:27:39.427</time></trkpt><trkpt lat="55.8053643" lon="49.1726518"><time>2025-03-23T11:27:41.433</time></trkpt><trkpt lat="55.8053370" lon="49.1725808"><time>2025-03-23T11:27:50.427</time></trkpt><trkpt lat="55.8053140" lon="49.1724901"><time>2025-03-23T11:27:52.430</time></trkpt><trkpt lat="55.8052909" lon="49.1724004"><time>2025-03-23T11:27:54.493</time></trkpt><trkpt lat="55.8052573" lon="49.1723224"><time>2025-03-23T11:27:56.493</time></trkpt><trkpt lat="55.8052205" lon="49.1722375"><time>2025-03-23T11:27:58.427</time></trkpt><trkpt lat="55.8051849" lon="49.1721484"><time>2025-03-23T11:28:00.493</time></trkpt><trkpt lat="55.8051446" lon="49.1720556"><time>2025-03-23T11:28:02.423</time></trkpt><trkpt lat="55.8050941" lon="49.1719707"><time>2025-03-23T11:28:04.483</time></trkpt><trkpt lat="55.8050649" lon="49.1719097"><time>2025-03-23T11:28:06.427</time></trkpt><trkpt lat="55.8050286" lon="49.1718502"><time>2025-03-23T11:28:08.433</time></trkpt><trkpt lat="55.8049952" lon="49.1717951"><time>2025-03-23T11:28:10.430</time></trkpt><trkpt lat="55.8049568" lon="49.1717237"><time>2025-03-23T11:28:12.430</time></trkpt><trkpt lat="55.8049266" lon="49.1716541"><time>2025-03-23T11:28:14.427</time></trkpt><trkpt lat="55.8048978" lon="49.1715563"><time>2025-03-23T11:28:16.420</time></trkpt><trkpt lat="55.8048735" lon="49.1714673"><time>2025-03-23T11:28:18.473</time></trkpt><trkpt lat="55.8048429" lon="49.1713935"><time>2025-03-23T11:28:20.487</time></trkpt><trkpt lat="55.8048170" lon="49.1713191"><time>2025-03-23T11:28:22.430</time></trkpt><trkpt lat="55.8047806" lon="49.1712450"><time>2025-03-23T11:28:24.490</time></trkpt><trkpt lat="55.8047519" lon="49.1711642"><time>2025-03-23T11:28:26.430</time></trkpt><trkpt lat="55.8047273" lon="49.1710866"><time>2025-03-23T11:28:28.430</time></trkpt><trkpt lat="55.8047009" lon="49.1710060"><time>2025-03-23T11:28:30.497</time></trkpt><trkpt lat="55.8046651" lon="49.1709319"><time>2025-03-23T11:28:32.427</time></trkpt><trkpt lat="55.8046231" lon="49.1708265"><time>2025-03-23T11:28:35.507</time></trkpt><trkpt lat="55.8045907" lon="49.1707622"><time>2025-03-23T11:28:37.430</time></trkpt><trkpt lat="55.8045576" lon="49.1706548"><time>2025-03-23T11:28:40.507</time></trkpt><trkpt lat="55.8045191" lon="49.1705682"><time>2025-03-23T11:28:42.433</time></trkpt><trkpt lat="55.8044796" lon="49.1704761"><time>2025-03-23T11:28:44.493</time></trkpt><trkpt lat="55.8044446" lon="49.1703952"><time>2025-03-23T11:28:46.497</time></trkpt><trkpt lat="55.8044102" lon="49.1703126"><time>2025-03-23T11:28:48.430</time></trkpt><trkpt lat="55.8043734" lon="49.1702321"><time>2025-03-23T11:28:50.493</time></trkpt><trkpt lat="55.8043385" lon="49.1701549"><time>2025-03-23T11:28:52.433</time></trkpt><trkpt lat="55.8043063" lon="49.1700845"><time>2025-03-23T11:28:54.500</time></trkpt><trkpt lat="55.8042711" lon="49.1700151"><time>2025-03-23T11:28:56.430</time></trkpt><trkpt lat="55.8042280" lon="49.1699159"><time>2025-03-23T11:28:59.490</time></trkpt><trkpt lat="55.8042104" lon="49.1698249"><time>2025-03-23T11:29:01.497</time></trkpt><trkpt lat="55.8041777" lon="49.1697447"><time>2025-03-23T11:29:03.433</time></trkpt><trkpt lat="55.8041402" lon="49.1696758"><time>2025-03-23T11:29:05.493</time></trkpt><trkpt lat="55.8041071" lon="49.1696065"><time>2025-03-23T11:29:07.430</time></trkpt><trkpt lat="55.8040604" lon="49.1695117"><time>2025-03-23T11:29:10.437</time></trkpt><trkpt lat="55.8040190" lon="49.1694453"><time>2025-03-23T11:29:12.427</time></trkpt><trkpt lat="55.8039863" lon="49.1693741"><time>2025-03-23T11:29:14.430</time></trkpt><trkpt lat="55.8039614" lon="49.1692969"><time>2025-03-23T11:29:17.423</time></trkpt><trkpt lat="55.8039297" lon="49.1692256"><time>2025-03-23T11:29:21.427</time></trkpt><trkpt lat="55.8038984" lon="49.1691629"><time>2025-03-23T11:29:25.427</time></trkpt><trkpt lat="55.8038596" lon="49.1690976"><time>2025-03-23T11:29:30.430</time></trkpt><trkpt lat="55.8038199" lon="49.1690427"><time>2025-03-23T11:29:35.430</time></trkpt><trkpt lat="55.8037814" lon="49.1689747"><time>2025-03-23T11:29:38.433</time></trkpt><trkpt lat="55.8037444" lon="49.1689123"><time>2025-03-23T11:29:40.433</time></trkpt><trkpt lat="55.8037003" lon="49.1688377"><time>2025-03-23T11:29:42.433</time></trkpt><trkpt lat="55.8036502" lon="49.1687646"><time>2025-03-23T11:29:44.427</time></trkpt><trkpt lat="55.8036076" lon="49.1686901"><time>2025-03-23T11:29:46.510</time></trkpt><trkpt lat="55.8035706" lon="49.1686325"><time>2025-03-23T11:29:48.453</time></trkpt><trkpt lat="55.8035191" lon="49.1685532"><time>2025-03-23T11:29:51.497</time></trkpt><trkpt lat="55.8034748" lon="49.1684917"><time>2025-03-23T11:29:53.430</time></trkpt><trkpt lat="55.8034333" lon="49.1684388"><time>2025-03-23T11:29:55.433</time></trkpt><trkpt lat="55.8033921" lon="49.1683964"><time>2025-03-23T11:29:57.430</time></trkpt><trkpt lat="55.8033515" lon="49.1683437"><time>2025-03-23T11:29:59.430</time></trkpt><trkpt lat="55.8033000" lon="49.1682749"><time>2025-03-23T11:30:02.437</time></trkpt><trkpt lat="55.8032638" lon="49.1682259"><time>2025-03-23T11:30:04.497</time></trkpt><trkpt lat="55.8032270" lon="49.1681734"><time>2025-03-23T11:30:06.497</time></trkpt><trkpt lat="55.8031892" lon="49.1681194"><time>2025-03-23T11:30:08.430</time></trkpt><trkpt lat="55.8031482" lon="49.1680629"><time>2025-03-23T11:30:10.497</time></trkpt><trkpt lat="55.8031049" lon="49.1680045"><time>2025-03-23T11:30:12.437</time></trkpt><trkpt lat="55.8030592" lon="49.1679481"><time>2025-03-23T11:30:14.430</time></trkpt><trkpt lat="55.8030208" lon="49.1678985"><time>2025-03-23T11:30:16.450</time></trkpt><trkpt lat="55.8029806" lon="49.1678453"><time>2025-03-23T11:30:18.497</time></trkpt><trkpt lat="55.8029420" lon="49.1677959"><time>2025-03-23T11:30:20.520</time></trkpt><trkpt lat="55.8029044" lon="49.1677473"><time>2025-03-23T11:30:22.433</time></trkpt><trkpt lat="55.8028494" lon="49.1676887"><time>2025-03-23T11:30:25.493</time></trkpt><trkpt lat="55.8028060" lon="49.1676491"><time>2025-03-23T11:30:27.437</time></trkpt><trkpt lat="55.8027742" lon="49.1675922"><time>2025-03-23T11:30:29.497</time></trkpt><trkpt lat="55.8027338" lon="49.1675218"><time>2025-03-23T11:30:31.490</time></trkpt><trkpt lat="55.8026809" lon="49.1674850"><time>2025-03-23T11:30:33.437</time></trkpt><trkpt lat="55.8026300" lon="49.1674369"><time>2025-03-23T11:30:36.510</time></trkpt><trkpt lat="55.8025870" lon="49.1673790"><time>2025-03-23T11:30:40.503</time></trkpt><trkpt lat="55.8025383" lon="49.1673373"><time>2025-03-23T11:30:44.500</time></trkpt><trkpt lat="55.8024894" lon="49.1673080"><time>2025-03-23T11:30:48.430</time></trkpt><trkpt lat="55.8024530" lon="49.1672309"><time>2025-03-23T11:30:52.430</time></trkpt><trkpt lat="55.8024093" lon="49.1671412"><time>2025-03-23T11:31:06.437</time></trkpt><trkpt lat="55.8023707" lon="49.1670661"><time>2025-03-23T11:31:08.430</time></trkpt><trkpt lat="55.8023245" lon="49.1669838"><time>2025-03-23T11:31:10.493</time></trkpt><trkpt lat="55.8022769" lon="49.1669156"><time>2025-03-23T11:31:12.430</time></trkpt><trkpt lat="55.8022316" lon="49.1668389"><time>2025-03-23T11:31:14.493</time></trkpt><trkpt lat="55.8021859" lon="49.1667876"><time>2025-03-23T11:31:16.483</time></trkpt><trkpt lat="55.8021383" lon="49.1667507"><time>2025-03-23T11:31:18.427</time></trkpt><trkpt lat="55.8020935" lon="49.1667198"><time>2025-03-23T11:31:20.493</time></trkpt><trkpt lat="55.8020355" lon="49.1666851"><time>2025-03-23T11:31:23.427</time></trkpt><trkpt lat="55.8019878" lon="49.1666777"><time>2025-03-23T11:31:25.503</time></trkpt><trkpt lat="55.8019381" lon="49.1666612"><time>2025-03-23T11:31:27.430</time></trkpt><trkpt lat="55.8018754" lon="49.1666536"><time>2025-03-23T11:31:30.487</time></trkpt><trkpt lat="55.8018295" lon="49.1666496"><time>2025-03-23T11:31:32.433</time></trkpt><trkpt lat="55.8017813" lon="49.1666353"><time>2025-03-23T11:31:34.500</time></trkpt><trkpt lat="55.8017458" lon="49.1665858"><time>2025-03-23T11:31:38.433</time></trkpt><trkpt lat="55.8017192" lon="49.1666528"><time>2025-03-23T11:31:42.437</time></trkpt><trkpt lat="55.8016751" lon="49.1667155"><time>2025-03-23T11:31:48.437</time></trkpt><trkpt lat="55.8016243" lon="49.1666771"><time>2025-03-23T11:31:53.437</time></trkpt><trkpt lat="55.8015744" lon="49.1666318"><time>2025-03-23T11:31:57.433</time></trkpt><trkpt lat="55.8015332" lon="49.1665956"><time>2025-03-23T11:32:00.500</time></trkpt><trkpt lat="55.8014882" lon="49.1665640"><time>2025-03-23T11:32:02.437</time></trkpt><trkpt lat="55.8014298" lon="49.1665455"><time>2025-03-23T11:32:04.497</time></trkpt><trkpt lat="55.8013668" lon="49.1665061"><time>2025-03-23T11:32:07.440</time></trkpt><trkpt lat="55.8013163" lon="49.1664841"><time>2025-03-23T11:32:09.493</time></trkpt><trkpt lat="55.8012647" lon="49.1664632"><time>2025-03-23T11:32:11.503</time></trkpt><trkpt lat="55.8012139" lon="49.1664392"><time>2025-03-23T11:32:13.437</time></trkpt><trkpt lat="55.8011639" lon="49.1664094"><time>2025-03-23T11:32:15.433</time></trkpt><trkpt lat="55.8011132" lon="49.1663916"><time>2025-03-23T11:32:17.427</time></trkpt><trkpt lat="55.8010608" lon="49.1663795"><time>2025-03-23T11:32:19.433</time></trkpt><trkpt lat="55.8010130" lon="49.1663656"><time>2025-03-23T11:32:21.493</time></trkpt><trkpt lat="55.8009670" lon="49.1663541"><time>2025-03-23T11:32:23.433</time></trkpt><trkpt lat="55.8009181" lon="49.1663406"><time>2025-03-23T11:32:25.433</time></trkpt><trkpt lat="55.8008740" lon="49.1663043"><time>2025-03-23T11:32:27.433</time></trkpt><trkpt lat="55.8008222" lon="49.1662790"><time>2025-03-23T11:32:29.490</time></trkpt><trkpt lat="55.8007611" lon="49.1662521"><time>2025-03-23T11:32:31.503</time></trkpt><trkpt lat="55.8007074" lon="49.1662233"><time>2025-03-23T11:32:33.433</time></trkpt><trkpt lat="55.8006609" lon="49.1662264"><time>2025-03-23T11:32:36.517</time></trkpt><trkpt lat="55.8006098" lon="49.1662197"><time>2025-03-23T11:32:40.493</time></trkpt><trkpt lat="55.8005606" lon="49.1662156"><time>2025-03-23T11:32:44.500</time></trkpt><trkpt lat="55.8005117" lon="49.1661970"><time>2025-03-23T11:32:48.433</time></trkpt><trkpt lat="55.8004562" lon="49.1661866"><time>2025-03-23T11:32:52.433</time></trkpt><trkpt lat="55.8004011" lon="49.1661799"><time>2025-03-23T11:32:56.493</time></trkpt><trkpt lat="55.8003503" lon="49.1661769"><time>2025-03-23T11:33:00.507</time></trkpt><trkpt lat="55.8003006" lon="49.1661570"><time>2025-03-23T11:33:04.497</time></trkpt><trkpt lat="55.8002522" lon="49.1661519"><time>2025-03-23T11:33:08.437</time></trkpt><trkpt lat="55.8001974" lon="49.1661428"><time>2025-03-23T11:33:12.437</time></trkpt><trkpt lat="55.8001452" lon="49.1661300"><time>2025-03-23T11:33:16.493</time></trkpt><trkpt lat="55.8001002" lon="49.1661238"><time>2025-03-23T11:33:18.430</time></trkpt><trkpt lat="55.8000472" lon="49.1661175"><time>2025-03-23T11:33:20.497</time></trkpt><trkpt lat="55.7999970" lon="49.1661151"><time>2025-03-23T11:33:22.430</time></trkpt><trkpt lat="55.7999457" lon="49.1661130"><time>2025-03-23T11:33:24.430</time></trkpt><trkpt lat="55.7998938" lon="49.1661138"><time>2025-03-23T11:33:26.497</time></trkpt><trkpt lat="55.7998297" lon="49.1661163"><time>2025-03-23T11:33:29.500</time></trkpt><trkpt lat="55.7997662" lon="49.1661289"><time>2025-03-23T11:33:32.433</time></trkpt><trkpt lat="55.7997141" lon="49.1661294"><time>2025-03-23T11:33:34.497</time></trkpt><trkpt lat="55.7996628" lon="49.1661328"><time>2025-03-23T11:33:36.507</time></trkpt><trkpt lat="55.7996105" lon="49.1661326"><time>2025-03-23T11:33:38.430</time></trkpt><trkpt lat="55.7995630" lon="49.1661351"><time>2025-03-23T11:33:40.493</time></trkpt><trkpt lat="55.7995052" lon="49.1661389"><time>2025-03-23T11:33:42.430</time></trkpt><trkpt lat="55.7994511" lon="49.1661408"><time>2025-03-23T11:33:44.503</time></trkpt><trkpt lat="55.7993964" lon="49.1661458"><time>2025-03-23T11:33:46.517</time></trkpt><trkpt lat="55.7993385" lon="49.1661489"><time>2025-03-23T11:33:48.433</time></trkpt><trkpt lat="55.7992872" lon="49.1661542"><time>2025-03-23T11:33:50.513</time></trkpt><trkpt lat="55.7992383" lon="49.1661581"><time>2025-03-23T11:33:52.433</time></trkpt><trkpt lat="55.7991901" lon="49.1661606"><time>2025-03-23T11:33:54.497</time></trkpt><trkpt lat="55.7991412" lon="49.1661677"><time>2025-03-23T11:33:56.493</time></trkpt><trkpt lat="55.7990894" lon="49.1661652"><time>2025-03-23T11:34:00.433</time></trkpt><trkpt lat="55.7990377" lon="49.1661738"><time>2025-03-23T11:34:04.500</time></trkpt><trkpt lat="55.7989924" lon="49.1661837"><time>2025-03-23T11:34:08.433</time></trkpt><trkpt lat="55.7989482" lon="49.1661992"><time>2025-03-23T11:34:12.433</time></trkpt><trkpt lat="55.7989015" lon="49.1662103"><time>2025-03-23T11:34:16.440</time></trkpt><trkpt lat="55.7988552" lon="49.1661767"><time>2025-03-23T11:34:21.497</time></trkpt><trkpt lat="55.7988071" lon="49.1661980"><time>2025-03-23T11:34:27.440</time></trkpt><trkpt lat="55.7987592" lon="49.1662146"><time>2025-03-23T11:34:31.497</time></trkpt><trkpt lat="55.7987031" lon="49.1662292"><time>2025-03-23T11:34:34.500</time></trkpt><trkpt lat="55.7986530" lon="49.1662430"><time>2025-03-23T11:34:36.500</time></trkpt><trkpt lat="55.7986022" lon="49.1662530"><time>2025-03-23T11:34:38.430</time></trkpt><trkpt lat="55.7985477" lon="49.1662654"><time>2025-03-23T11:34:40.497</time></trkpt><trkpt lat="55.7984925" lon="49.1662813"><time>2025-03-23T11:34:42.433</time></trkpt><trkpt lat="55.7984358" lon="49.1662640"><time>2025-03-23T11:34:45.507</time></trkpt><trkpt lat="55.7984092" lon="49.1661861"><time>2025-03-23T11:34:49.490</time></trkpt><trkpt lat="55.7983725" lon="49.1661332"><time>2025-03-23T11:34:52.427</time></trkpt><trkpt lat="55.7983318" lon="49.1660573"><time>2025-03-23T11:34:56.497</time></trkpt><trkpt lat="55.7982997" lon="49.1659966"><time>2025-03-23T11:34:59.497</time></trkpt><trkpt lat="55.7982924" lon="49.1659151"><time>2025-03-23T11:35:02.433</time></trkpt><trkpt lat="55.7983124" lon="49.1658335"><time>2025-03-23T11:35:06.500</time></trkpt><trkpt lat="55.7983718" lon="49.1658227"><time>2025-03-23T11:35:13.433</time></trkpt><trkpt lat="55.7984297" lon="49.1658200"><time>2025-03-23T11:35:16.497</time></trkpt><trkpt lat="55.7984768" lon="49.1658200"><time>2025-03-23T11:35:19.500</time></trkpt><trkpt lat="55.7985218" lon="49.1657683"><time>2025-03-23T11:35:29.507</time></trkpt><trkpt lat="55.7985604" lon="49.1657100"><time>2025-03-23T11:35:33.427</time></trkpt><trkpt lat="55.7986068" lon="49.1657148"><time>2025-03-23T11:35:36.430</time></trkpt><trkpt lat="55.7986659" lon="49.1656833"><time>2025-03-23T11:35:40.500</time></trkpt><trkpt lat="55.7987124" lon="49.1656775"><time>2025-03-23T11:35:42.433</time></trkpt><trkpt lat="55.7987499" lon="49.1656203"><time>2025-03-23T11:35:46.437</time></trkpt><trkpt lat="55.7987431" lon="49.1655764"><time>2025-03-23T11:35:52</time></trkpt><trkpt lat="55.7987198" lon="49.1656852"><time>2025-03-23T11:35:59.430</time></trkpt><trkpt lat="55.7986672" lon="49.1656948"><time>2025-03-23T11:36:04.427</time></trkpt><trkpt lat="55.7986115" lon="49.1657090"><time>2025-03-23T11:36:07.423</time></trkpt><trkpt lat="55.7985573" lon="49.1657166"><time>2025-03-23T11:36:10.427</time></trkpt><trkpt lat="55.7985285" lon="49.1657808"><time>2025-03-23T11:36:13.433</time></trkpt><trkpt lat="55.7985704" lon="49.1658605"><time>2025-03-23T11:36:16.433</time></trkpt><trkpt lat="55.7986358" lon="49.1658774"><time>2025-03-23T11:36:18.493</time></trkpt><trkpt lat="55.7986877" lon="49.1658812"><time>2025-03-23T11:36:20.493</time></trkpt><trkpt lat="55.7987475" lon="49.1658779"><time>2025-03-23T11:36:23.437</time></trkpt><trkpt lat="55.7987966" lon="49.1658702"><time>2025-03-23T11:36:26.493</time></trkpt><trkpt lat="55.7988542" lon="49.1658803"><time>2025-03-23T11:36:30.497</time></trkpt><trkpt lat="55.7989123" lon="49.1658770"><time>2025-03-23T11:36:34.493</time></trkpt><trkpt lat="55.7989703" lon="49.1658829"><time>2025-03-23T11:36:38.430</time></trkpt><trkpt lat="55.7990153" lon="49.1658902"><time>2025-03-23T11:36:41.517</time></trkpt><trkpt lat="55.7990679" lon="49.1658940"><time>2025-03-23T11:36:45.497</time></trkpt><trkpt lat="55.7991236" lon="49.1658916"><time>2025-03-23T11:36:49.487</time></trkpt><trkpt lat="55.7991696" lon="49.1658843"><time>2025-03-23T11:36:52.433</time></trkpt><trkpt lat="55.7992261" lon="49.1658731"><time>2025-03-23T11:36:56.507</time></trkpt><trkpt lat="55.7992833" lon="49.1658541"><time>2025-03-23T11:37:00.497</time></trkpt><trkpt lat="55.7993335" lon="49.1658362"><time>2025-03-23T11:37:03.433</time></trkpt><trkpt lat="55.7993792" lon="49.1658266"><time>2025-03-23T11:37:05.433</time></trkpt><trkpt lat="55.7994423" lon="49.1657854"><time>2025-03-23T11:37:07.433</time></trkpt><trkpt lat="55.7995062" lon="49.1657364"><time>2025-03-23T11:37:09.490</time></trkpt><trkpt lat="55.7995750" lon="49.1656842"><time>2025-03-23T11:37:11.497</time></trkpt><trkpt lat="55.7996390" lon="49.1656181"><time>2025-03-23T11:37:13.437</time></trkpt><trkpt lat="55.7997030" lon="49.1655633"><time>2025-03-23T11:37:15.433</time></trkpt><trkpt lat="55.7997719" lon="49.1654951"><time>2025-03-23T11:37:17.430</time></trkpt><trkpt lat="55.7998274" lon="49.1654292"><time>2025-03-23T11:37:19.493</time></trkpt><trkpt lat="55.7998683" lon="49.1653754"><time>2025-03-23T11:37:21.487</time></trkpt><trkpt lat="55.7999211" lon="49.1653241"><time>2025-03-23T11:37:24.420</time></trkpt><trkpt lat="55.7999614" lon="49.1652878"><time>2025-03-23T11:37:26.433</time></trkpt><trkpt lat="55.8000092" lon="49.1652415"><time>2025-03-23T11:37:28.420</time></trkpt><trkpt lat="55.8000468" lon="49.1651871"><time>2025-03-23T11:37:30.420</time></trkpt><trkpt lat="55.8000832" lon="49.1651253"><time>2025-03-23T11:37:32.423</time></trkpt><trkpt lat="55.8001283" lon="49.1650726"><time>2025-03-23T11:37:34.423</time></trkpt><trkpt lat="55.8001815" lon="49.1650151"><time>2025-03-23T11:37:36.430</time></trkpt><trkpt lat="55.8002332" lon="49.1649400"><time>2025-03-23T11:37:38.430</time></trkpt><trkpt lat="55.8002730" lon="49.1648968"><time>2025-03-23T11:37:39.423</time></trkpt><trkpt lat="55.8003108" lon="49.1648428"><time>2025-03-23T11:37:40.423</time></trkpt><trkpt lat="55.8003474" lon="49.1647953"><time>2025-03-23T11:37:41.427</time></trkpt><trkpt lat="55.8003767" lon="49.1647304"><time>2025-03-23T11:37:42.430</time></trkpt><trkpt lat="55.8003989" lon="49.1646117"><time>2025-03-23T11:37:44.427</time></trkpt><trkpt lat="55.8004310" lon="49.1644984"><time>2025-03-23T11:37:46.423</time></trkpt><trkpt lat="55.8004576" lon="49.1643971"><time>2025-03-23T11:37:48.430</time></trkpt><trkpt lat="55.8004995" lon="49.1643255"><time>2025-03-23T11:37:50.427</time></trkpt><trkpt lat="55.8005427" lon="49.1642343"><time>2025-03-23T11:37:53.427</time></trkpt><trkpt lat="55.8005847" lon="49.1641304"><time>2025-03-23T11:37:56.487</time></trkpt><trkpt lat="55.8006207" lon="49.1640609"><time>2025-03-23T11:37:58.430</time></trkpt><trkpt lat="55.8006657" lon="49.1639996"><time>2025-03-23T11:38:00.483</time></trkpt><trkpt lat="55.8007039" lon="49.1639487"><time>2025-03-23T11:38:02.440</time></trkpt><trkpt lat="55.8007648" lon="49.1638846"><time>2025-03-23T11:38:05.503</time></trkpt><trkpt lat="55.8008239" lon="49.1638113"><time>2025-03-23T11:38:07.433</time></trkpt><trkpt lat="55.8008784" lon="49.1637527"><time>2025-03-23T11:38:09.483</time></trkpt><trkpt lat="55.8009215" lon="49.1637019"><time>2025-03-23T11:38:11.483</time></trkpt><trkpt lat="55.8009722" lon="49.1636655"><time>2025-03-23T11:38:13.430</time></trkpt><trkpt lat="55.8010345" lon="49.1636252"><time>2025-03-23T11:38:15.433</time></trkpt><trkpt lat="55.8011090" lon="49.1635924"><time>2025-03-23T11:38:17.427</time></trkpt><trkpt lat="55.8011528" lon="49.1635463"><time>2025-03-23T11:38:19.490</time></trkpt><trkpt lat="55.8012068" lon="49.1634937"><time>2025-03-23T11:38:22.433</time></trkpt><trkpt lat="55.8012571" lon="49.1635013"><time>2025-03-23T11:38:24.487</time></trkpt><trkpt lat="55.8013097" lon="49.1635092"><time>2025-03-23T11:38:26.497</time></trkpt><trkpt lat="55.8013620" lon="49.1635140"><time>2025-03-23T11:38:29.493</time></trkpt><trkpt lat="55.8014131" lon="49.1634780"><time>2025-03-23T11:38:31.500</time></trkpt><trkpt lat="55.8014727" lon="49.1634488"><time>2025-03-23T11:38:34.493</time></trkpt><trkpt lat="55.8015196" lon="49.1633827"><time>2025-03-23T11:38:37.447</time></trkpt><trkpt lat="55.8015586" lon="49.1633101"><time>2025-03-23T11:38:41.487</time></trkpt><trkpt lat="55.8015675" lon="49.1632258"><time>2025-03-23T11:38:44.497</time></trkpt><trkpt lat="55.8015231" lon="49.1631459"><time>2025-03-23T11:38:47.433</time></trkpt><trkpt lat="55.8014524" lon="49.1631055"><time>2025-03-23T11:38:49.490</time></trkpt><trkpt lat="55.8014014" lon="49.1630998"><time>2025-03-23T11:38:51.497</time></trkpt><trkpt lat="55.8013419" lon="49.1630417"><time>2025-03-23T11:38:54.493</time></trkpt><trkpt lat="55.8012994" lon="49.1629959"><time>2025-03-23T11:38:56.497</time></trkpt><trkpt lat="55.8012494" lon="49.1629619"><time>2025-03-23T11:38:58.433</time></trkpt><trkpt lat="55.8012022" lon="49.1629190"><time>2025-03-23T11:39:00.507</time></trkpt><trkpt lat="55.8011449" lon="49.1629021"><time>2025-03-23T11:39:03.440</time></trkpt><trkpt lat="55.8010954" lon="49.1629173"><time>2025-03-23T11:39:05.500</time></trkpt><trkpt lat="55.8010373" lon="49.1628956"><time>2025-03-23T11:39:08.430</time></trkpt><trkpt lat="55.8009825" lon="49.1628669"><time>2025-03-23T11:39:11.487</time></trkpt><trkpt lat="55.8009286" lon="49.1628074"><time>2025-03-23T11:39:13.437</time></trkpt><trkpt lat="55.8008673" lon="49.1627204"><time>2025-03-23T11:39:15.490</time></trkpt><trkpt lat="55.8008057" lon="49.1626570"><time>2025-03-23T11:39:17.433</time></trkpt><trkpt lat="55.8007376" lon="49.1626008"><time>2025-03-23T11:39:19.487</time></trkpt><trkpt lat="55.8006718" lon="49.1625515"><time>2025-03-23T11:39:21.423</time></trkpt><trkpt lat="55.8006059" lon="49.1624941"><time>2025-03-23T11:39:24.433</time></trkpt><trkpt lat="55.8005584" lon="49.1624506"><time>2025-03-23T11:39:27.437</time></trkpt><trkpt lat="55.8004846" lon="49.1624172"><time>2025-03-23T11:39:30.520</time></trkpt><trkpt lat="55.8004323" lon="49.1624184"><time>2025-03-23T11:39:33.433</time></trkpt><trkpt lat="55.8003693" lon="49.1623905"><time>2025-03-23T11:39:36.490</time></trkpt><trkpt lat="55.8003230" lon="49.1623353"><time>2025-03-23T11:39:38.433</time></trkpt><trkpt lat="55.8002686" lon="49.1623071"><time>2025-03-23T11:39:42.433</time></trkpt><trkpt lat="55.8002347" lon="49.1622379"><time>2025-03-23T11:39:45.487</time></trkpt><trkpt lat="55.8002227" lon="49.1621563"><time>2025-03-23T11:39:48.437</time></trkpt><trkpt lat="55.8001912" lon="49.1620946"><time>2025-03-23T11:39:52.437</time></trkpt><trkpt lat="55.8001523" lon="49.1620305"><time>2025-03-23T11:39:55.493</time></trkpt><trkpt lat="55.8001122" lon="49.1619566"><time>2025-03-23T11:39:59.490</time></trkpt><trkpt lat="55.8000666" lon="49.1618876"><time>2025-03-23T11:40:03.440</time></trkpt><trkpt lat="55.8000190" lon="49.1618412"><time>2025-03-23T11:40:07.437</time></trkpt><trkpt lat="55.7999725" lon="49.1617726"><time>2025-03-23T11:40:10.490</time></trkpt><trkpt lat="55.7999395" lon="49.1616515"><time>2025-03-23T11:40:12.437</time></trkpt><trkpt lat="55.7999029" lon="49.1615302"><time>2025-03-23T11:40:14.497</time></trkpt><trkpt lat="55.7998817" lon="49.1614265"><time>2025-03-23T11:40:16.430</time></trkpt><trkpt lat="55.7998697" lon="49.1613415"><time>2025-03-23T11:40:18.493</time></trkpt><trkpt lat="55.7998676" lon="49.1612552"><time>2025-03-23T11:40:20.497</time></trkpt><trkpt lat="55.7998554" lon="49.1611536"><time>2025-03-23T11:40:22.433</time></trkpt><trkpt lat="55.7998397" lon="49.1610621"><time>2025-03-23T11:40:24.493</time></trkpt><trkpt lat="55.7998233" lon="49.1609609"><time>2025-03-23T11:40:26.440</time></trkpt><trkpt lat="55.7998302" lon="49.1608662"><time>2025-03-23T11:40:28.430</time></trkpt><trkpt lat="55.7998458" lon="49.1607650"><time>2025-03-23T11:40:30.497</time></trkpt><trkpt lat="55.7998460" lon="49.1606682"><time>2025-03-23T11:40:32.430</time></trkpt><trkpt lat="55.7998357" lon="49.1605743"><time>2025-03-23T11:40:34.453</time></trkpt><trkpt lat="55.7998229" lon="49.1604973"><time>2025-03-23T11:40:36.497</time></trkpt><trkpt lat="55.7997884" lon="49.1604072"><time>2025-03-23T11:40:38.437</time></trkpt><trkpt lat="55.7997707" lon="49.1603244"><time>2025-03-23T11:40:40.497</time></trkpt><trkpt lat="55.7997651" lon="49.1602241"><time>2025-03-23T11:40:42.430</time></trkpt><trkpt lat="55.7997773" lon="49.1601298"><time>2025-03-23T11:40:44.493</time></trkpt><trkpt lat="55.7997814" lon="49.1600331"><time>2025-03-23T11:40:46.497</time></trkpt><trkpt lat="55.7997946" lon="49.1598659"><time>2025-03-23T11:40:48.430</time></trkpt><trkpt lat="55.7998118" lon="49.1597391"><time>2025-03-23T11:40:50.493</time></trkpt><trkpt lat="55.7998331" lon="49.1596603"><time>2025-03-23T11:40:52.437</time></trkpt><trkpt lat="55.7998647" lon="49.1595493"><time>2025-03-23T11:40:55.493</time></trkpt><trkpt lat="55.7998914" lon="49.1594484"><time>2025-03-23T11:40:57.437</time></trkpt><trkpt lat="55.7999293" lon="49.1593756"><time>2025-03-23T11:40:59.497</time></trkpt><trkpt lat="55.7999663" lon="49.1593274"><time>2025-03-23T11:41:01.490</time></trkpt><trkpt lat="55.8000138" lon="49.1592592"><time>2025-03-23T11:41:04.513</time></trkpt><trkpt lat="55.8000547" lon="49.1592145"><time>2025-03-23T11:41:06.503</time></trkpt><trkpt lat="55.8001007" lon="49.1591459"><time>2025-03-23T11:41:08.437</time></trkpt><trkpt lat="55.8001417" lon="49.1590738"><time>2025-03-23T11:41:10.497</time></trkpt><trkpt lat="55.8001778" lon="49.1590129"><time>2025-03-23T11:41:12.433</time></trkpt><trkpt lat="55.8002195" lon="49.1589546"><time>2025-03-23T11:41:14.497</time></trkpt><trkpt lat="55.8002725" lon="49.1588712"><time>2025-03-23T11:41:16.493</time></trkpt><trkpt lat="55.8003273" lon="49.1587481"><time>2025-03-23T11:41:18.433</time></trkpt><trkpt lat="55.8003760" lon="49.1586578"><time>2025-03-23T11:41:20.497</time></trkpt><trkpt lat="55.8004257" lon="49.1585876"><time>2025-03-23T11:41:23.430</time></trkpt><trkpt lat="55.8004709" lon="49.1585080"><time>2025-03-23T11:41:26.433</time></trkpt><trkpt lat="55.8005199" lon="49.1584478"><time>2025-03-23T11:41:28.437</time></trkpt><trkpt lat="55.8005562" lon="49.1583668"><time>2025-03-23T11:41:30.490</time></trkpt><trkpt lat="55.8005974" lon="49.1583179"><time>2025-03-23T11:41:32.430</time></trkpt><trkpt lat="55.8006564" lon="49.1582428"><time>2025-03-23T11:41:34.493</time></trkpt><trkpt lat="55.8006991" lon="49.1581484"><time>2025-03-23T11:41:36.493</time></trkpt><trkpt lat="55.8007325" lon="49.1580595"><time>2025-03-23T11:41:39.497</time></trkpt><trkpt lat="55.8007650" lon="49.1579860"><time>2025-03-23T11:41:42.427</time></trkpt><trkpt lat="55.8008024" lon="49.1579025"><time>2025-03-23T11:41:45.487</time></trkpt><trkpt lat="55.8008440" lon="49.1578405"><time>2025-03-23T11:41:47.437</time></trkpt><trkpt lat="55.8009007" lon="49.1577822"><time>2025-03-23T11:41:49.493</time></trkpt><trkpt lat="55.8009492" lon="49.1577083"><time>2025-03-23T11:41:52.437</time></trkpt><trkpt lat="55.8009879" lon="49.1576469"><time>2025-03-23T11:41:54.497</time></trkpt><trkpt lat="55.8010219" lon="49.1575559"><time>2025-03-23T11:41:56.507</time></trkpt><trkpt lat="55.8010608" lon="49.1575125"><time>2025-03-23T11:41:58.437</time></trkpt><trkpt lat="55.8011012" lon="49.1574574"><time>2025-03-23T11:42:00.497</time></trkpt><trkpt lat="55.8011447" lon="49.1573895"><time>2025-03-23T11:42:02.433</time></trkpt><trkpt lat="55.8011867" lon="49.1573335"><time>2025-03-23T11:42:04.490</time></trkpt><trkpt lat="55.8012234" lon="49.1572726"><time>2025-03-23T11:42:06.497</time></trkpt><trkpt lat="55.8012583" lon="49.1572209"><time>2025-03-23T11:42:08.433</time></trkpt><trkpt lat="55.8012956" lon="49.1571727"><time>2025-03-23T11:42:10.493</time></trkpt><trkpt lat="55.8013367" lon="49.1571067"><time>2025-03-23T11:42:12.433</time></trkpt><trkpt lat="55.8013874" lon="49.1570346"><time>2025-03-23T11:42:14.433</time></trkpt><trkpt lat="55.8014368" lon="49.1569591"><time>2025-03-23T11:42:16.493</time></trkpt><trkpt lat="55.8014861" lon="49.1568901"><time>2025-03-23T11:42:18.433</time></trkpt><trkpt lat="55.8015352" lon="49.1568212"><time>2025-03-23T11:42:20.503</time></trkpt><trkpt lat="55.8015817" lon="49.1567542"><time>2025-03-23T11:42:22.437</time></trkpt><trkpt lat="55.8016279" lon="49.1566820"><time>2025-03-23T11:42:24.467</time></trkpt><trkpt lat="55.8016662" lon="49.1566101"><time>2025-03-23T11:42:26.493</time></trkpt><trkpt lat="55.8017124" lon="49.1565438"><time>2025-03-23T11:42:28.437</time></trkpt><trkpt lat="55.8017599" lon="49.1564931"><time>2025-03-23T11:42:30.507</time></trkpt><trkpt lat="55.8018019" lon="49.1564240"><time>2025-03-23T11:42:33.437</time></trkpt><trkpt lat="55.8018483" lon="49.1563726"><time>2025-03-23T11:42:35.487</time></trkpt><trkpt lat="55.8018959" lon="49.1563182"><time>2025-03-23T11:42:37.437</time></trkpt><trkpt lat="55.8019432" lon="49.1562609"><time>2025-03-23T11:42:39.493</time></trkpt><trkpt lat="55.8019919" lon="49.1562176"><time>2025-03-23T11:42:41.487</time></trkpt><trkpt lat="55.8020356" lon="49.1561673"><time>2025-03-23T11:42:43.433</time></trkpt><trkpt lat="55.8020797" lon="49.1561081"><time>2025-03-23T11:42:45.430</time></trkpt><trkpt lat="55.8021252" lon="49.1560553"><time>2025-03-23T11:42:47.437</time></trkpt><trkpt lat="55.8021667" lon="49.1559894"><time>2025-03-23T11:42:49.440</time></trkpt><trkpt lat="55.8021948" lon="49.1558889"><time>2025-03-23T11:42:52.440</time></trkpt><trkpt lat="55.8022155" lon="49.1558124"><time>2025-03-23T11:42:54.437</time></trkpt><trkpt lat="55.8022545" lon="49.1557336"><time>2025-03-23T11:42:56.437</time></trkpt><trkpt lat="55.8022905" lon="49.1556588"><time>2025-03-23T11:42:58.440</time></trkpt><trkpt lat="55.8022749" lon="49.1555503"><time>2025-03-23T11:43:01.497</time></trkpt><trkpt lat="55.8022370" lon="49.1555025"><time>2025-03-23T11:43:03.440</time></trkpt><trkpt lat="55.8021866" lon="49.1554403"><time>2025-03-23T11:43:05.497</time></trkpt><trkpt lat="55.8021416" lon="49.1553935"><time>2025-03-23T11:43:07.437</time></trkpt><trkpt lat="55.8020986" lon="49.1553682"><time>2025-03-23T11:43:09.433</time></trkpt><trkpt lat="55.8020522" lon="49.1553347"><time>2025-03-23T11:43:11.437</time></trkpt><trkpt lat="55.8019922" lon="49.1552857"><time>2025-03-23T11:43:14.433</time></trkpt><trkpt lat="55.8019374" lon="49.1552354"><time>2025-03-23T11:43:17.437</time></trkpt><trkpt lat="55.8018835" lon="49.1551891"><time>2025-03-23T11:43:19.490</time></trkpt><trkpt lat="55.8018290" lon="49.1551412"><time>2025-03-23T11:43:21.427</time></trkpt><trkpt lat="55.8017872" lon="49.1551085"><time>2025-03-23T11:43:23.430</time></trkpt><trkpt lat="55.8017444" lon="49.1550798"><time>2025-03-23T11:43:25.433</time></trkpt><trkpt lat="55.8017012" lon="49.1550509"><time>2025-03-23T11:43:27.427</time></trkpt><trkpt lat="55.8016599" lon="49.1550086"><time>2025-03-23T11:43:29.430</time></trkpt><trkpt lat="55.8016070" lon="49.1549486"><time>2025-03-23T11:43:32.433</time></trkpt><trkpt lat="55.8015641" lon="49.1549169"><time>2025-03-23T11:43:34.433</time></trkpt><trkpt lat="55.8015050" lon="49.1548632"><time>2025-03-23T11:43:37.430</time></trkpt><trkpt lat="55.8014626" lon="49.1548307"><time>2025-03-23T11:43:39.433</time></trkpt><trkpt lat="55.8014173" lon="49.1547922"><time>2025-03-23T11:43:42.430</time></trkpt><trkpt lat="55.8013696" lon="49.1547618"><time>2025-03-23T11:43:45.433</time></trkpt><trkpt lat="55.8013166" lon="49.1547182"><time>2025-03-23T11:43:48.433</time></trkpt><trkpt lat="55.8012733" lon="49.1546821"><time>2025-03-23T11:43:51.430</time></trkpt><trkpt lat="55.8012202" lon="49.1546571"><time>2025-03-23T11:43:55.487</time></trkpt><trkpt lat="55.8011692" lon="49.1546193"><time>2025-03-23T11:43:59.490</time></trkpt><trkpt lat="55.8011196" lon="49.1545655"><time>2025-03-23T11:44:03.433</time></trkpt><trkpt lat="55.8010791" lon="49.1545087"><time>2025-03-23T11:44:06.493</time></trkpt><trkpt lat="55.8010440" lon="49.1544403"><time>2025-03-23T11:44:10.497</time></trkpt><trkpt lat="55.8010117" lon="49.1543816"><time>2025-03-23T11:44:13.430</time></trkpt><trkpt lat="55.8009770" lon="49.1543274"><time>2025-03-23T11:44:16.493</time></trkpt><trkpt lat="55.8009275" lon="49.1542548"><time>2025-03-23T11:44:19.487</time></trkpt><trkpt lat="55.8008889" lon="49.1541954"><time>2025-03-23T11:44:21.477</time></trkpt><trkpt lat="55.8008543" lon="49.1541323"><time>2025-03-23T11:44:24.490</time></trkpt><trkpt lat="55.8008193" lon="49.1540424"><time>2025-03-23T11:44:27.433</time></trkpt><trkpt lat="55.8007899" lon="49.1539777"><time>2025-03-23T11:44:29.493</time></trkpt><trkpt lat="55.8007515" lon="49.1539023"><time>2025-03-23T11:44:32.433</time></trkpt><trkpt lat="55.8007084" lon="49.1538439"><time>2025-03-23T11:44:35.500</time></trkpt><trkpt lat="55.8006707" lon="49.1537925"><time>2025-03-23T11:44:38.437</time></trkpt><trkpt lat="55.8006169" lon="49.1537419"><time>2025-03-23T11:44:41.487</time></trkpt><trkpt lat="55.8005630" lon="49.1537134"><time>2025-03-23T11:44:44.507</time></trkpt><trkpt lat="55.8005081" lon="49.1536965"><time>2025-03-23T11:44:47.433</time></trkpt><trkpt lat="55.8004561" lon="49.1536844"><time>2025-03-23T11:44:50.493</time></trkpt><trkpt lat="55.8003994" lon="49.1536833"><time>2025-03-23T11:44:53.433</time></trkpt><trkpt lat="55.8003417" lon="49.1536823"><time>2025-03-23T11:44:56.493</time></trkpt><trkpt lat="55.8002957" lon="49.1536783"><time>2025-03-23T11:44:58.437</time></trkpt><trkpt lat="55.8002402" lon="49.1536886"><time>2025-03-23T11:45:01.497</time></trkpt><trkpt lat="55.8001802" lon="49.1537013"><time>2025-03-23T11:45:05.500</time></trkpt><trkpt lat="55.8001324" lon="49.1536959"><time>2025-03-23T11:45:08.437</time></trkpt><trkpt lat="55.8000862" lon="49.1537048"><time>2025-03-23T11:45:11.510</time></trkpt><trkpt lat="55.8000315" lon="49.1537242"><time>2025-03-23T11:45:15.500</time></trkpt><trkpt lat="55.7999829" lon="49.1537259"><time>2025-03-23T11:45:18.433</time></trkpt><trkpt lat="55.7999315" lon="49.1537366"><time>2025-03-23T11:45:21.430</time></trkpt><trkpt lat="55.7998871" lon="49.1537519"><time>2025-03-23T11:45:24.433</time></trkpt><trkpt lat="55.7998312" lon="49.1537788"><time>2025-03-23T11:45:28.433</time></trkpt><trkpt lat="55.7997806" lon="49.1537870"><time>2025-03-23T11:45:31.433</time></trkpt><trkpt lat="55.7997259" lon="49.1537968"><time>2025-03-23T11:45:35.427</time></trkpt><trkpt lat="55.7996763" lon="49.1537978"><time>2025-03-23T11:45:39.427</time></trkpt><trkpt lat="55.7996213" lon="49.1537862"><time>2025-03-23T11:45:43.437</time></trkpt><trkpt lat="55.7995744" lon="49.1537378"><time>2025-03-23T11:45:48.430</time></trkpt><trkpt lat="55.7995298" lon="49.1537177"><time>2025-03-23T11:45:53.433</time></trkpt><trkpt lat="55.7994794" lon="49.1536773"><time>2025-03-23T11:45:58.437</time></trkpt><trkpt lat="55.7994471" lon="49.1536122"><time>2025-03-23T11:46:03.437</time></trkpt><trkpt lat="55.7994037" lon="49.1535793"><time>2025-03-23T11:46:07.437</time></trkpt><trkpt lat="55.7993615" lon="49.1535420"><time>2025-03-23T11:46:11.457</time></trkpt><trkpt lat="55.7993515" lon="49.1534551"><time>2025-03-23T11:46:15.490</time></trkpt><trkpt lat="55.7993185" lon="49.1533821"><time>2025-03-23T11:46:21.433</time></trkpt><trkpt lat="55.7993002" lon="49.1533052"><time>2025-03-23T11:46:26.433</time></trkpt><trkpt lat="55.7992918" lon="49.1532250"><time>2025-03-23T11:46:33.440</time></trkpt><trkpt lat="55.7993186" lon="49.1532970"><time>2025-03-23T11:46:53.437</time></trkpt><trkpt lat="55.7993585" lon="49.1533573"><time>2025-03-23T11:46:57.433</time></trkpt><trkpt lat="55.7994136" lon="49.1533639"><time>2025-03-23T11:47:02.437</time></trkpt><trkpt lat="55.7994642" lon="49.1533831"><time>2025-03-23T11:47:07.427</time></trkpt><trkpt lat="55.7995099" lon="49.1534055"><time>2025-03-23T11:47:11.497</time></trkpt><trkpt lat="55.7995471" lon="49.1533489"><time>2025-03-23T11:47:16.493</time></trkpt><trkpt lat="55.7995468" lon="49.1533172"><time>2025-03-23T11:47:18.787</time></trkpt><trkpt lat="55.7994910" lon="49.1533490"><time>2025-03-23T11:47:24.437</time></trkpt><trkpt lat="55.7994389" lon="49.1533780"><time>2025-03-23T11:47:27.437</time></trkpt><trkpt lat="55.7993944" lon="49.1533634"><time>2025-03-23T11:47:31.437</time></trkpt><trkpt lat="55.7993485" lon="49.1533369"><time>2025-03-23T11:47:33.440</time></trkpt><trkpt lat="55.7992837" lon="49.1533600"><time>2025-03-23T11:47:36.490</time></trkpt><trkpt lat="55.7992421" lon="49.1533941"><time>2025-03-23T11:47:41.500</time></trkpt><trkpt lat="55.7992047" lon="49.1533236"><time>2025-03-23T11:47:48.440</time></trkpt><trkpt lat="55.7991567" lon="49.1533016"><time>2025-03-23T11:47:53.430</time></trkpt><trkpt lat="55.7990950" lon="49.1533401"><time>2025-03-23T11:47:56.507</time></trkpt><trkpt lat="55.7990319" lon="49.1533794"><time>2025-03-23T11:47:59.497</time></trkpt><trkpt lat="55.7989741" lon="49.1534225"><time>2025-03-23T11:48:02.440</time></trkpt><trkpt lat="55.7989274" lon="49.1534646"><time>2025-03-23T11:48:05.497</time></trkpt><trkpt lat="55.7988659" lon="49.1535000"><time>2025-03-23T11:48:08.437</time></trkpt><trkpt lat="55.7988032" lon="49.1535343"><time>2025-03-23T11:48:11.497</time></trkpt><trkpt lat="55.7987602" lon="49.1535573"><time>2025-03-23T11:48:13.433</time></trkpt><trkpt lat="55.7987098" lon="49.1535807"><time>2025-03-23T11:48:15.503</time></trkpt><trkpt lat="55.7986603" lon="49.1536088"><time>2025-03-23T11:48:17.430</time></trkpt><trkpt lat="55.7986067" lon="49.1536412"><time>2025-03-23T11:48:19.503</time></trkpt><trkpt lat="55.7985571" lon="49.1536714"><time>2025-03-23T11:48:21.493</time></trkpt><trkpt lat="55.7985161" lon="49.1537346"><time>2025-03-23T11:48:23.433</time></trkpt><trkpt lat="55.7984701" lon="49.1537826"><time>2025-03-23T11:48:25.433</time></trkpt><trkpt lat="55.7984149" lon="49.1538093"><time>2025-03-23T11:48:27.427</time></trkpt><trkpt lat="55.7983582" lon="49.1538368"><time>2025-03-23T11:48:29.507</time></trkpt><trkpt lat="55.7983140" lon="49.1538509"><time>2025-03-23T11:48:31.493</time></trkpt><trkpt lat="55.7982492" lon="49.1538822"><time>2025-03-23T11:48:34.490</time></trkpt><trkpt lat="55.7981833" lon="49.1539152"><time>2025-03-23T11:48:37.437</time></trkpt><trkpt lat="55.7981334" lon="49.1539534"><time>2025-03-23T11:48:39.433</time></trkpt><trkpt lat="55.7980840" lon="49.1539880"><time>2025-03-23T11:48:41.497</time></trkpt><trkpt lat="55.7980396" lon="49.1540246"><time>2025-03-23T11:48:43.433</time></trkpt><trkpt lat="55.7979884" lon="49.1540410"><time>2025-03-23T11:48:45.500</time></trkpt><trkpt lat="55.7979422" lon="49.1540677"><time>2025-03-23T11:48:47.437</time></trkpt><trkpt lat="55.7978963" lon="49.1540870"><time>2025-03-23T11:48:49.500</time></trkpt><trkpt lat="55.7978515" lon="49.1541225"><time>2025-03-23T11:48:51.490</time></trkpt><trkpt lat="55.7978043" lon="49.1541395"><time>2025-03-23T11:48:53.437</time></trkpt><trkpt lat="55.7977596" lon="49.1541556"><time>2025-03-23T11:48:55.437</time></trkpt><trkpt lat="55.7976914" lon="49.1541703"><time>2025-03-23T11:48:58.437</time></trkpt><trkpt lat="55.7976463" lon="49.1541730"><time>2025-03-23T11:49:00.437</time></trkpt><trkpt lat="55.7975929" lon="49.1542245"><time>2025-03-23T11:49:03.440</time></trkpt><trkpt lat="55.7975486" lon="49.1542876"><time>2025-03-23T11:49:06.493</time></trkpt><trkpt lat="55.7974994" lon="49.1543108"><time>2025-03-23T11:49:10.500</time></trkpt><trkpt lat="55.7974472" lon="49.1543357"><time>2025-03-23T11:49:14.460</time></trkpt><trkpt lat="55.7974001" lon="49.1543785"><time>2025-03-23T11:49:18.437</time></trkpt><trkpt lat="55.7973561" lon="49.1544113"><time>2025-03-23T11:49:21.497</time></trkpt><trkpt lat="55.7972997" lon="49.1544491"><time>2025-03-23T11:49:25.497</time></trkpt><trkpt lat="55.7972547" lon="49.1544727"><time>2025-03-23T11:49:27.437</time></trkpt><trkpt lat="55.7972114" lon="49.1544964"><time>2025-03-23T11:49:29.453</time></trkpt><trkpt lat="55.7971552" lon="49.1545268"><time>2025-03-23T11:49:31.437</time></trkpt><trkpt lat="55.7971056" lon="49.1545484"><time>2025-03-23T11:49:33.440</time></trkpt><trkpt lat="55.7970543" lon="49.1545700"><time>2025-03-23T11:49:35.440</time></trkpt><trkpt lat="55.7970034" lon="49.1545934"><time>2025-03-23T11:49:37.437</time></trkpt><trkpt lat="55.7969478" lon="49.1546067"><time>2025-03-23T11:49:39.497</time></trkpt><trkpt lat="55.7968954" lon="49.1546138"><time>2025-03-23T11:49:41.493</time></trkpt><trkpt lat="55.7968485" lon="49.1546170"><time>2025-03-23T11:49:43.437</time></trkpt><trkpt lat="55.7967979" lon="49.1546175"><time>2025-03-23T11:49:45.497</time></trkpt><trkpt lat="55.7967325" lon="49.1546270"><time>2025-03-23T11:49:47.440</time></trkpt><trkpt lat="55.7966754" lon="49.1546595"><time>2025-03-23T11:49:49.507</time></trkpt><trkpt lat="55.7966230" lon="49.1546931"><time>2025-03-23T11:49:51.497</time></trkpt><trkpt lat="55.7965713" lon="49.1547223"><time>2025-03-23T11:49:53.437</time></trkpt><trkpt lat="55.7965191" lon="49.1547429"><time>2025-03-23T11:49:55.500</time></trkpt><trkpt lat="55.7964640" lon="49.1547688"><time>2025-03-23T11:49:57.440</time></trkpt><trkpt lat="55.7964148" lon="49.1547909"><time>2025-03-23T11:49:59.493</time></trkpt><trkpt lat="55.7963662" lon="49.1548189"><time>2025-03-23T11:50:01.517</time></trkpt><trkpt lat="55.7963134" lon="49.1548438"><time>2025-03-23T11:50:03.440</time></trkpt><trkpt lat="55.7962612" lon="49.1548623"><time>2025-03-23T11:50:05.500</time></trkpt><trkpt lat="55.7962107" lon="49.1548871"><time>2025-03-23T11:50:07.440</time></trkpt><trkpt lat="55.7961625" lon="49.1549034"><time>2025-03-23T11:50:09.493</time></trkpt><trkpt lat="55.7961060" lon="49.1549153"><time>2025-03-23T11:50:11.503</time></trkpt><trkpt lat="55.7960574" lon="49.1549278"><time>2025-03-23T11:50:13.437</time></trkpt><trkpt lat="55.7960108" lon="49.1549423"><time>2025-03-23T11:50:15.487</time></trkpt><trkpt lat="55.7959618" lon="49.1549606"><time>2025-03-23T11:50:17.437</time></trkpt><trkpt lat="55.7959139" lon="49.1549827"><time>2025-03-23T11:50:19.500</time></trkpt><trkpt lat="55.7958633" lon="49.1549983"><time>2025-03-23T11:50:21.497</time></trkpt><trkpt lat="55.7958148" lon="49.1550160"><time>2025-03-23T11:50:23.440</time></trkpt><trkpt lat="55.7957673" lon="49.1550333"><time>2025-03-23T11:50:25.433</time></trkpt><trkpt lat="55.7957196" lon="49.1550501"><time>2025-03-23T11:50:27.433</time></trkpt><trkpt lat="55.7956710" lon="49.1550595"><time>2025-03-23T11:50:29.493</time></trkpt><trkpt lat="55.7956214" lon="49.1550738"><time>2025-03-23T11:50:31.487</time></trkpt><trkpt lat="55.7955727" lon="49.1550886"><time>2025-03-23T11:50:33.440</time></trkpt><trkpt lat="55.7955222" lon="49.1551083"><time>2025-03-23T11:50:35.493</time></trkpt><trkpt lat="55.7954702" lon="49.1551233"><time>2025-03-23T11:50:37.437</time></trkpt><trkpt lat="55.7954198" lon="49.1551363"><time>2025-03-23T11:50:39.490</time></trkpt><trkpt lat="55.7953715" lon="49.1551568"><time>2025-03-23T11:50:41.500</time></trkpt><trkpt lat="55.7953225" lon="49.1551740"><time>2025-03-23T11:50:43.440</time></trkpt><trkpt lat="55.7952732" lon="49.1551869"><time>2025-03-23T11:50:45.517</time></trkpt><trkpt lat="55.7952252" lon="49.1552014"><time>2025-03-23T11:50:47.437</time></trkpt><trkpt lat="55.7951772" lon="49.1552127"><time>2025-03-23T11:50:49.497</time></trkpt><trkpt lat="55.7951292" lon="49.1552200"><time>2025-03-23T11:50:51.497</time></trkpt><trkpt lat="55.7950810" lon="49.1552324"><time>2025-03-23T11:50:53.437</time></trkpt><trkpt lat="55.7950318" lon="49.1552456"><time>2025-03-23T11:50:55.497</time></trkpt><trkpt lat="55.7949803" lon="49.1552584"><time>2025-03-23T11:50:57.437</time></trkpt><trkpt lat="55.7949243" lon="49.1552654"><time>2025-03-23T11:50:59.493</time></trkpt><trkpt lat="55.7948694" lon="49.1552705"><time>2025-03-23T11:51:01.500</time></trkpt><trkpt lat="55.7948187" lon="49.1552815"><time>2025-03-23T11:51:03.440</time></trkpt><trkpt lat="55.7947721" lon="49.1552902"><time>2025-03-23T11:51:05.510</time></trkpt><trkpt lat="55.7947249" lon="49.1553027"><time>2025-03-23T11:51:07.437</time></trkpt><trkpt lat="55.7946771" lon="49.1553219"><time>2025-03-23T11:51:09.487</time></trkpt><trkpt lat="55.7946287" lon="49.1553404"><time>2025-03-23T11:51:11.513</time></trkpt><trkpt lat="55.7945798" lon="49.1553550"><time>2025-03-23T11:51:13.437</time></trkpt><trkpt lat="55.7945296" lon="49.1553737"><time>2025-03-23T11:51:15.497</time></trkpt><trkpt lat="55.7944783" lon="49.1553899"><time>2025-03-23T11:51:17.437</time></trkpt><trkpt lat="55.7944264" lon="49.1554007"><time>2025-03-23T11:51:19.493</time></trkpt><trkpt lat="55.7943762" lon="49.1554171"><time>2025-03-23T11:51:21.493</time></trkpt><trkpt lat="55.7943271" lon="49.1554336"><time>2025-03-23T11:51:23.437</time></trkpt><trkpt lat="55.7942750" lon="49.1554435"><time>2025-03-23T11:51:25.500</time></trkpt><trkpt lat="55.7942249" lon="49.1554513"><time>2025-03-23T11:51:27.440</time></trkpt><trkpt lat="55.7941752" lon="49.1554679"><time>2025-03-23T11:51:29.437</time></trkpt><trkpt lat="55.7941255" lon="49.1554814"><time>2025-03-23T11:51:31.437</time></trkpt><trkpt lat="55.7940744" lon="49.1554922"><time>2025-03-23T11:51:33.437</time></trkpt><trkpt lat="55.7940236" lon="49.1555068"><time>2025-03-23T11:51:35.487</time></trkpt><trkpt lat="55.7939724" lon="49.1555128"><time>2025-03-23T11:51:37.443</time></trkpt><trkpt lat="55.7939216" lon="49.1555219"><time>2025-03-23T11:51:39.493</time></trkpt><trkpt lat="55.7938725" lon="49.1555397"><time>2025-03-23T11:51:41.493</time></trkpt><trkpt lat="55.7938223" lon="49.1555548"><time>2025-03-23T11:51:43.433</time></trkpt><trkpt lat="55.7937696" lon="49.1555671"><time>2025-03-23T11:51:45.500</time></trkpt><trkpt lat="55.7937177" lon="49.1555804"><time>2025-03-23T11:51:47.440</time></trkpt><trkpt lat="55.7936662" lon="49.1555908"><time>2025-03-23T11:51:49.493</time></trkpt><trkpt lat="55.7936141" lon="49.1556056"><time>2025-03-23T11:51:51.497</time></trkpt><trkpt lat="55.7935612" lon="49.1556236"><time>2025-03-23T11:51:53.437</time></trkpt><trkpt lat="55.7935085" lon="49.1556434"><time>2025-03-23T11:51:55.497</time></trkpt><trkpt lat="55.7934586" lon="49.1556589"><time>2025-03-23T11:51:57.437</time></trkpt><trkpt lat="55.7934083" lon="49.1556607"><time>2025-03-23T11:51:59.497</time></trkpt><trkpt lat="55.7933557" lon="49.1556566"><time>2025-03-23T11:52:02.440</time></trkpt><trkpt lat="55.7933065" lon="49.1556571"><time>2025-03-23T11:52:06.497</time></trkpt><trkpt lat="55.7932705" lon="49.1556058"><time>2025-03-23T11:52:11.497</time></trkpt><trkpt lat="55.7932793" lon="49.1555141"><time>2025-03-23T11:52:14.433</time></trkpt><trkpt lat="55.7932845" lon="49.1554273"><time>2025-03-23T11:52:16.500</time></trkpt><trkpt lat="55.7933046" lon="49.1553330"><time>2025-03-23T11:52:18.437</time></trkpt><trkpt lat="55.7933197" lon="49.1552109"><time>2025-03-23T11:52:21.497</time></trkpt><trkpt lat="55.7933133" lon="49.1551268"><time>2025-03-23T11:52:23.433</time></trkpt><trkpt lat="55.7932980" lon="49.1550404"><time>2025-03-23T11:52:27.437</time></trkpt><trkpt lat="55.7932783" lon="49.1549842"><time>2025-03-23T11:52:31.487</time></trkpt><trkpt lat="55.7932832" lon="49.1549589"><time>2025-03-23T11:52:34.437</time></trkpt><trkpt lat="55.7932751" lon="49.1548700"><time>2025-03-23T11:52:37.433</time></trkpt><trkpt lat="55.7932689" lon="49.1547542"><time>2025-03-23T11:52:40.490</time></trkpt><trkpt lat="55.7932405" lon="49.1546580"><time>2025-03-23T11:52:43.440</time></trkpt><trkpt lat="55.7932137" lon="49.1545674"><time>2025-03-23T11:52:45.490</time></trkpt><trkpt lat="55.7931764" lon="49.1544495"><time>2025-03-23T11:52:47.443</time></trkpt><trkpt lat="55.7931271" lon="49.1543403"><time>2025-03-23T11:52:49.493</time></trkpt><trkpt lat="55.7930838" lon="49.1542581"><time>2025-03-23T11:52:51.433</time></trkpt><trkpt lat="55.7930438" lon="49.1541705"><time>2025-03-23T11:52:53.437</time></trkpt><trkpt lat="55.7930263" lon="49.1540957"><time>2025-03-23T11:52:55.500</time></trkpt><trkpt lat="55.7930100" lon="49.1540070"><time>2025-03-23T11:52:57.437</time></trkpt><trkpt lat="55.7929770" lon="49.1539269"><time>2025-03-23T11:52:59.497</time></trkpt><trkpt lat="55.7929305" lon="49.1538933"><time>2025-03-23T11:53:01.500</time></trkpt><trkpt lat="55.7928796" lon="49.1538587"><time>2025-03-23T11:53:03.437</time></trkpt><trkpt lat="55.7928291" lon="49.1538152"><time>2025-03-23T11:53:05.493</time></trkpt><trkpt lat="55.7927953" lon="49.1537348"><time>2025-03-23T11:53:07.437</time></trkpt><trkpt lat="55.7928047" lon="49.1536321"><time>2025-03-23T11:53:09.497</time></trkpt><trkpt lat="55.7928194" lon="49.1535335"><time>2025-03-23T11:53:11.493</time></trkpt><trkpt lat="55.7928215" lon="49.1534333"><time>2025-03-23T11:53:13.433</time></trkpt><trkpt lat="55.7928232" lon="49.1533235"><time>2025-03-23T11:53:15.503</time></trkpt><trkpt lat="55.7928220" lon="49.1532062"><time>2025-03-23T11:53:17.440</time></trkpt><trkpt lat="55.7928315" lon="49.1530971"><time>2025-03-23T11:53:19.500</time></trkpt><trkpt lat="55.7928465" lon="49.1529831"><time>2025-03-23T11:53:21.503</time></trkpt><trkpt lat="55.7928694" lon="49.1528802"><time>2025-03-23T11:53:23.437</time></trkpt><trkpt lat="55.7928916" lon="49.1527854"><time>2025-03-23T11:53:25.493</time></trkpt><trkpt lat="55.7929191" lon="49.1526940"><time>2025-03-23T11:53:27.437</time></trkpt><trkpt lat="55.7929561" lon="49.1526093"><time>2025-03-23T11:53:29.437</time></trkpt><trkpt lat="55.7929958" lon="49.1525322"><time>2025-03-23T11:53:31.437</time></trkpt><trkpt lat="55.7930356" lon="49.1524558"><time>2025-03-23T11:53:33.437</time></trkpt><trkpt lat="55.7930788" lon="49.1523846"><time>2025-03-23T11:53:35.440</time></trkpt><trkpt lat="55.7931223" lon="49.1523164"><time>2025-03-23T11:53:37.437</time></trkpt><trkpt lat="55.7931662" lon="49.1522488"><time>2025-03-23T11:53:39.497</time></trkpt><trkpt lat="55.7932102" lon="49.1521827"><time>2025-03-23T11:53:41.497</time></trkpt><trkpt lat="55.7932552" lon="49.1521140"><time>2025-03-23T11:53:43.440</time></trkpt><trkpt lat="55.7933017" lon="49.1520471"><time>2025-03-23T11:53:45.497</time></trkpt><trkpt lat="55.7933492" lon="49.1519810"><time>2025-03-23T11:53:47.440</time></trkpt><trkpt lat="55.7934038" lon="49.1519771"><time>2025-03-23T11:53:49.497</time></trkpt><trkpt lat="55.7934626" lon="49.1519810"><time>2025-03-23T11:53:51.437</time></trkpt><trkpt lat="55.7935207" lon="49.1519830"><time>2025-03-23T11:53:53.433</time></trkpt><trkpt lat="55.7935789" lon="49.1519574"><time>2025-03-23T11:53:55.493</time></trkpt><trkpt lat="55.7936392" lon="49.1519422"><time>2025-03-23T11:53:57.437</time></trkpt><trkpt lat="55.7937038" lon="49.1519485"><time>2025-03-23T11:53:59.497</time></trkpt><trkpt lat="55.7937636" lon="49.1519227"><time>2025-03-23T11:54:02.440</time></trkpt><trkpt lat="55.7937740" lon="49.1518189"><time>2025-03-23T11:54:05.500</time></trkpt><trkpt lat="55.7937651" lon="49.1516947"><time>2025-03-23T11:54:08.433</time></trkpt><trkpt lat="55.7937230" lon="49.1516282"><time>2025-03-23T11:54:10.500</time></trkpt><trkpt lat="55.7936693" lon="49.1515955"><time>2025-03-23T11:54:12.440</time></trkpt><trkpt lat="55.7936173" lon="49.1515584"><time>2025-03-23T11:54:14.507</time></trkpt><trkpt lat="55.7935608" lon="49.1515055"><time>2025-03-23T11:54:16.500</time></trkpt><trkpt lat="55.7935062" lon="49.1514622"><time>2025-03-23T11:54:18.443</time></trkpt><trkpt lat="55.7934440" lon="49.1514417"><time>2025-03-23T11:54:20.507</time></trkpt><trkpt lat="55.7933887" lon="49.1513941"><time>2025-03-23T11:54:22.437</time></trkpt><trkpt lat="55.7933445" lon="49.1513478"><time>2025-03-23T11:54:24.497</time></trkpt><trkpt lat="55.7933656" lon="49.1512569"><time>2025-03-23T11:54:27.447</time></trkpt><trkpt lat="55.7933906" lon="49.1511575"><time>2025-03-23T11:54:30.497</time></trkpt><trkpt lat="55.7933969" lon="49.1512524"><time>2025-03-23T11:54:38.427</time></trkpt><trkpt lat="55.7934478" lon="49.1512584"><time>2025-03-23T11:54:43.427</time></trkpt><trkpt lat="55.7934912" lon="49.1512158"><time>2025-03-23T11:54:48.427</time></trkpt><trkpt lat="55.7935017" lon="49.1511312"><time>2025-03-23T11:54:53.487</time></trkpt><trkpt lat="55.7934987" lon="49.1510390"><time>2025-03-23T11:54:59.423</time></trkpt></trkseg></trk></gpx>